Wetterdaten: Sonntag, 29.09.2019
Datum Zeit Temp. A. Pool Temp. Temp. 5cm Feuchte A. Luftdruck Regen Wind Richtung Richtung Sonnenschein ET UV Solar Taupunkt Windchill Windben Empfang
29.09.2019 00:00 13,2 C 13,9 C 11,7 C 80 % 1016,8 hPa 0,0 l/m 6,0 km/h (2 Bft) S-SW 198 0 min 0,000 mm 0,0 UV-I 0 W/m 9,8 C 13,2 C 9,7 km/h (2 Bft) 100,00 %
29.09.2019 00:02 13,2 C 13,9 C 11,7 C 80 % 1016,8 hPa 0,0 l/m 6,1 km/h (2 Bft) S-SW 208 0 min 0,000 mm 0,0 UV-I 0 W/m 9,8 C 13,2 C 9,7 km/h (2 Bft) 100,00 %
29.09.2019 00:04 13,3 C 13,9 C 11,7 C 80 % 1016,8 hPa 0,0 l/m 6,2 km/h (2 Bft) S-SW 195 0 min 0,000 mm 0,0 UV-I 0 W/m 9,9 C 13,3 C 8,0 km/h (2 Bft) 95,74 %
29.09.2019 00:06 13,3 C 13,9 C 12,2 C 80 % 1016,8 hPa 0,0 l/m 5,6 km/h (1 Bft) S 175 0 min 0,000 mm 0,0 UV-I 0 W/m 9,9 C 13,3 C 11,3 km/h (2 Bft) 100,00 %
29.09.2019 00:08 13,3 C 13,9 C 12,2 C 80 % 1016,7 hPa 0,0 l/m 5,1 km/h (1 Bft) S-SW 196 0 min 0,000 mm 0,0 UV-I 0 W/m 9,9 C 13,3 C 6,4 km/h (2 Bft) 97,87 %
29.09.2019 00:10 13,3 C 13,9 C 11,7 C 80 % 1016,7 hPa 0,0 l/m 5,4 km/h (1 Bft) SW 219 0 min 0,000 mm 0,0 UV-I 0 W/m 9,9 C 13,3 C 8,0 km/h (2 Bft) 100,00 %
29.09.2019 00:12 13,2 C 13,9 C 11,7 C 80 % 1016,6 hPa 0,0 l/m 4,8 km/h (1 Bft) S-SW 198 0 min 0,000 mm 0,0 UV-I 0 W/m 9,8 C 13,2 C 6,4 km/h (2 Bft) 100,00 %
29.09.2019 00:14 13,2 C 13,9 C 11,7 C 80 % 1016,6 hPa 0,0 l/m 5,0 km/h (1 Bft) S-SW 196 0 min 0,000 mm 0,0 UV-I 0 W/m 9,8 C 13,2 C 6,4 km/h (2 Bft) 97,87 %
29.09.2019 00:16 13,1 C 13,9 C 11,7 C 80 % 1016,6 hPa 0,0 l/m 5,2 km/h (1 Bft) S-SW 208 0 min 0,000 mm 0,0 UV-I 0 W/m 9,7 C 13,1 C 6,4 km/h (2 Bft) 97,87 %
29.09.2019 00:18 13,1 C 13,9 C 11,7 C 80 % 1016,6 hPa 0,0 l/m 5,3 km/h (1 Bft) SW 222 0 min 0,000 mm 0,0 UV-I 0 W/m 9,7 C 13,1 C 8,0 km/h (2 Bft) 100,00 %
29.09.2019 00:20 12,9 C 13,9 C 11,1 C 81 % 1016,6 hPa 0,0 l/m 4,5 km/h (1 Bft) SW 222 0 min 0,000 mm 0,0 UV-I 0 W/m 9,7 C 12,9 C 6,4 km/h (2 Bft) 96,00 %
29.09.2019 00:22 12,9 C 13,9 C 11,1 C 81 % 1016,6 hPa 0,0 l/m 7,1 km/h (2 Bft) SW 220 0 min 0,000 mm 0,0 UV-I 0 W/m 9,7 C 12,5 C 9,7 km/h (2 Bft) 100,00 %
29.09.2019 00:24 12,9 C 13,9 C 11,1 C 81 % 1016,6 hPa 0,0 l/m 6,4 km/h (2 Bft) S-SW 205 0 min 0,000 mm 0,0 UV-I 0 W/m 9,7 C 12,9 C 9,7 km/h (2 Bft) 97,37 %
29.09.2019 00:26 12,8 C 13,9 C 11,1 C 81 % 1016,6 hPa 0,0 l/m 6,9 km/h (2 Bft) S-SW 197 0 min 0,000 mm 0,0 UV-I 0 W/m 9,6 C 12,5 C 9,7 km/h (2 Bft) 95,74 %
29.09.2019 00:28 12,8 C 13,9 C 11,7 C 81 % 1016,6 hPa 0,0 l/m 7,5 km/h (2 Bft) S-SW 204 0 min 0,000 mm 0,0 UV-I 0 W/m 9,6 C 12,1 C 9,7 km/h (2 Bft) 97,87 %
29.09.2019 00:30 12,8 C 13,9 C 11,7 C 81 % 1016,6 hPa 0,0 l/m 6,9 km/h (2 Bft) S-SW 206 0 min 0,000 mm 0,0 UV-I 0 W/m 9,6 C 12,5 C 9,7 km/h (2 Bft) 97,87 %
29.09.2019 00:32 12,9 C 13,9 C 11,7 C 81 % 1016,6 hPa 0,0 l/m 7,2 km/h (2 Bft) S-SW 204 0 min 0,000 mm 0,0 UV-I 0 W/m 9,7 C 12,4 C 9,7 km/h (2 Bft) 93,62 %
29.09.2019 00:34 12,9 C 13,9 C 11,7 C 81 % 1016,6 hPa 0,0 l/m 6,7 km/h (2 Bft) S-SW 209 0 min 0,000 mm 0,0 UV-I 0 W/m 9,7 C 12,7 C 9,7 km/h (2 Bft) 97,92 %
29.09.2019 00:36 12,9 C 13,9 C 11,7 C 81 % 1016,6 hPa 0,0 l/m 6,0 km/h (2 Bft) S-SW 207 0 min 0,000 mm 0,0 UV-I 0 W/m 9,7 C 12,9 C 9,7 km/h (2 Bft) 95,74 %
29.09.2019 00:38 12,9 C 13,9 C 11,7 C 81 % 1016,6 hPa 0,0 l/m 6,1 km/h (2 Bft) S-SW 207 0 min 0,000 mm 0,0 UV-I 0 W/m 9,7 C 12,9 C 8,0 km/h (2 Bft) 93,62 %
29.09.2019 00:40 13,1 C 13,9 C 11,7 C 80 % 1016,6 hPa 0,0 l/m 6,1 km/h (2 Bft) S-SW 211 0 min 0,000 mm 0,0 UV-I 0 W/m 9,7 C 13,1 C 8,0 km/h (2 Bft) 95,83 %
29.09.2019 00:42 13,1 C 13,9 C 11,7 C 80 % 1016,6 hPa 0,0 l/m 5,6 km/h (1 Bft) SW 221 0 min 0,000 mm 0,0 UV-I 0 W/m 9,7 C 13,1 C 8,0 km/h (2 Bft) 96,00 %
29.09.2019 00:44 13,0 C 13,9 C 11,7 C 80 % 1016,6 hPa 0,0 l/m 5,9 km/h (2 Bft) SW 218 0 min 0,000 mm 0,0 UV-I 0 W/m 9,6 C 13,0 C 9,7 km/h (2 Bft) 93,88 %
29.09.2019 00:46 13,1 C 13,9 C 11,7 C 80 % 1016,6 hPa 0,0 l/m 5,2 km/h (1 Bft) SW 216 0 min 0,000 mm 0,0 UV-I 0 W/m 9,7 C 13,1 C 9,7 km/h (2 Bft) 95,83 %
29.09.2019 00:48 13,1 C 13,9 C 11,7 C 79 % 1016,6 hPa 0,0 l/m 6,2 km/h (2 Bft) S 190 0 min 0,000 mm 0,0 UV-I 0 W/m 9,5 C 13,1 C 9,7 km/h (2 Bft) 97,87 %
29.09.2019 00:50 13,2 C 13,9 C 11,7 C 79 % 1016,6 hPa 0,0 l/m 6,0 km/h (2 Bft) S-SW 209 0 min 0,000 mm 0,0 UV-I 0 W/m 9,6 C 13,2 C 11,3 km/h (2 Bft) 95,74 %
29.09.2019 00:52 13,2 C 13,9 C 11,7 C 79 % 1016,6 hPa 0,0 l/m 6,5 km/h (2 Bft) S-SW 205 0 min 0,000 mm 0,0 UV-I 0 W/m 9,6 C 13,2 C 11,3 km/h (2 Bft) 97,22 %
29.09.2019 00:54 13,2 C 13,9 C 11,7 C 79 % 1016,6 hPa 0,0 l/m 6,1 km/h (2 Bft) S-SW 209 0 min 0,000 mm 0,0 UV-I 0 W/m 9,6 C 13,2 C 8,0 km/h (2 Bft) 98,00 %
29.09.2019 00:56 13,2 C 13,9 C 11,7 C 79 % 1016,6 hPa 0,0 l/m 6,4 km/h (2 Bft) S-SW 199 0 min 0,000 mm 0,0 UV-I 0 W/m 9,6 C 13,2 C 8,0 km/h (2 Bft) 95,74 %
29.09.2019 00:58 13,2 C 13,9 C 11,7 C 79 % 1016,6 hPa 0,0 l/m 6,1 km/h (2 Bft) SW 220 0 min 0,000 mm 0,0 UV-I 0 W/m 9,6 C 13,2 C 8,0 km/h (2 Bft) 97,87 %
29.09.2019 01:00 13,1 C 13,9 C 11,7 C 79 % 1016,6 hPa 0,0 l/m 6,4 km/h (2 Bft) S-SW 209 0 min 0,000 mm 0,0 UV-I 0 W/m 9,5 C 13,1 C 9,7 km/h (2 Bft) 97,92 %
29.09.2019 01:02 13,1 C 13,9 C 11,7 C 79 % 1016,6 hPa 0,0 l/m 5,8 km/h (2 Bft) SW 227 0 min 0,025 mm 0,0 UV-I 0 W/m 9,5 C 13,1 C 8,0 km/h (2 Bft) 96,00 %
29.09.2019 01:04 13,1 C 13,9 C 11,7 C 79 % 1016,6 hPa 0,0 l/m 5,9 km/h (2 Bft) SW 223 0 min 0,000 mm 0,0 UV-I 0 W/m 9,5 C 13,1 C 9,7 km/h (2 Bft) 97,87 %
29.09.2019 01:06 13,1 C 13,9 C 11,1 C 79 % 1016,6 hPa 0,0 l/m 6,6 km/h (2 Bft) W-SW 256 0 min 0,000 mm 0,0 UV-I 0 W/m 9,5 C 13,0 C 9,7 km/h (2 Bft) 97,87 %
29.09.2019 01:08 13,0 C 13,9 C 11,1 C 79 % 1016,6 hPa 0,0 l/m 4,2 km/h (1 Bft) SW 228 0 min 0,000 mm 0,0 UV-I 0 W/m 9,4 C 13,0 C 6,4 km/h (2 Bft) 98,00 %
29.09.2019 01:10 13,0 C 13,9 C 11,1 C 79 % 1016,6 hPa 0,0 l/m 5,1 km/h (1 Bft) SW 231 0 min 0,000 mm 0,0 UV-I 0 W/m 9,4 C 13,0 C 6,4 km/h (2 Bft) 97,37 %
29.09.2019 01:12 12,8 C 13,9 C 11,1 C 79 % 1016,7 hPa 0,0 l/m 5,3 km/h (1 Bft) W-SW 246 0 min 0,000 mm 0,0 UV-I 0 W/m 9,2 C 12,8 C 6,4 km/h (2 Bft) 96,00 %
29.09.2019 01:14 12,7 C 13,9 C 10,6 C 80 % 1016,7 hPa 0,0 l/m 5,2 km/h (1 Bft) W-SW 238 0 min 0,000 mm 0,0 UV-I 0 W/m 9,3 C 12,7 C 8,0 km/h (2 Bft) 96,00 %
29.09.2019 01:16 12,6 C 13,9 C 10,6 C 81 % 1016,7 hPa 0,0 l/m 4,7 km/h (1 Bft) W-SW 238 0 min 0,000 mm 0,0 UV-I 0 W/m 9,4 C 12,6 C 6,4 km/h (2 Bft) 94,87 %
29.09.2019 01:18 12,6 C 13,9 C 11,1 C 81 % 1016,7 hPa 0,0 l/m 6,8 km/h (2 Bft) SW 215 0 min 0,000 mm 0,0 UV-I 0 W/m 9,4 C 12,4 C 8,0 km/h (2 Bft) 98,00 %
29.09.2019 01:20 12,6 C 13,9 C 11,1 C 81 % 1016,7 hPa 0,0 l/m 6,6 km/h (2 Bft) SW 227 0 min 0,000 mm 0,0 UV-I 0 W/m 9,4 C 12,5 C 8,0 km/h (2 Bft) 97,87 %
29.09.2019 01:22 12,5 C 13,9 C 11,1 C 82 % 1016,6 hPa 0,0 l/m 5,4 km/h (1 Bft) SW 225 0 min 0,000 mm 0,0 UV-I 0 W/m 9,5 C 12,5 C 6,4 km/h (2 Bft) 97,87 %
29.09.2019 01:24 12,4 C 13,9 C 11,1 C 82 % 1016,7 hPa 0,0 l/m 4,9 km/h (1 Bft) SW 227 0 min 0,000 mm 0,0 UV-I 0 W/m 9,4 C 12,4 C 6,4 km/h (2 Bft) 97,87 %
29.09.2019 01:26 12,3 C 13,9 C 10,6 C 82 % 1016,6 hPa 0,0 l/m 4,8 km/h (1 Bft) SW 232 0 min 0,000 mm 0,0 UV-I 0 W/m 9,3 C 12,3 C 6,4 km/h (2 Bft) 98,00 %
29.09.2019 01:28 12,3 C 13,9 C 10,6 C 83 % 1016,6 hPa 0,0 l/m 5,2 km/h (1 Bft) SW 233 0 min 0,000 mm 0,0 UV-I 0 W/m 9,5 C 12,3 C 8,0 km/h (2 Bft) 98,00 %
29.09.2019 01:30 12,3 C 13,9 C 10,6 C 83 % 1016,6 hPa 0,0 l/m 5,1 km/h (1 Bft) SW 234 0 min 0,000 mm 0,0 UV-I 0 W/m 9,5 C 12,3 C 6,4 km/h (2 Bft) 91,49 %
29.09.2019 01:32 12,4 C 13,9 C 10,6 C 83 % 1016,6 hPa 0,0 l/m 4,6 km/h (1 Bft) SW 232 0 min 0,000 mm 0,0 UV-I 0 W/m 9,6 C 12,4 C 8,0 km/h (2 Bft) 97,87 %
29.09.2019 01:34 12,4 C 13,9 C 10,6 C 83 % 1016,6 hPa 0,0 l/m 4,4 km/h (1 Bft) SW 230 0 min 0,000 mm 0,0 UV-I 0 W/m 9,6 C 12,4 C 6,4 km/h (2 Bft) 95,74 %
29.09.2019 01:36 12,3 C 13,9 C 10,6 C 83 % 1016,6 hPa 0,0 l/m 3,8 km/h (1 Bft) SW 231 0 min 0,000 mm 0,0 UV-I 0 W/m 9,5 C 12,3 C 4,8 km/h (1 Bft) 97,87 %
29.09.2019 01:38 12,3 C 13,9 C 10,6 C 83 % 1016,6 hPa 0,0 l/m 3,7 km/h (1 Bft) SW 231 0 min 0,000 mm 0,0 UV-I 0 W/m 9,5 C 12,3 C 4,8 km/h (1 Bft) 97,14 %
29.09.2019 01:40 12,3 C 13,9 C 10,6 C 83 % 1016,6 hPa 0,0 l/m 3,5 km/h (1 Bft) SW 231 0 min 0,000 mm 0,0 UV-I 0 W/m 9,5 C 12,3 C 4,8 km/h (1 Bft) 97,87 %
29.09.2019 01:42 12,2 C 13,9 C 10,6 C 83 % 1016,6 hPa 0,0 l/m 3,8 km/h (1 Bft) SW 231 0 min 0,000 mm 0,0 UV-I 0 W/m 9,4 C 12,2 C 4,8 km/h (1 Bft) 98,00 %
29.09.2019 01:44 12,2 C 13,9 C 10,6 C 83 % 1016,6 hPa 0,0 l/m 3,8 km/h (1 Bft) SW 232 0 min 0,000 mm 0,0 UV-I 0 W/m 9,4 C 12,2 C 4,8 km/h (1 Bft) 93,62 %
29.09.2019 01:46 12,1 C 13,9 C 10,0 C 84 % 1016,6 hPa 0,0 l/m 4,1 km/h (1 Bft) SW 233 0 min 0,000 mm 0,0 UV-I 0 W/m 9,5 C 12,1 C 4,8 km/h (1 Bft) 95,74 %
29.09.2019 01:48 12,0 C 13,9 C 10,0 C 84 % 1016,6 hPa 0,0 l/m 3,4 km/h (1 Bft) SW 233 0 min 0,000 mm 0,0 UV-I 0 W/m 9,4 C 12,0 C 4,8 km/h (1 Bft) 93,62 %
29.09.2019 01:50 11,8 C 13,9 C 10,0 C 84 % 1016,6 hPa 0,0 l/m 3,2 km/h (1 Bft) SW 233 0 min 0,000 mm 0,0 UV-I 0 W/m 9,2 C 11,8 C 4,8 km/h (1 Bft) 93,62 %
29.09.2019 01:52 11,6 C 13,9 C 10,0 C 85 % 1016,6 hPa 0,0 l/m 3,2 km/h (1 Bft) SW 233 0 min 0,000 mm 0,0 UV-I 0 W/m 9,2 C 11,6 C 4,8 km/h (1 Bft) 91,67 %
29.09.2019 01:54 11,4 C 13,9 C 9,4 C 85 % 1016,6 hPa 0,0 l/m 2,6 km/h (1 Bft) SW 233 0 min 0,000 mm 0,0 UV-I 0 W/m 9,0 C 11,4 C 4,8 km/h (1 Bft) 95,16 %
29.09.2019 01:56 11,4 C 13,9 C 9,4 C 86 % 1016,6 hPa 0,0 l/m 1,2 km/h (1 Bft) SW 233 0 min 0,000 mm 0,0 UV-I 0 W/m 9,1 C 11,4 C 1,6 km/h (1 Bft) 96,00 %
29.09.2019 01:58 11,4 C 13,9 C 8,9 C 86 % 1016,6 hPa 0,0 l/m 1,8 km/h (1 Bft) SW 233 0 min 0,000 mm 0,0 UV-I 0 W/m 9,1 C 11,4 C 3,2 km/h (1 Bft) 95,74 %
29.09.2019 02:00 11,4 C 13,9 C 8,9 C 87 % 1016,5 hPa 0,0 l/m 1,7 km/h (1 Bft) SW 233 0 min 0,026 mm 0,0 UV-I 0 W/m 9,3 C 11,4 C 3,2 km/h (1 Bft) 95,74 %
29.09.2019 02:02 11,3 C 13,9 C 8,9 C 87 % 1016,5 hPa 0,0 l/m 2,0 km/h (1 Bft) SW 233 0 min 0,000 mm 0,0 UV-I 0 W/m 9,2 C 11,3 C 3,2 km/h (1 Bft) 94,29 %
29.09.2019 02:04 11,3 C 13,9 C 8,3 C 87 % 1016,5 hPa 0,0 l/m 2,4 km/h (1 Bft) SW 233 0 min 0,000 mm 0,0 UV-I 0 W/m 9,2 C 11,3 C 3,2 km/h (1 Bft) 95,74 %
29.09.2019 02:06 11,3 C 13,9 C 8,9 C 87 % 1016,5 hPa 0,0 l/m 2,7 km/h (1 Bft) SW 233 0 min 0,000 mm 0,0 UV-I 0 W/m 9,2 C 11,3 C 4,8 km/h (1 Bft) 97,87 %
29.09.2019 02:08 11,2 C 13,9 C 8,9 C 87 % 1016,5 hPa 0,0 l/m 3,5 km/h (1 Bft) SW 233 0 min 0,000 mm 0,0 UV-I 0 W/m 9,1 C 11,2 C 4,8 km/h (1 Bft) 97,87 %
29.09.2019 02:10 11,0 C 13,9 C 8,9 C 87 % 1016,5 hPa 0,0 l/m 4,0 km/h (1 Bft) SW 233 0 min 0,000 mm 0,0 UV-I 0 W/m 8,9 C 11,0 C 4,8 km/h (1 Bft) 98,00 %
29.09.2019 02:12 10,9 C 13,9 C 8,9 C 88 % 1016,6 hPa 0,0 l/m 4,7 km/h (1 Bft) SW 232 0 min 0,000 mm 0,0 UV-I 0 W/m 9,0 C 10,9 C 6,4 km/h (2 Bft) 95,74 %
29.09.2019 02:14 10,8 C 13,9 C 8,9 C 88 % 1016,6 hPa 0,0 l/m 4,5 km/h (1 Bft) SW 234 0 min 0,000 mm 0,0 UV-I 0 W/m 8,9 C 10,8 C 6,4 km/h (2 Bft) 95,74 %
29.09.2019 02:16 10,7 C 13,9 C 8,9 C 88 % 1016,5 hPa 0,0 l/m 3,6 km/h (1 Bft) SW 234 0 min 0,000 mm 0,0 UV-I 0 W/m 8,8 C 10,7 C 4,8 km/h (1 Bft) 100,00 %
29.09.2019 02:18 10,8 C 13,9 C 8,9 C 88 % 1016,5 hPa 0,0 l/m 3,4 km/h (1 Bft) SW 234 0 min 0,000 mm 0,0 UV-I 0 W/m 8,9 C 10,8 C 4,8 km/h (1 Bft) 97,87 %
29.09.2019 02:20 10,9 C 13,9 C 8,9 C 88 % 1016,5 hPa 0,0 l/m 4,6 km/h (1 Bft) SW 232 0 min 0,000 mm 0,0 UV-I 0 W/m 9,0 C 10,9 C 6,4 km/h (2 Bft) 97,87 %
29.09.2019 02:22 10,8 C 13,9 C 9,4 C 88 % 1016,5 hPa 0,0 l/m 4,7 km/h (1 Bft) S-SW 213 0 min 0,000 mm 0,0 UV-I 0 W/m 8,9 C 10,8 C 6,4 km/h (2 Bft) 100,00 %
29.09.2019 02:24 10,7 C 13,9 C 8,9 C 88 % 1016,5 hPa 0,0 l/m 5,2 km/h (1 Bft) SW 220 0 min 0,000 mm 0,0 UV-I 0 W/m 8,8 C 10,7 C 8,0 km/h (2 Bft) 100,00 %
29.09.2019 02:26 10,6 C 13,9 C 9,4 C 89 % 1016,4 hPa 0,0 l/m 4,9 km/h (1 Bft) SW 219 0 min 0,000 mm 0,0 UV-I 0 W/m 8,9 C 10,6 C 6,4 km/h (2 Bft) 97,87 %
29.09.2019 02:28 10,5 C 13,9 C 9,4 C 89 % 1016,4 hPa 0,0 l/m 4,6 km/h (1 Bft) SW 228 0 min 0,000 mm 0,0 UV-I 0 W/m 8,8 C 10,5 C 6,4 km/h (2 Bft) 100,00 %
29.09.2019 02:30 10,5 C 13,9 C 8,9 C 89 % 1016,4 hPa 0,0 l/m 4,5 km/h (1 Bft) SW 227 0 min 0,000 mm 0,0 UV-I 0 W/m 8,8 C 10,5 C 6,4 km/h (2 Bft) 100,00 %
29.09.2019 02:32 10,4 C 13,9 C 8,9 C 89 % 1016,4 hPa 0,0 l/m 3,9 km/h (1 Bft) SW 227 0 min 0,000 mm 0,0 UV-I 0 W/m 8,7 C 10,4 C 6,4 km/h (2 Bft) 100,00 %
29.09.2019 02:34 10,4 C 13,9 C 8,9 C 90 % 1016,3 hPa 0,0 l/m 4,8 km/h (1 Bft) SW 223 0 min 0,000 mm 0,0 UV-I 0 W/m 8,8 C 10,4 C 6,4 km/h (2 Bft) 100,00 %
29.09.2019 02:36 10,4 C 13,9 C 9,4 C 90 % 1016,3 hPa 0,0 l/m 5,3 km/h (1 Bft) SW 235 0 min 0,000 mm 0,0 UV-I 0 W/m 8,8 C 10,4 C 8,0 km/h (2 Bft) 100,00 %
29.09.2019 02:38 10,4 C 13,9 C 9,4 C 90 % 1016,3 hPa 0,0 l/m 5,1 km/h (1 Bft) SW 225 0 min 0,000 mm 0,0 UV-I 0 W/m 8,8 C 10,4 C 6,4 km/h (2 Bft) 100,00 %
29.09.2019 02:40 10,4 C 13,9 C 8,9 C 90 % 1016,2 hPa 0,0 l/m 3,5 km/h (1 Bft) SW 230 0 min 0,000 mm 0,0 UV-I 0 W/m 8,8 C 10,4 C 6,4 km/h (2 Bft) 100,00 %
29.09.2019 02:42 10,5 C 13,9 C 8,9 C 90 % 1016,3 hPa 0,0 l/m 3,7 km/h (1 Bft) SW 229 0 min 0,000 mm 0,0 UV-I 0 W/m 8,9 C 10,5 C 4,8 km/h (1 Bft) 100,00 %
29.09.2019 02:44 10,5 C 13,9 C 8,9 C 90 % 1016,2 hPa 0,0 l/m 3,4 km/h (1 Bft) SW 229 0 min 0,000 mm 0,0 UV-I 0 W/m 8,9 C 10,5 C 4,8 km/h (1 Bft) 97,37 %
29.09.2019 02:46 10,4 C 13,9 C 8,9 C 90 % 1016,2 hPa 0,0 l/m 3,9 km/h (1 Bft) SW 225 0 min 0,000 mm 0,0 UV-I 0 W/m 8,8 C 10,4 C 6,4 km/h (2 Bft) 100,00 %
29.09.2019 02:48 10,4 C 13,9 C 8,9 C 90 % 1016,2 hPa 0,0 l/m 4,1 km/h (1 Bft) SW 214 0 min 0,000 mm 0,0 UV-I 0 W/m 8,8 C 10,4 C 6,4 km/h (2 Bft) 97,96 %
29.09.2019 02:50 10,4 C 13,9 C 8,9 C 90 % 1016,2 hPa 0,0 l/m 4,4 km/h (1 Bft) SW 215 0 min 0,000 mm 0,0 UV-I 0 W/m 8,8 C 10,4 C 6,4 km/h (2 Bft) 98,00 %
29.09.2019 02:52 10,5 C 13,9 C 8,9 C 90 % 1016,1 hPa 0,0 l/m 3,4 km/h (1 Bft) SW 215 0 min 0,000 mm 0,0 UV-I 0 W/m 8,9 C 10,5 C 4,8 km/h (1 Bft) 97,87 %
29.09.2019 02:54 10,4 C 13,9 C 8,9 C 90 % 1016,1 hPa 0,0 l/m 3,4 km/h (1 Bft) SW 214 0 min 0,000 mm 0,0 UV-I 0 W/m 8,8 C 10,4 C 4,8 km/h (1 Bft) 100,00 %
29.09.2019 02:56 10,4 C 13,9 C 8,9 C 90 % 1016,1 hPa 0,0 l/m 3,3 km/h (1 Bft) SW 215 0 min 0,000 mm 0,0 UV-I 0 W/m 8,8 C 10,4 C 4,8 km/h (1 Bft) 95,74 %
29.09.2019 02:58 10,4 C 13,9 C 8,3 C 90 % 1016,1 hPa 0,0 l/m 2,7 km/h (1 Bft) SW 215 0 min 0,000 mm 0,0 UV-I 0 W/m 8,8 C 10,4 C 3,2 km/h (1 Bft) 97,56 %
29.09.2019 03:00 10,4 C 13,9 C 8,3 C 90 % 1016,1 hPa 0,0 l/m 1,7 km/h (1 Bft) SW 215 0 min 0,000 mm 0,0 UV-I 0 W/m 8,8 C 10,4 C 3,2 km/h (1 Bft) 93,62 %
29.09.2019 03:02 10,5 C 13,9 C 8,9 C 90 % 1016,1 hPa 0,0 l/m 2,8 km/h (1 Bft) SW 215 0 min 0,000 mm 0,0 UV-I 0 W/m 8,9 C 10,5 C 4,8 km/h (1 Bft) 95,74 %
29.09.2019 03:04 10,4 C 13,9 C 8,9 C 90 % 1016,1 hPa 0,0 l/m 2,9 km/h (1 Bft) SW 215 0 min 0,000 mm 0,0 UV-I 0 W/m 8,8 C 10,4 C 4,8 km/h (1 Bft) 93,62 %
29.09.2019 03:06 10,5 C 13,9 C 8,9 C 90 % 1016,1 hPa 0,0 l/m 3,3 km/h (1 Bft) SW 215 0 min 0,000 mm 0,0 UV-I 0 W/m 8,9 C 10,5 C 4,8 km/h (1 Bft) 92,00 %
29.09.2019 03:08 10,4 C 13,9 C 8,9 C 90 % 1015,9 hPa 0,0 l/m 2,2 km/h (1 Bft) SW 215 0 min 0,000 mm 0,0 UV-I 0 W/m 8,8 C 10,4 C 4,8 km/h (1 Bft) 93,75 %
29.09.2019 03:10 10,4 C 13,9 C 8,9 C 90 % 1015,9 hPa 0,0 l/m 2,4 km/h (1 Bft) SW 215 0 min 0,000 mm 0,0 UV-I 0 W/m 8,8 C 10,4 C 3,2 km/h (1 Bft) 95,74 %
29.09.2019 03:12 10,4 C 13,9 C 9,4 C 90 % 1015,9 hPa 0,0 l/m 2,9 km/h (1 Bft) SW 215 0 min 0,000 mm 0,0 UV-I 0 W/m 8,8 C 10,4 C 3,2 km/h (1 Bft) 91,49 %
29.09.2019 03:14 10,5 C 13,9 C 9,4 C 90 % 1016,0 hPa 0,0 l/m 2,5 km/h (1 Bft) SW 215 0 min 0,000 mm 0,0 UV-I 0 W/m 8,9 C 10,5 C 4,8 km/h (1 Bft) 93,62 %
29.09.2019 03:16 10,6 C 13,9 C 9,4 C 90 % 1015,9 hPa 0,0 l/m 0,4 km/h (0 Bft) SW 215 0 min 0,000 mm 0,0 UV-I 0 W/m 9,0 C 10,6 C 1,6 km/h (1 Bft) 95,74 %
29.09.2019 03:18 10,6 C 13,9 C 9,4 C 91 % 1016,0 hPa 0,0 l/m 0,0 km/h (0 Bft) SW 215 0 min 0,000 mm 0,0 UV-I 0 W/m 9,2 C 10,6 C 0,0 km/h (0 Bft) 91,49 %
29.09.2019 03:20 10,7 C 13,9 C 10,0 C 91 % 1015,9 hPa 0,0 l/m 0,0 km/h (0 Bft) SW 215 0 min 0,000 mm 0,0 UV-I 0 W/m 9,3 C 10,7 C 0,0 km/h (0 Bft) 95,74 %
29.09.2019 03:22 10,8 C 13,9 C 10,0 C 91 % 1015,9 hPa 0,0 l/m 0,0 km/h (0 Bft) SW 215 0 min 0,000 mm 0,0 UV-I 0 W/m 9,4 C 10,8 C 0,0 km/h (0 Bft) 95,74 %
29.09.2019 03:24 10,8 C 13,9 C 10,0 C 90 % 1015,9 hPa 0,0 l/m 0,1 km/h (0 Bft) SW 215 0 min 0,000 mm 0,0 UV-I 0 W/m 9,2 C 10,8 C 1,6 km/h (1 Bft) 93,62 %
29.09.2019 03:26 10,9 C 13,9 C 10,6 C 90 % 1015,9 hPa 0,0 l/m 0,2 km/h (0 Bft) SW 215 0 min 0,000 mm 0,0 UV-I 0 W/m 9,3 C 10,9 C 1,6 km/h (1 Bft) 95,74 %
29.09.2019 03:28 10,9 C 13,9 C 10,6 C 90 % 1015,8 hPa 0,0 l/m 0,0 km/h (0 Bft) SW 215 0 min 0,000 mm 0,0 UV-I 0 W/m 9,3 C 10,9 C 0,0 km/h (0 Bft) 94,00 %
29.09.2019 03:30 10,9 C 13,9 C 10,6 C 90 % 1015,9 hPa 0,0 l/m 0,0 km/h (0 Bft) SW 215 0 min 0,000 mm 0,0 UV-I 0 W/m 9,3 C 10,9 C 0,0 km/h (0 Bft) 97,14 %
29.09.2019 03:32 10,9 C 13,9 C 10,6 C 90 % 1015,8 hPa 0,0 l/m 0,0 km/h (0 Bft) SW 215 0 min 0,000 mm 0,0 UV-I 0 W/m 9,3 C 10,9 C 0,0 km/h (0 Bft) 95,92 %
29.09.2019 03:34 10,9 C 13,9 C 10,6 C 90 % 1015,8 hPa 0,0 l/m 0,0 km/h (0 Bft) SW 215 0 min 0,000 mm 0,0 UV-I 0 W/m 9,3 C 10,9 C 0,0 km/h (0 Bft) 95,74 %
29.09.2019 03:36 10,9 C 13,9 C 11,1 C 90 % 1015,8 hPa 0,0 l/m 0,0 km/h (0 Bft) SW 215 0 min 0,000 mm 0,0 UV-I 0 W/m 9,3 C 10,9 C 0,0 km/h (0 Bft) 98,00 %
29.09.2019 03:38 11,0 C 13,9 C 11,1 C 91 % 1015,8 hPa 0,0 l/m 0,0 km/h (0 Bft) SW 215 0 min 0,000 mm 0,0 UV-I 0 W/m 9,6 C 11,0 C 0,0 km/h (0 Bft) 100,00 %
29.09.2019 03:40 11,0 C 13,9 C 11,1 C 90 % 1015,7 hPa 0,0 l/m 0,0 km/h (0 Bft) SW 215 0 min 0,000 mm 0,0 UV-I 0 W/m 9,4 C 11,0 C 0,0 km/h (0 Bft) 100,00 %
29.09.2019 03:42 11,1 C 13,9 C 11,1 C 90 % 1015,7 hPa 0,0 l/m 0,0 km/h (0 Bft) SW 215 0 min 0,000 mm 0,0 UV-I 0 W/m 9,5 C 11,1 C 0,0 km/h (0 Bft) 96,15 %
29.09.2019 03:44 11,1 C 13,9 C 11,1 C 90 % 1015,7 hPa 0,0 l/m 0,9 km/h (0 Bft) SW 215 0 min 0,000 mm 0,0 UV-I 0 W/m 9,5 C 11,1 C 1,6 km/h (1 Bft) 94,74 %
29.09.2019 03:46 11,1 C 13,9 C 11,1 C 90 % 1015,7 hPa 0,0 l/m 1,2 km/h (1 Bft) SW 215 0 min 0,000 mm 0,0 UV-I 0 W/m 9,5 C 11,1 C 1,6 km/h (1 Bft) 100,00 %
29.09.2019 03:48 11,1 C 13,9 C 11,1 C 90 % 1015,8 hPa 0,0 l/m 1,4 km/h (1 Bft) SW 215 0 min 0,000 mm 0,0 UV-I 0 W/m 9,5 C 11,1 C 3,2 km/h (1 Bft) 97,87 %
29.09.2019 03:50 11,1 C 13,9 C 11,1 C 90 % 1015,8 hPa 0,0 l/m 1,3 km/h (1 Bft) SW 215 0 min 0,000 mm 0,0 UV-I 0 W/m 9,5 C 11,1 C 3,2 km/h (1 Bft) 100,00 %
29.09.2019 03:52 11,1 C 13,9 C 11,7 C 91 % 1015,8 hPa 0,0 l/m 0,9 km/h (0 Bft) SW 215 0 min 0,000 mm 0,0 UV-I 0 W/m 9,7 C 11,1 C 1,6 km/h (1 Bft) 100,00 %
29.09.2019 03:54 11,1 C 13,9 C 11,7 C 91 % 1015,7 hPa 0,0 l/m 1,2 km/h (1 Bft) SW 215 0 min 0,000 mm 0,0 UV-I 0 W/m 9,7 C 11,1 C 1,6 km/h (1 Bft) 97,87 %
29.09.2019 03:56 11,1 C 13,9 C 11,7 C 91 % 1015,7 hPa 0,0 l/m 1,8 km/h (1 Bft) SW 215 0 min 0,000 mm 0,0 UV-I 0 W/m 9,7 C 11,1 C 3,2 km/h (1 Bft) 95,74 %
29.09.2019 03:58 11,2 C 13,9 C 11,7 C 91 % 1015,7 hPa 0,0 l/m 0,9 km/h (0 Bft) SW 215 0 min 0,000 mm 0,0 UV-I 0 W/m 9,8 C 11,2 C 1,6 km/h (1 Bft) 95,74 %
29.09.2019 04:00 11,2 C 13,9 C 11,7 C 91 % 1015,7 hPa 0,0 l/m 0,8 km/h (0 Bft) SW 215 0 min 0,000 mm 0,0 UV-I 0 W/m 9,8 C 11,2 C 1,6 km/h (1 Bft) 97,87 %
29.09.2019 04:02 11,2 C 13,9 C 11,7 C 91 % 1015,7 hPa 0,0 l/m 1,1 km/h (1 Bft) SW 215 0 min 0,000 mm 0,0 UV-I 0 W/m 9,8 C 11,2 C 1,6 km/h (1 Bft) 100,00 %
29.09.2019 04:04 11,2 C 13,9 C 11,7 C 91 % 1015,7 hPa 0,0 l/m 1,0 km/h (0 Bft) SW 215 0 min 0,000 mm 0,0 UV-I 0 W/m 9,8 C 11,2 C 1,6 km/h (1 Bft) 100,00 %
29.09.2019 04:06 11,2 C 13,9 C 11,7 C 91 % 1015,6 hPa 0,0 l/m 0,6 km/h (0 Bft) SW 215 0 min 0,000 mm 0,0 UV-I 0 W/m 9,8 C 11,2 C 1,6 km/h (1 Bft) 100,00 %
29.09.2019 04:08 11,3 C 13,9 C 11,7 C 91 % 1015,6 hPa 0,0 l/m 0,4 km/h (0 Bft) SW 215 0 min 0,000 mm 0,0 UV-I 0 W/m 9,9 C 11,3 C 1,6 km/h (1 Bft) 97,87 %
29.09.2019 04:10 11,3 C 13,9 C 11,7 C 91 % 1015,6 hPa 0,0 l/m 0,1 km/h (0 Bft) SW 215 0 min 0,000 mm 0,0 UV-I 0 W/m 9,9 C 11,3 C 1,6 km/h (1 Bft) 100,00 %
29.09.2019 04:12 11,3 C 13,9 C 11,7 C 91 % 1015,6 hPa 0,0 l/m 0,0 km/h (0 Bft) SW 215 0 min 0,000 mm 0,0 UV-I 0 W/m 9,9 C 11,3 C 0,0 km/h (0 Bft) 100,00 %
29.09.2019 04:14 11,3 C 13,9 C 11,7 C 91 % 1015,6 hPa 0,0 l/m 0,0 km/h (0 Bft) SW 215 0 min 0,000 mm 0,0 UV-I 0 W/m 9,9 C 11,3 C 0,0 km/h (0 Bft) 100,00 %
29.09.2019 04:16 11,3 C 13,9 C 11,7 C 91 % 1015,5 hPa 0,0 l/m 1,1 km/h (1 Bft) SW 215 0 min 0,000 mm 0,0 UV-I 0 W/m 9,9 C 11,3 C 1,6 km/h (1 Bft) 100,00 %
29.09.2019 04:18 11,3 C 13,9 C 11,7 C 91 % 1015,5 hPa 0,0 l/m 2,2 km/h (1 Bft) SW 215 0 min 0,000 mm 0,0 UV-I 0 W/m 9,9 C 11,3 C 3,2 km/h (1 Bft) 97,14 %
29.09.2019 04:20 11,3 C 13,9 C 11,7 C 91 % 1015,5 hPa 0,0 l/m 3,2 km/h (1 Bft) SW 215 0 min 0,000 mm 0,0 UV-I 0 W/m 9,9 C 11,3 C 4,8 km/h (1 Bft) 100,00 %
29.09.2019 04:22 11,3 C 13,9 C 11,7 C 91 % 1015,6 hPa 0,0 l/m 3,3 km/h (1 Bft) SW 215 0 min 0,000 mm 0,0 UV-I 0 W/m 9,9 C 11,3 C 4,8 km/h (1 Bft) 100,00 %
29.09.2019 04:24 11,3 C 13,9 C 11,7 C 91 % 1015,6 hPa 0,0 l/m 2,6 km/h (1 Bft) SW 214 0 min 0,000 mm 0,0 UV-I 0 W/m 9,9 C 11,3 C 4,8 km/h (1 Bft) 97,87 %
29.09.2019 04:26 11,3 C 13,9 C 11,7 C 92 % 1015,6 hPa 0,0 l/m 2,0 km/h (1 Bft) SW 214 0 min 0,000 mm 0,0 UV-I 0 W/m 10,0 C 11,3 C 3,2 km/h (1 Bft) 96,00 %
29.09.2019 04:28 11,3 C 13,9 C 11,7 C 91 % 1015,5 hPa 0,0 l/m 2,7 km/h (1 Bft) S-SO 157 0 min 0,000 mm 0,0 UV-I 0 W/m 9,9 C 11,3 C 4,8 km/h (1 Bft) 95,74 %
29.09.2019 04:30 11,3 C 13,9 C 11,7 C 91 % 1015,5 hPa 0,0 l/m 3,9 km/h (1 Bft) S-SO 157 0 min 0,000 mm 0,0 UV-I 0 W/m 9,9 C 11,3 C 4,8 km/h (1 Bft) 97,87 %
29.09.2019 04:32 11,3 C 13,9 C 11,7 C 91 % 1015,5 hPa 0,0 l/m 2,7 km/h (1 Bft) S-SO 157 0 min 0,000 mm 0,0 UV-I 0 W/m 9,9 C 11,3 C 4,8 km/h (1 Bft) 95,74 %
29.09.2019 04:34 11,3 C 13,9 C 11,7 C 90 % 1015,5 hPa 0,0 l/m 2,0 km/h (1 Bft) S-SO 157 0 min 0,000 mm 0,0 UV-I 0 W/m 9,7 C 11,3 C 3,2 km/h (1 Bft) 97,87 %
29.09.2019 04:36 11,3 C 13,9 C 11,1 C 90 % 1015,5 hPa 0,0 l/m 2,2 km/h (1 Bft) S-SO 157 0 min 0,000 mm 0,0 UV-I 0 W/m 9,7 C 11,3 C 3,2 km/h (1 Bft) 95,74 %
29.09.2019 04:38 11,3 C 13,9 C 11,1 C 90 % 1015,5 hPa 0,0 l/m 1,0 km/h (0 Bft) S-SO 157 0 min 0,000 mm 0,0 UV-I 0 W/m 9,7 C 11,3 C 1,6 km/h (1 Bft) 96,00 %
29.09.2019 04:40 11,3 C 13,9 C 11,1 C 91 % 1015,6 hPa 0,0 l/m 0,1 km/h (0 Bft) S-SO 157 0 min 0,000 mm 0,0 UV-I 0 W/m 9,9 C 11,3 C 1,6 km/h (1 Bft) 97,87 %
29.09.2019 04:42 11,3 C 13,9 C 11,1 C 91 % 1015,5 hPa 0,0 l/m 2,1 km/h (1 Bft) S-SO 157 0 min 0,000 mm 0,0 UV-I 0 W/m 9,9 C 11,3 C 3,2 km/h (1 Bft) 93,62 %
29.09.2019 04:44 11,2 C 13,9 C 11,1 C 91 % 1015,5 hPa 0,0 l/m 3,0 km/h (1 Bft) S-SO 157 0 min 0,000 mm 0,0 UV-I 0 W/m 9,8 C 11,2 C 4,8 km/h (1 Bft) 95,74 %
29.09.2019 04:46 11,2 C 13,9 C 11,1 C 91 % 1015,5 hPa 0,0 l/m 3,2 km/h (1 Bft) S-SO 157 0 min 0,000 mm 0,0 UV-I 0 W/m 9,8 C 11,2 C 4,8 km/h (1 Bft) 95,74 %
29.09.2019 04:48 11,2 C 13,9 C 11,1 C 91 % 1015,5 hPa 0,0 l/m 0,8 km/h (0 Bft) S-SO 157 0 min 0,000 mm 0,0 UV-I 0 W/m 9,8 C 11,2 C 3,2 km/h (1 Bft) 97,87 %
29.09.2019 04:50 11,1 C 13,9 C 10,6 C 91 % 1015,5 hPa 0,0 l/m 2,6 km/h (1 Bft) S-SO 157 0 min 0,000 mm 0,0 UV-I 0 W/m 9,7 C 11,1 C 3,2 km/h (1 Bft) 97,87 %
29.09.2019 04:52 11,1 C 13,9 C 10,6 C 91 % 1015,5 hPa 0,0 l/m 2,4 km/h (1 Bft) S-SO 157 0 min 0,000 mm 0,0 UV-I 0 W/m 9,7 C 11,1 C 4,8 km/h (1 Bft) 95,74 %
29.09.2019 04:54 11,1 C 13,9 C 10,6 C 91 % 1015,4 hPa 0,0 l/m 2,8 km/h (1 Bft) S-SO 157 0 min 0,000 mm 0,0 UV-I 0 W/m 9,7 C 11,1 C 4,8 km/h (1 Bft) 97,87 %
29.09.2019 04:56 11,1 C 13,9 C 10,6 C 91 % 1015,4 hPa 0,0 l/m 2,5 km/h (1 Bft) S-SO 157 0 min 0,000 mm 0,0 UV-I 0 W/m 9,7 C 11,1 C 4,8 km/h (1 Bft) 91,49 %
29.09.2019 04:58 11,2 C 13,9 C 10,6 C 91 % 1015,4 hPa 0,0 l/m 1,9 km/h (1 Bft) S-SO 157 0 min 0,000 mm 0,0 UV-I 0 W/m 9,8 C 11,2 C 3,2 km/h (1 Bft) 97,87 %
29.09.2019 05:00 11,2 C 13,9 C 10,6 C 91 % 1015,4 hPa 0,0 l/m 2,8 km/h (1 Bft) S-SO 157 0 min 0,000 mm 0,0 UV-I 0 W/m 9,8 C 11,2 C 4,8 km/h (1 Bft) 95,74 %
29.09.2019 05:02 11,3 C 13,9 C 10,6 C 90 % 1015,4 hPa 0,0 l/m 3,5 km/h (1 Bft) S-SO 157 0 min 0,000 mm 0,0 UV-I 0 W/m 9,7 C 11,3 C 4,8 km/h (1 Bft) 93,62 %
29.09.2019 05:04 11,3 C 13,9 C 10,6 C 90 % 1015,3 hPa 0,0 l/m 2,6 km/h (1 Bft) S-SO 157 0 min 0,000 mm 0,0 UV-I 0 W/m 9,7 C 11,3 C 4,8 km/h (1 Bft) 93,62 %
29.09.2019 05:06 11,2 C 13,9 C 10,6 C 90 % 1015,3 hPa 0,0 l/m 2,8 km/h (1 Bft) S-SO 157 0 min 0,000 mm 0,0 UV-I 0 W/m 9,6 C 11,2 C 4,8 km/h (1 Bft) 97,44 %
29.09.2019 05:08 11,2 C 13,9 C 10,6 C 90 % 1015,3 hPa 0,0 l/m 2,1 km/h (1 Bft) S-SO 157 0 min 0,000 mm 0,0 UV-I 0 W/m 9,6 C 11,2 C 3,2 km/h (1 Bft) 93,62 %
29.09.2019 05:10 11,1 C 13,9 C 10,6 C 90 % 1015,3 hPa 0,0 l/m 1,6 km/h (1 Bft) S-SO 157 0 min 0,000 mm 0,0 UV-I 0 W/m 9,5 C 11,1 C 3,2 km/h (1 Bft) 91,49 %
29.09.2019 05:12 11,1 C 13,9 C 10,6 C 90 % 1015,2 hPa 0,0 l/m 1,1 km/h (1 Bft) S-SO 157 0 min 0,000 mm 0,0 UV-I 0 W/m 9,5 C 11,1 C 3,2 km/h (1 Bft) 95,92 %
29.09.2019 05:14 11,1 C 13,9 C 10,6 C 91 % 1015,3 hPa 0,0 l/m 0,5 km/h (0 Bft) S-SO 157 0 min 0,000 mm 0,0 UV-I 0 W/m 9,7 C 11,1 C 1,6 km/h (1 Bft) 95,74 %
29.09.2019 05:16 11,1 C 13,9 C 10,6 C 91 % 1015,3 hPa 0,0 l/m 1,4 km/h (1 Bft) S-SO 157 0 min 0,000 mm 0,0 UV-I 0 W/m 9,7 C 11,1 C 3,2 km/h (1 Bft) 91,49 %
29.09.2019 05:18 11,0 C 13,9 C 10,6 C 91 % 1015,3 hPa 0,0 l/m 1,6 km/h (1 Bft) S-SO 157 0 min 0,000 mm 0,0 UV-I 0 W/m 9,6 C 11,0 C 3,2 km/h (1 Bft) 93,62 %
29.09.2019 05:20 10,9 C 13,9 C 10,6 C 91 % 1015,3 hPa 0,0 l/m 2,0 km/h (1 Bft) S-SO 157 0 min 0,000 mm 0,0 UV-I 0 W/m 9,5 C 10,9 C 3,2 km/h (1 Bft) 95,74 %
29.09.2019 05:22 10,9 C 13,9 C 10,6 C 91 % 1015,3 hPa 0,0 l/m 2,1 km/h (1 Bft) S-SO 157 0 min 0,000 mm 0,0 UV-I 0 W/m 9,5 C 10,9 C 3,2 km/h (1 Bft) 95,74 %
29.09.2019 05:24 10,8 C 13,9 C 10,6 C 91 % 1015,3 hPa 0,0 l/m 2,2 km/h (1 Bft) S-SO 157 0 min 0,000 mm 0,0 UV-I 0 W/m 9,4 C 10,8 C 3,2 km/h (1 Bft) 93,62 %
29.09.2019 05:26 10,8 C 13,9 C 10,6 C 91 % 1015,3 hPa 0,0 l/m 3,7 km/h (1 Bft) S-SO 157 0 min 0,000 mm 0,0 UV-I 0 W/m 9,4 C 10,8 C 8,0 km/h (2 Bft) 94,00 %
29.09.2019 05:28 10,7 C 13,9 C 10,6 C 91 % 1015,2 hPa 0,0 l/m 5,1 km/h (1 Bft) S-SO 157 0 min 0,000 mm 0,0 UV-I 0 W/m 9,3 C 10,7 C 8,0 km/h (2 Bft) 95,74 %
29.09.2019 05:30 10,7 C 13,9 C 10,6 C 92 % 1015,2 hPa 0,0 l/m 5,4 km/h (1 Bft) S-SO 157 0 min 0,000 mm 0,0 UV-I 0 W/m 9,5 C 10,7 C 8,0 km/h (2 Bft) 97,37 %
29.09.2019 05:32 10,7 C 13,9 C 10,6 C 92 % 1015,2 hPa 0,0 l/m 3,7 km/h (1 Bft) S-SO 157 0 min 0,000 mm 0,0 UV-I 0 W/m 9,5 C 10,7 C 8,0 km/h (2 Bft) 91,67 %
29.09.2019 05:34 10,8 C 13,9 C 10,6 C 92 % 1015,2 hPa 0,0 l/m 2,7 km/h (1 Bft) S-SO 157 0 min 0,000 mm 0,0 UV-I 0 W/m 9,6 C 10,8 C 3,2 km/h (1 Bft) 93,48 %
29.09.2019 05:36 10,8 C 13,9 C 10,6 C 92 % 1015,2 hPa 0,0 l/m 0,8 km/h (0 Bft) S-SO 157 0 min 0,000 mm 0,0 UV-I 0 W/m 9,6 C 10,8 C 3,2 km/h (1 Bft) 93,75 %
29.09.2019 05:38 10,9 C 13,9 C 10,0 C 92 % 1015,1 hPa 0,0 l/m 0,4 km/h (0 Bft) S-SO 157 0 min 0,000 mm 0,0 UV-I 0 W/m 9,7 C 10,9 C 1,6 km/h (1 Bft) 96,00 %
29.09.2019 05:40 10,9 C 13,9 C 10,0 C 92 % 1015,1 hPa 0,0 l/m 0,6 km/h (0 Bft) S-SO 157 0 min 0,000 mm 0,0 UV-I 0 W/m 9,7 C 10,9 C 1,6 km/h (1 Bft) 97,87 %
29.09.2019 05:42 10,8 C 13,9 C 10,0 C 91 % 1015,1 hPa 0,0 l/m 0,8 km/h (0 Bft) S-SO 157 0 min 0,000 mm 0,0 UV-I 0 W/m 9,4 C 10,8 C 1,6 km/h (1 Bft) 100,00 %
29.09.2019 05:44 10,7 C 13,9 C 10,0 C 91 % 1015,1 hPa 0,0 l/m 0,9 km/h (0 Bft) S-SO 157 0 min 0,000 mm 0,0 UV-I 0 W/m 9,3 C 10,7 C 1,6 km/h (1 Bft) 100,00 %
29.09.2019 05:46 10,6 C 13,9 C 10,0 C 92 % 1015,1 hPa 0,0 l/m 1,4 km/h (1 Bft) S-SO 157 0 min 0,000 mm 0,0 UV-I 0 W/m 9,4 C 10,6 C 1,6 km/h (1 Bft) 100,00 %
29.09.2019 05:48 10,6 C 13,9 C 10,0 C 92 % 1015,1 hPa 0,0 l/m 0,9 km/h (0 Bft) S-SO 157 0 min 0,000 mm 0,0 UV-I 0 W/m 9,4 C 10,6 C 1,6 km/h (1 Bft) 95,92 %
29.09.2019 05:50 10,5 C 13,9 C 10,0 C 92 % 1015,1 hPa 0,0 l/m 1,0 km/h (0 Bft) S-SO 157 0 min 0,000 mm 0,0 UV-I 0 W/m 9,3 C 10,5 C 1,6 km/h (1 Bft) 97,87 %
29.09.2019 05:52 10,5 C 13,9 C 10,0 C 92 % 1015,0 hPa 0,0 l/m 1,0 km/h (0 Bft) S-SO 157 0 min 0,000 mm 0,0 UV-I 0 W/m 9,3 C 10,5 C 1,6 km/h (1 Bft) 100,00 %
29.09.2019 05:54 10,5 C 13,9 C 10,0 C 92 % 1015,0 hPa 0,0 l/m 0,8 km/h (0 Bft) S-SO 157 0 min 0,000 mm 0,0 UV-I 0 W/m 9,3 C 10,5 C 1,6 km/h (1 Bft) 97,87 %
29.09.2019 05:56 10,5 C 13,9 C 10,0 C 92 % 1015,0 hPa 0,0 l/m 0,6 km/h (0 Bft) S-SO 157 0 min 0,000 mm 0,0 UV-I 0 W/m 9,3 C 10,5 C 1,6 km/h (1 Bft) 98,00 %
29.09.2019 05:58 10,5 C 13,9 C 10,0 C 93 % 1015,0 hPa 0,0 l/m 0,7 km/h (0 Bft) S-SO 157 0 min 0,000 mm 0,0 UV-I 0 W/m 9,4 C 10,5 C 1,6 km/h (1 Bft) 97,87 %
29.09.2019 06:00 10,5 C 13,9 C 10,0 C 93 % 1015,0 hPa 0,0 l/m 1,2 km/h (1 Bft) S-SO 157 0 min 0,000 mm 0,0 UV-I 0 W/m 9,4 C 10,5 C 1,6 km/h (1 Bft) 98,00 %
29.09.2019 06:02 10,4 C 13,9 C 10,0 C 93 % 1014,9 hPa 0,0 l/m 1,2 km/h (1 Bft) S-SO 157 0 min 0,000 mm 0,0 UV-I 0 W/m 9,3 C 10,4 C 1,6 km/h (1 Bft) 97,87 %
29.09.2019 06:04 10,4 C 13,9 C 10,0 C 93 % 1014,9 hPa 0,0 l/m 0,9 km/h (0 Bft) S-SO 157 0 min 0,000 mm 0,0 UV-I 0 W/m 9,3 C 10,4 C 1,6 km/h (1 Bft) 97,87 %
29.09.2019 06:06 10,4 C 13,9 C 10,0 C 93 % 1014,8 hPa 0,0 l/m 1,3 km/h (1 Bft) S-SO 157 0 min 0,000 mm 0,0 UV-I 0 W/m 9,3 C 10,4 C 1,6 km/h (1 Bft) 95,74 %
29.09.2019 06:08 10,4 C 13,9 C 10,0 C 93 % 1014,8 hPa 0,0 l/m 1,6 km/h (1 Bft) S-SO 157 0 min 0,000 mm 0,0 UV-I 0 W/m 9,3 C 10,4 C 3,2 km/h (1 Bft) 97,87 %
29.09.2019 06:10 10,3 C 13,9 C 10,0 C 93 % 1014,8 hPa 0,0 l/m 2,3 km/h (1 Bft) S-SO 157 0 min 0,000 mm 0,0 UV-I 0 W/m 9,2 C 10,3 C 3,2 km/h (1 Bft) 98,00 %
29.09.2019 06:12 10,3 C 13,9 C 9,4 C 93 % 1014,8 hPa 0,0 l/m 2,2 km/h (1 Bft) S-SO 157 0 min 0,000 mm 0,0 UV-I 0 W/m 9,2 C 10,3 C 3,2 km/h (1 Bft) 100,00 %
29.09.2019 06:14 10,3 C 13,9 C 9,4 C 93 % 1014,8 hPa 0,0 l/m 1,6 km/h (1 Bft) S-SO 157 0 min 0,000 mm 0,0 UV-I 0 W/m 9,2 C 10,3 C 3,2 km/h (1 Bft) 100,00 %
29.09.2019 06:16 10,2 C 13,9 C 9,4 C 93 % 1014,9 hPa 0,0 l/m 0,7 km/h (0 Bft) S-SO 157 0 min 0,000 mm 0,0 UV-I 0 W/m 9,1 C 10,2 C 1,6 km/h (1 Bft) 97,92 %
29.09.2019 06:18 10,2 C 13,9 C 9,4 C 93 % 1014,8 hPa 0,0 l/m 1,3 km/h (1 Bft) S-SO 157 0 min 0,000 mm 0,0 UV-I 0 W/m 9,1 C 10,2 C 3,2 km/h (1 Bft) 95,74 %
29.09.2019 06:20 10,1 C 13,9 C 9,4 C 93 % 1014,8 hPa 0,0 l/m 1,5 km/h (1 Bft) S-SO 157 0 min 0,000 mm 0,0 UV-I 0 W/m 9,0 C 10,1 C 3,2 km/h (1 Bft) 100,00 %
29.09.2019 06:22 10,1 C 13,9 C 9,4 C 93 % 1014,8 hPa 0,0 l/m 0,6 km/h (0 Bft) S-SO 157 0 min 0,000 mm 0,0 UV-I 0 W/m 9,0 C 10,1 C 1,6 km/h (1 Bft) 100,00 %
29.09.2019 06:24 10,2 C 13,9 C 8,9 C 94 % 1014,8 hPa 0,0 l/m 0,6 km/h (0 Bft) S-SO 157 0 min 0,000 mm 0,0 UV-I 0 W/m 9,3 C 10,2 C 1,6 km/h (1 Bft) 95,74 %
29.09.2019 06:26 10,2 C 13,9 C 8,9 C 93 % 1014,8 hPa 0,0 l/m 0,1 km/h (0 Bft) S-SO 157 0 min 0,000 mm 0,0 UV-I 0 W/m 9,1 C 10,2 C 1,6 km/h (1 Bft) 97,87 %
29.09.2019 06:28 10,2 C 13,9 C 9,4 C 93 % 1014,8 hPa 0,0 l/m 1,4 km/h (1 Bft) S-SO 157 0 min 0,000 mm 0,0 UV-I 0 W/m 9,1 C 10,2 C 3,2 km/h (1 Bft) 95,74 %
29.09.2019 06:30 10,1 C 13,9 C 9,4 C 93 % 1014,8 hPa 0,0 l/m 3,3 km/h (1 Bft) S-SO 148 0 min 0,000 mm 0,0 UV-I 0 W/m 9,0 C 10,1 C 4,8 km/h (1 Bft) 97,87 %
29.09.2019 06:32 9,8 C 13,9 C 9,4 C 93 % 1014,8 hPa 0,0 l/m 5,2 km/h (1 Bft) N-NO 32 0 min 0,000 mm 0,0 UV-I 0 W/m 8,7 C 9,8 C 6,4 km/h (2 Bft) 100,00 %
29.09.2019 06:34 9,7 C 13,9 C 8,9 C 93 % 1014,8 hPa 0,0 l/m 3,8 km/h (1 Bft) N-NO 32 0 min 0,000 mm 0,0 UV-I 0 W/m 8,6 C 9,7 C 4,8 km/h (1 Bft) 100,00 %
29.09.2019 06:36 9,6 C 13,9 C 8,9 C 93 % 1014,9 hPa 0,0 l/m 2,7 km/h (1 Bft) N-NO 32 0 min 0,000 mm 0,0 UV-I 0 W/m 8,5 C 9,6 C 4,8 km/h (1 Bft) 100,00 %
29.09.2019 06:38 9,6 C 13,9 C 8,9 C 94 % 1014,9 hPa 0,0 l/m 2,3 km/h (1 Bft) N-NO 33 0 min 0,000 mm 0,0 UV-I 0 W/m 8,7 C 9,6 C 3,2 km/h (1 Bft) 100,00 %
29.09.2019 06:40 9,7 C 13,9 C 8,9 C 94 % 1014,9 hPa 0,0 l/m 2,7 km/h (1 Bft) NO 51 0 min 0,000 mm 0,0 UV-I 0 W/m 8,8 C 9,7 C 4,8 km/h (1 Bft) 100,00 %
29.09.2019 06:42 9,7 C 13,9 C 8,3 C 94 % 1014,8 hPa 0,0 l/m 3,7 km/h (1 Bft) NO 51 0 min 0,000 mm 0,0 UV-I 0 W/m 8,8 C 9,7 C 6,4 km/h (2 Bft) 97,87 %
29.09.2019 06:44 9,7 C 13,9 C 8,9 C 94 % 1014,8 hPa 0,0 l/m 5,6 km/h (1 Bft) NO 54 0 min 0,000 mm 0,0 UV-I 0 W/m 8,8 C 9,7 C 6,4 km/h (2 Bft) 100,00 %
29.09.2019 06:46 9,7 C 13,9 C 8,9 C 94 % 1014,8 hPa 0,0 l/m 4,1 km/h (1 Bft) NO 54 0 min 0,000 mm 0,0 UV-I 0 W/m 8,8 C 9,7 C 4,8 km/h (1 Bft) 97,87 %
29.09.2019 06:48 9,7 C 13,9 C 8,9 C 94 % 1014,8 hPa 0,0 l/m 3,3 km/h (1 Bft) NO 54 0 min 0,000 mm 0,0 UV-I 0 W/m 8,8 C 9,7 C 4,8 km/h (1 Bft) 97,22 %
29.09.2019 06:50 9,6 C 13,9 C 8,9 C 94 % 1014,8 hPa 0,0 l/m 2,9 km/h (1 Bft) NO 54 0 min 0,000 mm 0,0 UV-I 0 W/m 8,7 C 9,6 C 3,2 km/h (1 Bft) 97,87 %
29.09.2019 06:52 9,6 C 13,9 C 8,9 C 95 % 1014,7 hPa 0,0 l/m 2,5 km/h (1 Bft) NO 54 0 min 0,000 mm 0,0 UV-I 0 W/m 8,8 C 9,6 C 3,2 km/h (1 Bft) 100,00 %
29.09.2019 06:54 9,6 C 13,9 C 8,9 C 94 % 1014,8 hPa 0,0 l/m 2,1 km/h (1 Bft) NO 54 0 min 0,000 mm 0,0 UV-I 4 W/m 8,7 C 9,6 C 3,2 km/h (1 Bft) 100,00 %
29.09.2019 06:56 9,6 C 13,9 C 8,3 C 94 % 1014,8 hPa 0,0 l/m 2,2 km/h (1 Bft) NO 54 0 min 0,000 mm 0,0 UV-I 5 W/m 8,7 C 9,6 C 3,2 km/h (1 Bft) 97,87 %
29.09.2019 06:58 9,5 C 13,9 C 8,3 C 95 % 1014,8 hPa 0,0 l/m 2,2 km/h (1 Bft) NO 54 0 min 0,000 mm 0,0 UV-I 5 W/m 8,7 C 9,5 C 3,2 km/h (1 Bft) 97,87 %
29.09.2019 07:00 9,4 C 13,9 C 8,3 C 95 % 1014,8 hPa 0,0 l/m 2,1 km/h (1 Bft) NO 54 0 min 0,000 mm 0,0 UV-I 6 W/m 8,6 C 9,4 C 3,2 km/h (1 Bft) 98,00 %
29.09.2019 07:02 9,4 C 13,9 C 7,8 C 95 % 1014,8 hPa 0,0 l/m 2,7 km/h (1 Bft) NO 54 0 min 0,000 mm 0,0 UV-I 7 W/m 8,6 C 9,4 C 4,8 km/h (1 Bft) 100,00 %
29.09.2019 07:04 9,4 C 13,9 C 7,8 C 95 % 1014,7 hPa 0,0 l/m 2,0 km/h (1 Bft) NO 54 0 min 0,000 mm 0,0 UV-I 7 W/m 8,6 C 9,4 C 3,2 km/h (1 Bft) 100,00 %
29.09.2019 07:06 9,3 C 13,9 C 7,8 C 95 % 1014,8 hPa 0,0 l/m 2,2 km/h (1 Bft) NO 54 0 min 0,000 mm 0,0 UV-I 9 W/m 8,5 C 9,3 C 3,2 km/h (1 Bft) 100,00 %
29.09.2019 07:08 9,3 C 13,9 C 8,3 C 95 % 1014,7 hPa 0,0 l/m 2,1 km/h (1 Bft) NO 54 0 min 0,000 mm 0,0 UV-I 11 W/m 8,5 C 9,3 C 3,2 km/h (1 Bft) 96,00 %
29.09.2019 07:10 9,3 C 13,9 C 7,8 C 95 % 1014,7 hPa 0,0 l/m 2,8 km/h (1 Bft) NO 54 2 min 0,000 mm 0,0 UV-I 12 W/m 8,5 C 9,3 C 4,8 km/h (1 Bft) 94,74 %
29.09.2019 07:12 9,2 C 13,9 C 8,3 C 95 % 1014,7 hPa 0,0 l/m 2,6 km/h (1 Bft) NO 54 2 min 0,000 mm 0,0 UV-I 13 W/m 8,4 C 9,2 C 3,2 km/h (1 Bft) 96,00 %
29.09.2019 07:14 9,2 C 13,9 C 8,3 C 95 % 1014,8 hPa 0,0 l/m 3,6 km/h (1 Bft) NO 54 2 min 0,000 mm 0,0 UV-I 16 W/m 8,4 C 9,2 C 4,8 km/h (1 Bft) 89,36 %
29.09.2019 07:16 9,2 C 13,9 C 8,3 C 95 % 1014,7 hPa 0,0 l/m 3,3 km/h (1 Bft) N-NO 28 0 min 0,000 mm 0,0 UV-I 17 W/m 8,4 C 9,2 C 4,8 km/h (1 Bft) 94,00 %
29.09.2019 07:18 9,2 C 13,9 C 8,3 C 95 % 1014,7 hPa 0,0 l/m 2,7 km/h (1 Bft) N-NO 28 0 min 0,000 mm 0,0 UV-I 19 W/m 8,4 C 9,2 C 4,8 km/h (1 Bft) 95,74 %
29.09.2019 07:20 9,2 C 13,9 C 8,3 C 95 % 1014,7 hPa 0,0 l/m 1,6 km/h (1 Bft) N-NO 28 0 min 0,000 mm 0,0 UV-I 24 W/m 8,4 C 9,2 C 3,2 km/h (1 Bft) 97,87 %
29.09.2019 07:22 9,3 C 13,9 C 8,3 C 95 % 1014,7 hPa 0,0 l/m 0,9 km/h (0 Bft) N-NO 28 2 min 0,000 mm 0,0 UV-I 31 W/m 8,5 C 9,3 C 1,6 km/h (1 Bft) 95,74 %
29.09.2019 07:24 9,3 C 13,9 C 7,8 C 95 % 1014,7 hPa 0,0 l/m 0,7 km/h (0 Bft) N-NO 28 0 min 0,000 mm 0,0 UV-I 27 W/m 8,5 C 9,3 C 1,6 km/h (1 Bft) 93,62 %
29.09.2019 07:26 9,3 C 13,9 C 7,8 C 95 % 1014,7 hPa 0,0 l/m 1,0 km/h (0 Bft) N-NO 28 0 min 0,000 mm 0,0 UV-I 25 W/m 8,5 C 9,3 C 1,6 km/h (1 Bft) 95,74 %
29.09.2019 07:28 9,3 C 13,9 C 7,8 C 95 % 1014,6 hPa 0,0 l/m 1,4 km/h (1 Bft) N-NO 28 0 min 0,000 mm 0,0 UV-I 26 W/m 8,5 C 9,3 C 3,2 km/h (1 Bft) 93,62 %
29.09.2019 07:30 9,3 C 13,9 C 7,8 C 95 % 1014,6 hPa 0,0 l/m 1,8 km/h (1 Bft) N-NO 28 0 min 0,000 mm 0,0 UV-I 27 W/m 8,5 C 9,3 C 3,2 km/h (1 Bft) 95,74 %
29.09.2019 07:32 9,2 C 13,9 C 7,8 C 95 % 1014,6 hPa 0,0 l/m 2,3 km/h (1 Bft) N-NO 28 0 min 0,000 mm 0,0 UV-I 30 W/m 8,4 C 9,2 C 3,2 km/h (1 Bft) 97,44 %
29.09.2019 07:34 9,2 C 13,9 C 7,8 C 95 % 1014,6 hPa 0,0 l/m 3,2 km/h (1 Bft) N-NO 28 0 min 0,000 mm 0,0 UV-I 32 W/m 8,4 C 9,2 C 3,2 km/h (1 Bft) 97,87 %
29.09.2019 07:36 9,1 C 13,9 C 8,3 C 96 % 1014,6 hPa 0,0 l/m 2,7 km/h (1 Bft) N-NO 28 0 min 0,000 mm 0,0 UV-I 35 W/m 8,5 C 9,1 C 3,2 km/h (1 Bft) 95,74 %
29.09.2019 07:38 9,2 C 13,9 C 8,3 C 96 % 1014,6 hPa 0,0 l/m 1,8 km/h (1 Bft) N-NO 28 0 min 0,000 mm 0,0 UV-I 39 W/m 8,6 C 9,2 C 3,2 km/h (1 Bft) 97,87 %
29.09.2019 07:40 9,2 C 13,9 C 7,8 C 96 % 1014,5 hPa 0,0 l/m 2,9 km/h (1 Bft) N-NO 29 0 min 0,000 mm 0,0 UV-I 45 W/m 8,6 C 9,2 C 4,8 km/h (1 Bft) 97,87 %
29.09.2019 07:42 9,3 C 13,9 C 8,3 C 96 % 1014,5 hPa 0,0 l/m 4,1 km/h (1 Bft) O-NO 76 0 min 0,000 mm 0,0 UV-I 51 W/m 8,7 C 9,3 C 6,4 km/h (2 Bft) 97,87 %
29.09.2019 07:44 9,2 C 13,9 C 8,3 C 96 % 1014,5 hPa 0,0 l/m 3,9 km/h (1 Bft) O 92 2 min 0,000 mm 0,0 UV-I 72 W/m 8,6 C 9,2 C 6,4 km/h (2 Bft) 96,00 %
29.09.2019 07:46 9,2 C 13,9 C 8,3 C 96 % 1014,5 hPa 0,0 l/m 1,4 km/h (1 Bft) O 92 2 min 0,000 mm 0,0 UV-I 75 W/m 8,6 C 9,2 C 3,2 km/h (1 Bft) 94,00 %
29.09.2019 07:48 9,2 C 13,9 C 8,3 C 96 % 1014,5 hPa 0,0 l/m 0,0 km/h (0 Bft) O 92 2 min 0,000 mm 0,0 UV-I 73 W/m 8,6 C 9,2 C 0,0 km/h (0 Bft) 100,00 %
29.09.2019 07:50 9,2 C 13,9 C 8,3 C 96 % 1014,6 hPa 0,0 l/m 0,0 km/h (0 Bft) O 92 2 min 0,000 mm 0,0 UV-I 87 W/m 8,6 C 9,2 C 0,0 km/h (0 Bft) 94,74 %
29.09.2019 07:52 9,3 C 13,9 C 8,9 C 96 % 1014,5 hPa 0,0 l/m 0,9 km/h (0 Bft) O 92 2 min 0,000 mm 0,0 UV-I 108 W/m 8,7 C 9,3 C 3,2 km/h (1 Bft) 100,00 %
29.09.2019 07:54 9,4 C 13,9 C 9,4 C 96 % 1014,6 hPa 0,0 l/m 3,2 km/h (1 Bft) S-SO 156 2 min 0,000 mm 0,0 UV-I 112 W/m 8,8 C 9,4 C 4,8 km/h (1 Bft) 100,00 %
29.09.2019 07:56 9,5 C 13,9 C 9,4 C 96 % 1014,5 hPa 0,0 l/m 3,5 km/h (1 Bft) S-SO 161 2 min 0,000 mm 0,0 UV-I 117 W/m 8,9 C 9,5 C 6,4 km/h (2 Bft) 100,00 %
29.09.2019 07:58 9,6 C 13,9 C 9,4 C 96 % 1014,5 hPa 0,0 l/m 2,1 km/h (1 Bft) S-SO 161 2 min 0,000 mm 0,0 UV-I 120 W/m 9,0 C 9,6 C 3,2 km/h (1 Bft) 95,74 %
29.09.2019 08:00 9,6 C 13,9 C 9,4 C 96 % 1014,5 hPa 0,0 l/m 1,9 km/h (1 Bft) S-SO 161 2 min 0,025 mm 0,0 UV-I 107 W/m 9,0 C 9,6 C 3,2 km/h (1 Bft) 96,00 %
29.09.2019 08:02 9,8 C 13,9 C 10,0 C 96 % 1014,5 hPa 0,0 l/m 0,9 km/h (0 Bft) S-SO 161 2 min 0,000 mm 0,0 UV-I 126 W/m 9,2 C 9,8 C 3,2 km/h (1 Bft) 98,00 %
29.09.2019 08:04 9,9 C 13,9 C 10,0 C 96 % 1014,4 hPa 0,0 l/m 1,4 km/h (1 Bft) S-SO 161 2 min 0,000 mm 0,0 UV-I 133 W/m 9,3 C 9,9 C 3,2 km/h (1 Bft) 93,62 %
29.09.2019 08:06 10,0 C 13,9 C 10,0 C 96 % 1014,4 hPa 0,0 l/m 1,1 km/h (1 Bft) S-SO 161 2 min 0,000 mm 0,0 UV-I 124 W/m 9,4 C 10,0 C 1,6 km/h (1 Bft) 97,87 %
29.09.2019 08:08 10,1 C 13,9 C 10,0 C 96 % 1014,3 hPa 0,0 l/m 0,2 km/h (0 Bft) S-SO 161 2 min 0,000 mm 0,0 UV-I 144 W/m 9,5 C 10,1 C 1,6 km/h (1 Bft) 97,87 %
29.09.2019 08:10 10,2 C 13,9 C 10,0 C 96 % 1014,3 hPa 0,0 l/m 2,7 km/h (1 Bft) S-SO 163 2 min 0,000 mm 0,0 UV-I 156 W/m 9,6 C 10,2 C 6,4 km/h (2 Bft) 97,87 %
29.09.2019 08:12 10,3 C 13,9 C 10,6 C 96 % 1014,3 hPa 0,0 l/m 3,3 km/h (1 Bft) S-SO 163 2 min 0,000 mm 0,0 UV-I 160 W/m 9,7 C 10,3 C 6,4 km/h (2 Bft) 97,87 %
29.09.2019 08:14 10,5 C 13,9 C 10,6 C 95 % 1014,3 hPa 0,0 l/m 5,1 km/h (1 Bft) S-SO 156 2 min 0,000 mm 0,0 UV-I 153 W/m 9,7 C 10,5 C 8,0 km/h (2 Bft) 97,92 %
29.09.2019 08:16 10,7 C 13,9 C 11,1 C 95 % 1014,3 hPa 0,0 l/m 3,4 km/h (1 Bft) S-SO 165 2 min 0,000 mm 0,0 UV-I 175 W/m 9,9 C 10,7 C 6,4 km/h (2 Bft) 95,74 %
29.09.2019 08:18 10,8 C 13,9 C 11,1 C 95 % 1014,2 hPa 0,0 l/m 4,8 km/h (1 Bft) S-SO 164 2 min 0,000 mm 0,0 UV-I 188 W/m 10,0 C 10,8 C 9,7 km/h (2 Bft) 100,00 %
29.09.2019 08:20 11,0 C 13,9 C 11,7 C 95 % 1014,2 hPa 0,0 l/m 5,6 km/h (1 Bft) S 175 2 min 0,000 mm 0,0 UV-I 183 W/m 10,2 C 11,0 C 9,7 km/h (2 Bft) 96,23 %
29.09.2019 08:22 11,1 C 13,9 C 11,7 C 94 % 1014,2 hPa 0,0 l/m 5,0 km/h (1 Bft) S-SO 160 2 min 0,000 mm 0,0 UV-I 210 W/m 10,2 C 11,1 C 8,0 km/h (2 Bft) 97,87 %
29.09.2019 08:24 11,3 C 13,9 C 12,2 C 94 % 1014,1 hPa 0,0 l/m 2,3 km/h (1 Bft) S-SO 160 2 min 0,000 mm 0,0 UV-I 222 W/m 10,4 C 11,3 C 6,4 km/h (2 Bft) 98,00 %
29.09.2019 08:26 11,4 C 13,9 C 12,8 C 93 % 1014,1 hPa 0,0 l/m 2,1 km/h (1 Bft) S-SO 160 2 min 0,000 mm 0,0 UV-I 212 W/m 10,3 C 11,4 C 3,2 km/h (1 Bft) 97,87 %
29.09.2019 08:28 11,7 C 13,9 C 12,8 C 93 % 1014,1 hPa 0,0 l/m 0,9 km/h (0 Bft) S-SO 160 2 min 0,000 mm 0,0 UV-I 226 W/m 10,6 C 11,7 C 3,2 km/h (1 Bft) 95,74 %
29.09.2019 08:30 11,9 C 13,9 C 12,8 C 92 % 1014,1 hPa 0,0 l/m 0,1 km/h (0 Bft) S-SO 160 2 min 0,000 mm 0,0 UV-I 232 W/m 10,6 C 11,9 C 1,6 km/h (1 Bft) 92,11 %
29.09.2019 08:32 12,0 C 13,9 C 13,3 C 92 % 1014,1 hPa 0,0 l/m 0,0 km/h (0 Bft) S-SO 160 2 min 0,000 mm 0,0 UV-I 202 W/m 10,7 C 12,0 C 0,0 km/h (0 Bft) 95,74 %
29.09.2019 08:34 12,2 C 13,9 C 13,3 C 91 % 1014,1 hPa 0,0 l/m 0,0 km/h (0 Bft) S-SO 160 2 min 0,000 mm 0,0 UV-I 165 W/m 10,8 C 12,2 C 1,6 km/h (1 Bft) 95,74 %
29.09.2019 08:36 12,3 C 13,9 C 13,3 C 91 % 1014,1 hPa 0,0 l/m 0,0 km/h (0 Bft) S-SO 160 0 min 0,000 mm 0,0 UV-I 132 W/m 10,9 C 12,3 C 0,0 km/h (0 Bft) 95,74 %
29.09.2019 08:38 12,5 C 13,9 C 13,3 C 90 % 1014,1 hPa 0,0 l/m 0,3 km/h (0 Bft) S-SO 160 0 min 0,000 mm 0,0 UV-I 141 W/m 10,9 C 12,5 C 1,6 km/h (1 Bft) 93,62 %
29.09.2019 08:40 12,6 C 13,9 C 13,3 C 89 % 1014,0 hPa 0,0 l/m 0,3 km/h (0 Bft) S-SO 160 0 min 0,000 mm 0,0 UV-I 144 W/m 10,8 C 12,6 C 1,6 km/h (1 Bft) 95,74 %
29.09.2019 08:42 12,5 C 13,9 C 13,3 C 89 % 1014,0 hPa 0,0 l/m 0,0 km/h (0 Bft) S-SO 160 2 min 0,000 mm 0,0 UV-I 156 W/m 10,7 C 12,5 C 0,0 km/h (0 Bft) 93,62 %
29.09.2019 08:44 12,5 C 13,9 C 13,9 C 89 % 1014,0 hPa 0,0 l/m 0,0 km/h (0 Bft) S-SO 160 0 min 0,000 mm 0,0 UV-I 151 W/m 10,7 C 12,5 C 0,0 km/h (0 Bft) 91,49 %
29.09.2019 08:46 12,6 C 13,9 C 13,9 C 89 % 1014,0 hPa 0,0 l/m 0,0 km/h (0 Bft) S-SO 160 0 min 0,000 mm 0,0 UV-I 152 W/m 10,8 C 12,6 C 0,0 km/h (0 Bft) 89,36 %
29.09.2019 08:48 12,7 C 13,9 C 13,9 C 89 % 1014,0 hPa 0,0 l/m 0,0 km/h (0 Bft) S-SO 160 2 min 0,000 mm 0,2 UV-I 177 W/m 10,9 C 12,7 C 0,0 km/h (0 Bft) 97,92 %
29.09.2019 08:50 12,9 C 13,9 C 13,9 C 88 % 1014,0 hPa 0,0 l/m 0,0 km/h (0 Bft) S-SO 160 2 min 0,000 mm 0,5 UV-I 223 W/m 11,0 C 12,9 C 0,0 km/h (0 Bft) 100,00 %
29.09.2019 08:52 13,1 C 13,9 C 13,9 C 88 % 1014,0 hPa 0,0 l/m 0,7 km/h (0 Bft) NO 49 2 min 0,000 mm 0,5 UV-I 194 W/m 11,2 C 13,1 C 4,8 km/h (1 Bft) 97,87 %
29.09.2019 08:54 13,2 C 13,9 C 13,9 C 88 % 1014,0 hPa 0,0 l/m 3,8 km/h (1 Bft) NO 49 2 min 0,000 mm 0,5 UV-I 214 W/m 11,3 C 13,2 C 4,8 km/h (1 Bft) 100,00 %
29.09.2019 08:56 13,2 C 13,9 C 13,9 C 88 % 1014,0 hPa 0,0 l/m 5,6 km/h (1 Bft) NO 34 2 min 0,000 mm 0,5 UV-I 176 W/m 11,3 C 13,2 C 6,4 km/h (2 Bft) 100,00 %
29.09.2019 08:58 13,1 C 13,9 C 13,3 C 87 % 1014,0 hPa 0,0 l/m 6,0 km/h (2 Bft) N-NO 33 0 min 0,000 mm 0,5 UV-I 131 W/m 11,0 C 13,1 C 8,0 km/h (2 Bft) 97,87 %
29.09.2019 09:00 13,0 C 13,9 C 13,3 C 88 % 1014,0 hPa 0,0 l/m 5,2 km/h (1 Bft) N-NO 33 0 min 0,076 mm 0,5 UV-I 129 W/m 11,1 C 13,0 C 6,4 km/h (2 Bft) 97,87 %
29.09.2019 09:02 12,9 C 13,9 C 13,3 C 88 % 1014,0 hPa 0,0 l/m 5,2 km/h (1 Bft) N-NO 33 0 min 0,000 mm 0,6 UV-I 171 W/m 11,0 C 12,9 C 6,4 km/h (2 Bft) 100,00 %
29.09.2019 09:04 12,8 C 13,9 C 13,9 C 88 % 1014,0 hPa 0,0 l/m 4,0 km/h (1 Bft) N-NO 33 2 min 0,000 mm 0,6 UV-I 223 W/m 10,9 C 12,8 C 6,4 km/h (2 Bft) 100,00 %
29.09.2019 09:06 12,9 C 13,9 C 13,9 C 89 % 1014,0 hPa 0,0 l/m 3,8 km/h (1 Bft) NO 36 2 min 0,000 mm 0,6 UV-I 293 W/m 11,1 C 12,9 C 4,8 km/h (1 Bft) 100,00 %
29.09.2019 09:08 13,1 C 13,9 C 13,9 C 89 % 1014,0 hPa 0,0 l/m 4,9 km/h (1 Bft) NO 36 2 min 0,000 mm 0,7 UV-I 322 W/m 11,3 C 13,1 C 6,4 km/h (2 Bft) 97,87 %
29.09.2019 09:10 13,2 C 13,9 C 13,9 C 89 % 1014,0 hPa 0,0 l/m 5,8 km/h (2 Bft) NO 41 2 min 0,000 mm 0,7 UV-I 334 W/m 11,4 C 13,2 C 8,0 km/h (2 Bft) 100,00 %
29.09.2019 09:12 13,3 C 13,9 C 13,9 C 89 % 1014,0 hPa 0,0 l/m 6,1 km/h (2 Bft) N-NO 24 2 min 0,000 mm 0,7 UV-I 337 W/m 11,5 C 13,3 C 8,0 km/h (2 Bft) 97,37 %
29.09.2019 09:14 13,4 C 13,9 C 13,9 C 88 % 1014,0 hPa 0,0 l/m 4,6 km/h (1 Bft) N-NO 32 2 min 0,000 mm 0,7 UV-I 269 W/m 11,5 C 13,4 C 6,4 km/h (2 Bft) 97,87 %
29.09.2019 09:16 13,5 C 13,9 C 13,9 C 88 % 1014,0 hPa 0,0 l/m 4,3 km/h (1 Bft) N-NO 33 2 min 0,000 mm 0,8 UV-I 292 W/m 11,6 C 13,5 C 6,4 km/h (2 Bft) 98,00 %
29.09.2019 09:18 13,6 C 13,9 C 14,4 C 88 % 1014,0 hPa 0,0 l/m 4,1 km/h (1 Bft) NO 34 2 min 0,000 mm 0,8 UV-I 337 W/m 11,6 C 13,6 C 4,8 km/h (1 Bft) 95,74 %
29.09.2019 09:20 13,8 C 13,9 C 13,9 C 86 % 1013,9 hPa 0,0 l/m 4,4 km/h (1 Bft) NO 34 2 min 0,000 mm 0,8 UV-I 333 W/m 11,5 C 13,8 C 6,4 km/h (2 Bft) 97,87 %
29.09.2019 09:22 13,8 C 13,9 C 13,9 C 87 % 1013,9 hPa 0,0 l/m 4,0 km/h (1 Bft) NO 34 2 min 0,000 mm 0,9 UV-I 333 W/m 11,7 C 13,8 C 6,4 km/h (2 Bft) 97,87 %
29.09.2019 09:24 14,0 C 13,9 C 14,4 C 87 % 1013,9 hPa 0,0 l/m 4,0 km/h (1 Bft) NO 46 2 min 0,000 mm 0,9 UV-I 335 W/m 11,9 C 14,0 C 4,8 km/h (1 Bft) 98,00 %
29.09.2019 09:26 14,2 C 13,9 C 14,4 C 86 % 1013,8 hPa 0,0 l/m 4,8 km/h (1 Bft) NO 43 2 min 0,000 mm 0,9 UV-I 341 W/m 11,9 C 14,2 C 6,4 km/h (2 Bft) 95,74 %
29.09.2019 09:28 14,3 C 13,9 C 14,4 C 85 % 1013,8 hPa 0,0 l/m 4,2 km/h (1 Bft) NO 55 2 min 0,000 mm 0,9 UV-I 346 W/m 11,8 C 14,3 C 6,4 km/h (2 Bft) 97,44 %
29.09.2019 09:30 14,3 C 13,9 C 14,4 C 84 % 1013,7 hPa 0,0 l/m 3,4 km/h (1 Bft) O-NO 57 2 min 0,000 mm 1,0 UV-I 358 W/m 11,6 C 14,3 C 6,4 km/h (2 Bft) 96,00 %
29.09.2019 09:32 14,4 C 13,9 C 14,4 C 84 % 1013,7 hPa 0,0 l/m 2,4 km/h (1 Bft) NO 56 2 min 0,000 mm 1,0 UV-I 362 W/m 11,7 C 14,4 C 4,8 km/h (1 Bft) 98,00 %
29.09.2019 09:34 14,4 C 13,9 C 15,0 C 84 % 1013,7 hPa 0,0 l/m 4,7 km/h (1 Bft) O-NO 65 2 min 0,000 mm 1,0 UV-I 383 W/m 11,7 C 14,4 C 6,4 km/h (2 Bft) 91,49 %
29.09.2019 09:36 14,6 C 13,9 C 15,0 C 84 % 1013,7 hPa 0,0 l/m 2,7 km/h (1 Bft) O-NO 65 2 min 0,000 mm 1,1 UV-I 388 W/m 11,9 C 14,6 C 4,8 km/h (1 Bft) 95,74 %
29.09.2019 09:38 14,7 C 13,9 C 15,0 C 84 % 1013,7 hPa 0,0 l/m 4,7 km/h (1 Bft) NO 50 2 min 0,000 mm 0,9 UV-I 296 W/m 12,0 C 14,7 C 6,4 km/h (2 Bft) 98,00 %
29.09.2019 09:40 14,6 C 13,9 C 15,0 C 83 % 1013,7 hPa 0,0 l/m 3,8 km/h (1 Bft) O-NO 57 0 min 0,000 mm 0,9 UV-I 178 W/m 11,7 C 14,6 C 6,4 km/h (2 Bft) 100,00 %
29.09.2019 09:42 14,5 C 13,9 C 14,4 C 82 % 1013,7 hPa 0,0 l/m 2,9 km/h (1 Bft) O-NO 57 0 min 0,000 mm 0,9 UV-I 165 W/m 11,5 C 14,5 C 4,8 km/h (1 Bft) 100,00 %
29.09.2019 09:44 14,5 C 13,9 C 14,4 C 83 % 1013,7 hPa 0,0 l/m 2,7 km/h (1 Bft) O-NO 57 2 min 0,000 mm 1,1 UV-I 242 W/m 11,6 C 14,5 C 4,8 km/h (1 Bft) 100,00 %
29.09.2019 09:46 14,6 C 13,9 C 14,4 C 84 % 1013,7 hPa 0,0 l/m 4,8 km/h (1 Bft) O-NO 57 2 min 0,000 mm 1,2 UV-I 374 W/m 11,9 C 14,6 C 6,4 km/h (2 Bft) 97,87 %
29.09.2019 09:48 14,8 C 13,9 C 14,4 C 84 % 1013,7 hPa 0,0 l/m 4,0 km/h (1 Bft) NO 34 2 min 0,000 mm 1,2 UV-I 361 W/m 12,1 C 14,8 C 6,4 km/h (2 Bft) 97,87 %
29.09.2019 09:50 14,8 C 13,9 C 15,0 C 82 % 1013,7 hPa 0,0 l/m 3,5 km/h (1 Bft) NO 34 2 min 0,000 mm 1,2 UV-I 368 W/m 11,8 C 14,8 C 6,4 km/h (2 Bft) 95,83 %
29.09.2019 09:52 14,9 C 13,9 C 15,0 C 82 % 1013,7 hPa 0,0 l/m 3,4 km/h (1 Bft) NO 39 2 min 0,000 mm 1,2 UV-I 381 W/m 11,9 C 14,9 C 4,8 km/h (1 Bft) 98,36 %
29.09.2019 09:54 15,0 C 13,9 C 15,0 C 83 % 1013,7 hPa 0,0 l/m 4,6 km/h (1 Bft) N-NO 14 2 min 0,000 mm 1,3 UV-I 386 W/m 12,1 C 15,0 C 6,4 km/h (2 Bft) 98,11 %
29.09.2019 09:56 15,1 C 13,9 C 15,0 C 82 % 1013,7 hPa 0,0 l/m 4,6 km/h (1 Bft) N-NO 28 2 min 0,000 mm 1,3 UV-I 388 W/m 12,0 C 15,1 C 6,4 km/h (2 Bft) 95,74 %
29.09.2019 09:58 15,2 C 13,9 C 15,0 C 82 % 1013,7 hPa 0,0 l/m 4,9 km/h (1 Bft) N-NO 31 2 min 0,000 mm 1,3 UV-I 391 W/m 12,1 C 15,2 C 6,4 km/h (2 Bft) 100,00 %
29.09.2019 10:00 15,3 C 13,9 C 15,0 C 81 % 1013,6 hPa 0,0 l/m 3,1 km/h (1 Bft) N-NO 30 2 min 0,178 mm 1,3 UV-I 395 W/m 12,1 C 15,3 C 4,8 km/h (1 Bft) 94,00 %
29.09.2019 10:02 15,3 C 13,9 C 15,6 C 81 % 1013,7 hPa 0,0 l/m 3,8 km/h (1 Bft) NO 44 2 min 0,000 mm 1,4 UV-I 397 W/m 12,1 C 15,3 C 8,0 km/h (2 Bft) 97,87 %
29.09.2019 10:04 15,6 C 13,9 C 15,6 C 82 % 1013,6 hPa 0,0 l/m 3,4 km/h (1 Bft) NO 44 2 min 0,000 mm 1,4 UV-I 402 W/m 12,5 C 15,6 C 6,4 km/h (2 Bft) 93,75 %
29.09.2019 10:06 15,7 C 13,9 C 15,6 C 80 % 1013,6 hPa 0,0 l/m 4,3 km/h (1 Bft) NO 49 2 min 0,000 mm 1,4 UV-I 405 W/m 12,3 C 15,7 C 6,4 km/h (2 Bft) 95,74 %
29.09.2019 10:08 15,8 C 13,9 C 16,1 C 80 % 1013,5 hPa 0,0 l/m 3,9 km/h (1 Bft) O-NO 63 2 min 0,000 mm 1,5 UV-I 409 W/m 12,4 C 15,8 C 6,4 km/h (2 Bft) 100,00 %
29.09.2019 10:10 15,8 C 13,9 C 15,6 C 79 % 1013,5 hPa 0,0 l/m 1,5 km/h (1 Bft) O-NO 63 2 min 0,000 mm 1,5 UV-I 413 W/m 12,2 C 15,8 C 3,2 km/h (1 Bft) 100,00 %
29.09.2019 10:12 16,0 C 13,9 C 16,1 C 79 % 1013,5 hPa 0,0 l/m 4,9 km/h (1 Bft) NO 39 2 min 0,000 mm 1,6 UV-I 415 W/m 12,4 C 16,0 C 8,0 km/h (2 Bft) 100,00 %
29.09.2019 10:14 16,1 C 13,9 C 16,7 C 78 % 1013,6 hPa 0,0 l/m 4,5 km/h (1 Bft) NO 38 2 min 0,000 mm 1,6 UV-I 419 W/m 12,3 C 16,1 C 6,4 km/h (2 Bft) 100,00 %
29.09.2019 10:16 16,2 C 13,9 C 16,7 C 79 % 1013,6 hPa 0,0 l/m 5,5 km/h (1 Bft) NO 36 2 min 0,000 mm 1,6 UV-I 423 W/m 12,6 C 16,2 C 8,0 km/h (2 Bft) 97,87 %
29.09.2019 10:18 16,2 C 13,9 C 16,7 C 77 % 1013,6 hPa 0,0 l/m 4,6 km/h (1 Bft) N-NO 19 2 min 0,000 mm 1,6 UV-I 427 W/m 12,2 C 16,2 C 6,4 km/h (2 Bft) 100,00 %
29.09.2019 10:20 16,3 C 13,9 C 17,8 C 77 % 1013,6 hPa 0,0 l/m 4,1 km/h (1 Bft) N-NO 21 2 min 0,000 mm 1,7 UV-I 431 W/m 12,3 C 16,3 C 6,4 km/h (2 Bft) 100,00 %
29.09.2019 10:22 16,3 C 13,9 C 18,3 C 78 % 1013,6 hPa 0,0 l/m 5,4 km/h (1 Bft) N-NO 26 2 min 0,000 mm 1,7 UV-I 433 W/m 12,5 C 16,3 C 6,4 km/h (2 Bft) 100,00 %
29.09.2019 10:24 16,3 C 13,9 C 18,3 C 77 % 1013,5 hPa 0,0 l/m 4,6 km/h (1 Bft) N-NO 25 2 min 0,000 mm 1,7 UV-I 438 W/m 12,3 C 16,3 C 8,0 km/h (2 Bft) 97,87 %
29.09.2019 10:26 16,4 C 13,9 C 18,9 C 78 % 1013,5 hPa 0,0 l/m 5,0 km/h (1 Bft) N-NO 24 2 min 0,000 mm 1,8 UV-I 441 W/m 12,6 C 16,4 C 8,0 km/h (2 Bft) 100,00 %
29.09.2019 10:28 16,6 C 13,9 C 19,4 C 77 % 1013,5 hPa 0,0 l/m 5,2 km/h (1 Bft) NO 43 2 min 0,000 mm 1,8 UV-I 444 W/m 12,5 C 16,6 C 6,4 km/h (2 Bft) 100,00 %
29.09.2019 10:30 16,5 C 13,9 C 20,0 C 76 % 1013,4 hPa 0,0 l/m 3,0 km/h (1 Bft) NO 43 2 min 0,000 mm 1,8 UV-I 446 W/m 12,3 C 16,5 C 4,8 km/h (1 Bft) 97,87 %
29.09.2019 10:32 16,5 C 13,9 C 21,7 C 77 % 1013,4 hPa 0,0 l/m 3,3 km/h (1 Bft) N-NO 27 2 min 0,000 mm 1,9 UV-I 450 W/m 12,5 C 16,5 C 6,4 km/h (2 Bft) 100,00 %
29.09.2019 10:34 16,6 C 13,9 C 23,3 C 77 % 1013,3 hPa 0,0 l/m 5,0 km/h (1 Bft) O-NO 73 2 min 0,000 mm 1,9 UV-I 455 W/m 12,5 C 16,6 C 6,4 km/h (2 Bft) 100,00 %
29.09.2019 10:36 16,7 C 13,9 C 25,0 C 76 % 1013,1 hPa 0,0 l/m 4,0 km/h (1 Bft) O 79 2 min 0,000 mm 1,9 UV-I 458 W/m 12,4 C 16,7 C 8,0 km/h (2 Bft) 100,00 %
29.09.2019 10:38 16,8 C 13,9 C 26,1 C 75 % 1013,1 hPa 0,0 l/m 5,0 km/h (1 Bft) O-NO 67 2 min 0,000 mm 2,0 UV-I 461 W/m 12,3 C 16,8 C 8,0 km/h (2 Bft) 97,87 %
29.09.2019 10:40 16,9 C 13,9 C 26,7 C 77 % 1013,1 hPa 0,0 l/m 6,1 km/h (2 Bft) O-NO 62 2 min 0,000 mm 2,0 UV-I 465 W/m 12,8 C 16,9 C 9,7 km/h (2 Bft) 100,00 %
29.09.2019 10:42 17,0 C 13,9 C 26,7 C 74 % 1013,0 hPa 0,0 l/m 4,4 km/h (1 Bft) O-NO 63 2 min 0,000 mm 2,0 UV-I 468 W/m 12,3 C 17,0 C 6,4 km/h (2 Bft) 97,87 %
29.09.2019 10:44 17,1 C 13,9 C 27,8 C 75 % 1013,0 hPa 0,0 l/m 4,7 km/h (1 Bft) NO 50 2 min 0,000 mm 2,1 UV-I 472 W/m 12,6 C 17,1 C 6,4 km/h (2 Bft) 97,87 %
29.09.2019 10:46 17,1 C 13,9 C 27,8 C 73 % 1013,1 hPa 0,0 l/m 4,0 km/h (1 Bft) NO 56 2 min 0,000 mm 2,1 UV-I 476 W/m 12,2 C 17,1 C 6,4 km/h (2 Bft) 95,74 %
29.09.2019 10:48 17,1 C 13,9 C 28,3 C 75 % 1013,0 hPa 0,0 l/m 3,7 km/h (1 Bft) NO 44 2 min 0,000 mm 2,1 UV-I 477 W/m 12,6 C 17,1 C 8,0 km/h (2 Bft) 95,74 %
29.09.2019 10:50 17,2 C 13,9 C 28,3 C 75 % 1013,0 hPa 0,0 l/m 6,8 km/h (2 Bft) NO 38 2 min 0,000 mm 2,1 UV-I 481 W/m 12,7 C 17,0 C 9,7 km/h (2 Bft) 98,00 %
29.09.2019 10:52 17,3 C 13,9 C 28,3 C 74 % 1013,0 hPa 0,0 l/m 4,6 km/h (1 Bft) NO 43 2 min 0,000 mm 2,2 UV-I 484 W/m 12,6 C 17,3 C 8,0 km/h (2 Bft) 97,87 %
29.09.2019 10:54 17,4 C 13,9 C 28,9 C 75 % 1013,1 hPa 0,0 l/m 6,8 km/h (2 Bft) N-NO 30 2 min 0,000 mm 2,2 UV-I 487 W/m 12,9 C 17,2 C 9,7 km/h (2 Bft) 91,49 %
29.09.2019 10:56 17,4 C 13,9 C 28,3 C 74 % 1013,0 hPa 0,0 l/m 5,4 km/h (1 Bft) N-NO 33 2 min 0,000 mm 2,2 UV-I 489 W/m 12,7 C 17,4 C 6,4 km/h (2 Bft) 97,14 %
29.09.2019 10:58 17,4 C 13,9 C 27,8 C 74 % 1013,0 hPa 0,0 l/m 5,3 km/h (1 Bft) NO 35 2 min 0,000 mm 2,2 UV-I 492 W/m 12,7 C 17,4 C 8,0 km/h (2 Bft) 96,00 %
29.09.2019 11:00 17,4 C 13,9 C 27,8 C 72 % 1013,0 hPa 0,0 l/m 4,9 km/h (1 Bft) NO 44 2 min 0,254 mm 2,3 UV-I 494 W/m 12,3 C 17,4 C 8,0 km/h (2 Bft) 98,00 %
29.09.2019 11:02 17,4 C 13,9 C 27,2 C 73 % 1012,9 hPa 0,0 l/m 4,8 km/h (1 Bft) NO 53 2 min 0,000 mm 1,9 UV-I 498 W/m 12,5 C 17,4 C 8,0 km/h (2 Bft) 96,00 %
29.09.2019 11:04 17,4 C 13,9 C 28,3 C 74 % 1012,8 hPa 0,0 l/m 4,0 km/h (1 Bft) NO 54 2 min 0,000 mm 2,2 UV-I 499 W/m 12,7 C 17,4 C 8,0 km/h (2 Bft) 97,87 %
29.09.2019 11:06 17,6 C 13,9 C 28,9 C 75 % 1012,8 hPa 0,0 l/m 7,4 km/h (2 Bft) N-NO 18 2 min 0,000 mm 2,3 UV-I 503 W/m 13,1 C 17,1 C 11,3 km/h (2 Bft) 97,87 %
29.09.2019 11:08 17,7 C 13,9 C 28,3 C 75 % 1012,8 hPa 0,0 l/m 5,3 km/h (1 Bft) NO 35 2 min 0,000 mm 2,4 UV-I 506 W/m 13,2 C 17,7 C 8,0 km/h (2 Bft) 96,00 %
29.09.2019 11:10 17,8 C 13,9 C 29,4 C 73 % 1012,7 hPa 0,0 l/m 3,4 km/h (1 Bft) O-SO 116 2 min 0,000 mm 2,4 UV-I 507 W/m 12,9 C 17,8 C 6,4 km/h (2 Bft) 94,74 %
29.09.2019 11:12 17,7 C 13,9 C 29,4 C 71 % 1012,7 hPa 0,0 l/m 3,1 km/h (1 Bft) O-NO 76 2 min 0,000 mm 2,4 UV-I 512 W/m 12,4 C 17,7 C 4,8 km/h (1 Bft) 97,87 %
29.09.2019 11:14 17,7 C 13,9 C 28,9 C 72 % 1012,7 hPa 0,0 l/m 5,6 km/h (1 Bft) N-NO 25 2 min 0,000 mm 2,4 UV-I 513 W/m 12,6 C 17,7 C 8,0 km/h (2 Bft) 95,74 %
29.09.2019 11:16 17,8 C 13,9 C 29,4 C 72 % 1012,7 hPa 0,0 l/m 5,9 km/h (2 Bft) N-NO 32 2 min 0,000 mm 2,5 UV-I 517 W/m 12,7 C 17,8 C 8,0 km/h (2 Bft) 95,74 %
29.09.2019 11:18 17,8 C 13,9 C 29,4 C 71 % 1012,7 hPa 0,0 l/m 5,1 km/h (1 Bft) N-NO 12 2 min 0,000 mm 2,5 UV-I 519 W/m 12,5 C 17,8 C 8,0 km/h (2 Bft) 95,83 %
29.09.2019 11:20 17,9 C 13,9 C 29,4 C 70 % 1012,7 hPa 0,0 l/m 3,4 km/h (1 Bft) NO 47 2 min 0,000 mm 2,5 UV-I 522 W/m 12,3 C 17,9 C 4,8 km/h (1 Bft) 95,74 %
29.09.2019 11:22 17,9 C 13,9 C 30,0 C 70 % 1012,6 hPa 0,0 l/m 3,6 km/h (1 Bft) O-NO 63 2 min 0,000 mm 2,6 UV-I 526 W/m 12,3 C 17,9 C 8,0 km/h (2 Bft) 93,62 %
29.09.2019 11:24 18,1 C 13,9 C 30,6 C 68 % 1012,6 hPa 0,0 l/m 5,0 km/h (1 Bft) O 82 2 min 0,000 mm 2,6 UV-I 526 W/m 12,1 C 18,1 C 8,0 km/h (2 Bft) 97,87 %
29.09.2019 11:26 18,2 C 13,9 C 31,1 C 66 % 1012,6 hPa 0,0 l/m 5,1 km/h (1 Bft) O-SO 110 2 min 0,000 mm 2,6 UV-I 528 W/m 11,7 C 18,2 C 6,4 km/h (2 Bft) 97,87 %
29.09.2019 11:28 18,2 C 13,9 C 31,1 C 66 % 1012,5 hPa 0,0 l/m 2,4 km/h (1 Bft) SO 124 2 min 0,000 mm 2,4 UV-I 532 W/m 11,7 C 18,2 C 6,4 km/h (2 Bft) 97,87 %
29.09.2019 11:30 18,2 C 13,9 C 31,1 C 69 % 1012,5 hPa 0,0 l/m 2,9 km/h (1 Bft) O-NO 72 2 min 0,000 mm 2,7 UV-I 525 W/m 12,4 C 18,2 C 6,4 km/h (2 Bft) 97,87 %
29.09.2019 11:32 18,3 C 13,9 C 31,7 C 71 % 1012,4 hPa 0,0 l/m 5,7 km/h (1 Bft) O-NO 60 2 min 0,000 mm 2,7 UV-I 536 W/m 12,9 C 18,3 C 12,9 km/h (3 Bft) 100,00 %
29.09.2019 11:34 18,3 C 13,9 C 31,1 C 70 % 1012,4 hPa 0,0 l/m 6,1 km/h (2 Bft) O 99 2 min 0,000 mm 2,7 UV-I 539 W/m 12,7 C 18,3 C 11,3 km/h (2 Bft) 100,00 %
29.09.2019 11:36 18,4 C 13,9 C 32,2 C 67 % 1012,4 hPa 0,0 l/m 4,5 km/h (1 Bft) O-SO 105 2 min 0,000 mm 2,7 UV-I 542 W/m 12,2 C 18,4 C 11,3 km/h (2 Bft) 97,87 %
29.09.2019 11:38 18,4 C 13,9 C 32,2 C 65 % 1012,4 hPa 0,0 l/m 1,5 km/h (1 Bft) O 101 2 min 0,000 mm 2,7 UV-I 544 W/m 11,7 C 18,4 C 3,2 km/h (1 Bft) 100,00 %
29.09.2019 11:40 18,5 C 13,9 C 32,8 C 68 % 1012,3 hPa 0,0 l/m 4,0 km/h (1 Bft) O-NO 65 2 min 0,000 mm 2,8 UV-I 546 W/m 12,5 C 18,5 C 6,4 km/h (2 Bft) 100,00 %
29.09.2019 11:42 18,6 C 13,9 C 32,2 C 68 % 1012,3 hPa 0,0 l/m 3,7 km/h (1 Bft) NO 44 2 min 0,000 mm 2,8 UV-I 549 W/m 12,6 C 18,6 C 9,7 km/h (2 Bft) 97,87 %
29.09.2019 11:44 18,7 C 13,9 C 31,7 C 70 % 1012,2 hPa 0,0 l/m 4,8 km/h (1 Bft) SO 131 2 min 0,000 mm 2,8 UV-I 551 W/m 13,1 C 18,7 C 8,0 km/h (2 Bft) 100,00 %
29.09.2019 11:46 18,8 C 13,9 C 32,2 C 66 % 1012,1 hPa 0,0 l/m 5,6 km/h (1 Bft) O 86 2 min 0,000 mm 2,8 UV-I 540 W/m 12,3 C 18,8 C 9,7 km/h (2 Bft) 100,00 %
29.09.2019 11:48 18,9 C 13,9 C 32,8 C 64 % 1012,0 hPa 0,0 l/m 5,4 km/h (1 Bft) SO 124 2 min 0,000 mm 2,9 UV-I 546 W/m 11,9 C 18,9 C 11,3 km/h (2 Bft) 100,00 %
29.09.2019 11:50 18,9 C 13,9 C 32,8 C 63 % 1011,9 hPa 0,0 l/m 1,6 km/h (1 Bft) SO 138 2 min 0,000 mm 2,9 UV-I 557 W/m 11,7 C 18,9 C 4,8 km/h (1 Bft) 97,87 %
29.09.2019 11:52 18,8 C 13,9 C 32,8 C 63 % 1011,9 hPa 0,0 l/m 2,9 km/h (1 Bft) O 80 2 min 0,000 mm 2,9 UV-I 557 W/m 11,6 C 18,8 C 8,0 km/h (2 Bft) 100,00 %
29.09.2019 11:54 18,8 C 13,9 C 32,2 C 64 % 1011,9 hPa 0,0 l/m 4,1 km/h (1 Bft) O 92 2 min 0,000 mm 2,9 UV-I 560 W/m 11,8 C 18,8 C 8,0 km/h (2 Bft) 98,44 %
29.09.2019 11:56 18,8 C 13,9 C 32,2 C 67 % 1011,9 hPa 0,0 l/m 1,9 km/h (1 Bft) O-NO 73 2 min 0,000 mm 2,9 UV-I 558 W/m 12,5 C 18,8 C 8,0 km/h (2 Bft) 100,00 %
29.09.2019 11:58 19,1 C 13,9 C 32,2 C 66 % 1011,9 hPa 0,0 l/m 9,1 km/h (2 Bft) O-NO 69 2 min 0,000 mm 3,0 UV-I 562 W/m 12,6 C 18,0 C 12,9 km/h (3 Bft) 100,00 %
29.09.2019 12:00 19,1 C 13,9 C 31,7 C 64 % 1011,9 hPa 0,0 l/m 7,3 km/h (2 Bft) O-NO 78 2 min 0,000 mm 3,0 UV-I 564 W/m 12,1 C 18,7 C 11,3 km/h (2 Bft) 98,11 %
29.09.2019 12:02 19,1 C 13,9 C 31,7 C 65 % 1011,9 hPa 0,0 l/m 3,5 km/h (1 Bft) O-NO 68 2 min 0,305 mm 3,0 UV-I 566 W/m 12,4 C 19,1 C 6,4 km/h (2 Bft) 100,00 %
29.09.2019 12:04 19,2 C 13,9 C 31,7 C 66 % 1011,8 hPa 0,0 l/m 8,4 km/h (2 Bft) NO 44 2 min 0,000 mm 3,0 UV-I 568 W/m 12,7 C 18,4 C 14,5 km/h (3 Bft) 100,00 %
29.09.2019 12:06 19,4 C 13,9 C 31,1 C 64 % 1011,8 hPa 0,0 l/m 9,9 km/h (2 Bft) N-NO 26 2 min 0,000 mm 3,0 UV-I 568 W/m 12,4 C 18,0 C 14,5 km/h (3 Bft) 100,00 %
29.09.2019 12:08 19,6 C 13,9 C 31,7 C 63 % 1011,8 hPa 0,0 l/m 7,8 km/h (2 Bft) O 88 2 min 0,000 mm 3,0 UV-I 569 W/m 12,4 C 19,0 C 11,3 km/h (2 Bft) 100,00 %
29.09.2019 12:10 19,5 C 13,9 C 32,2 C 63 % 1011,8 hPa 0,0 l/m 6,2 km/h (2 Bft) N-NO 32 2 min 0,000 mm 3,0 UV-I 570 W/m 12,3 C 19,5 C 11,3 km/h (2 Bft) 100,00 %
29.09.2019 12:12 19,5 C 13,9 C 31,7 C 62 % 1011,7 hPa 0,0 l/m 5,6 km/h (1 Bft) N-NW 346 2 min 0,000 mm 3,1 UV-I 570 W/m 12,0 C 19,5 C 8,0 km/h (2 Bft) 100,00 %
29.09.2019 12:14 19,4 C 13,9 C 31,7 C 62 % 1011,7 hPa 0,0 l/m 4,5 km/h (1 Bft) NO 46 2 min 0,000 mm 3,1 UV-I 570 W/m 11,9 C 19,4 C 6,4 km/h (2 Bft) 100,00 %
29.09.2019 12:16 19,4 C 13,9 C 32,2 C 61 % 1011,7 hPa 0,0 l/m 6,0 km/h (2 Bft) O 95 2 min 0,000 mm 3,1 UV-I 572 W/m 11,7 C 19,4 C 9,7 km/h (2 Bft) 100,00 %
29.09.2019 12:18 19,4 C 13,9 C 32,2 C 62 % 1011,6 hPa 0,0 l/m 5,1 km/h (1 Bft) O-SO 123 2 min 0,000 mm 3,1 UV-I 543 W/m 11,9 C 19,4 C 9,7 km/h (2 Bft) 97,37 %
29.09.2019 12:20 19,6 C 13,9 C 32,8 C 61 % 1011,6 hPa 0,0 l/m 3,5 km/h (1 Bft) O-NO 61 2 min 0,000 mm 2,9 UV-I 575 W/m 11,9 C 19,6 C 6,4 km/h (2 Bft) 100,00 %
29.09.2019 12:22 19,7 C 13,9 C 32,8 C 61 % 1011,6 hPa 0,0 l/m 3,2 km/h (1 Bft) O-NO 76 2 min 0,000 mm 3,1 UV-I 577 W/m 12,0 C 19,7 C 4,8 km/h (1 Bft) 100,00 %
29.09.2019 12:24 19,7 C 13,9 C 32,2 C 60 % 1011,6 hPa 0,0 l/m 5,3 km/h (1 Bft) O-NO 60 2 min 0,000 mm 3,1 UV-I 577 W/m 11,7 C 19,7 C 8,0 km/h (2 Bft) 97,87 %
29.09.2019 12:26 19,6 C 13,9 C 30,6 C 60 % 1011,5 hPa 0,0 l/m 3,4 km/h (1 Bft) O-NO 71 2 min 0,000 mm 3,1 UV-I 577 W/m 11,6 C 19,6 C 4,8 km/h (1 Bft) 100,00 %
29.09.2019 12:28 19,4 C 13,9 C 31,7 C 61 % 1011,5 hPa 0,0 l/m 1,2 km/h (1 Bft) O-NO 57 2 min 0,000 mm 3,1 UV-I 578 W/m 11,7 C 19,4 C 4,8 km/h (1 Bft) 97,87 %
29.09.2019 12:30 19,6 C 13,9 C 32,8 C 61 % 1011,5 hPa 0,0 l/m 4,0 km/h (1 Bft) O-NO 78 2 min 0,000 mm 3,1 UV-I 579 W/m 11,9 C 19,6 C 8,0 km/h (2 Bft) 97,87 %
29.09.2019 12:32 19,7 C 13,9 C 32,2 C 60 % 1011,5 hPa 0,0 l/m 5,6 km/h (1 Bft) NO 36 2 min 0,000 mm 3,1 UV-I 578 W/m 11,7 C 19,7 C 12,9 km/h (3 Bft) 97,87 %
29.09.2019 12:34 19,7 C 13,9 C 32,8 C 62 % 1011,4 hPa 0,0 l/m 5,1 km/h (1 Bft) O-NO 63 2 min 0,000 mm 3,1 UV-I 580 W/m 12,2 C 19,7 C 12,9 km/h (3 Bft) 97,87 %
29.09.2019 12:36 19,7 C 13,9 C 32,2 C 61 % 1011,3 hPa 0,0 l/m 6,4 km/h (2 Bft) NO 51 2 min 0,000 mm 3,2 UV-I 581 W/m 12,0 C 19,7 C 11,3 km/h (2 Bft) 97,22 %
29.09.2019 12:38 19,8 C 13,9 C 31,7 C 63 % 1011,3 hPa 0,0 l/m 6,7 km/h (2 Bft) O-NO 63 2 min 0,000 mm 3,2 UV-I 581 W/m 12,5 C 19,7 C 9,7 km/h (2 Bft) 92,00 %
29.09.2019 12:40 19,8 C 13,9 C 32,2 C 60 % 1011,3 hPa 0,0 l/m 3,2 km/h (1 Bft) O 88 2 min 0,000 mm 3,2 UV-I 582 W/m 11,8 C 19,8 C 6,4 km/h (2 Bft) 95,74 %
29.09.2019 12:42 19,8 C 13,9 C 32,2 C 62 % 1011,3 hPa 0,0 l/m 6,2 km/h (2 Bft) NO 36 2 min 0,000 mm 3,2 UV-I 583 W/m 12,3 C 19,8 C 11,3 km/h (2 Bft) 95,74 %
29.09.2019 12:44 19,8 C 13,9 C 31,1 C 60 % 1011,3 hPa 0,0 l/m 7,7 km/h (2 Bft) NO 49 2 min 0,000 mm 3,2 UV-I 583 W/m 11,8 C 19,3 C 11,3 km/h (2 Bft) 96,00 %
29.09.2019 12:46 19,9 C 13,9 C 31,7 C 60 % 1011,2 hPa 0,0 l/m 4,8 km/h (1 Bft) NO 34 2 min 0,000 mm 3,2 UV-I 582 W/m 11,9 C 19,9 C 8,0 km/h (2 Bft) 91,49 %
29.09.2019 12:48 19,9 C 13,9 C 31,7 C 61 % 1011,2 hPa 0,0 l/m 6,8 km/h (2 Bft) O 96 2 min 0,000 mm 3,2 UV-I 582 W/m 12,2 C 19,7 C 11,3 km/h (2 Bft) 93,62 %
29.09.2019 12:50 20,1 C 13,9 C 32,2 C 62 % 1011,1 hPa 0,0 l/m 5,2 km/h (1 Bft) NO 38 2 min 0,000 mm 3,2 UV-I 583 W/m 12,6 C 20,1 C 9,7 km/h (2 Bft) 95,74 %
29.09.2019 12:52 20,1 C 13,9 C 32,2 C 62 % 1011,0 hPa 0,0 l/m 5,9 km/h (2 Bft) O-NO 78 2 min 0,000 mm 3,2 UV-I 584 W/m 12,6 C 20,1 C 11,3 km/h (2 Bft) 93,62 %
29.09.2019 12:54 20,1 C 13,9 C 32,2 C 61 % 1011,0 hPa 0,0 l/m 6,7 km/h (2 Bft) NO 56 2 min 0,000 mm 3,2 UV-I 582 W/m 12,3 C 20,0 C 11,3 km/h (2 Bft) 96,00 %
29.09.2019 12:56 20,0 C 13,9 C 31,7 C 59 % 1011,0 hPa 0,0 l/m 4,9 km/h (1 Bft) NO 40 2 min 0,000 mm 3,2 UV-I 581 W/m 11,7 C 20,0 C 11,3 km/h (2 Bft) 95,74 %
29.09.2019 12:58 19,9 C 13,9 C 31,1 C 59 % 1011,0 hPa 0,0 l/m 4,2 km/h (1 Bft) O-NO 61 2 min 0,000 mm 3,2 UV-I 582 W/m 11,6 C 19,9 C 8,0 km/h (2 Bft) 95,74 %
29.09.2019 13:00 19,8 C 13,9 C 31,7 C 58 % 1010,9 hPa 0,0 l/m 3,7 km/h (1 Bft) NO 40 2 min 0,356 mm 3,2 UV-I 581 W/m 11,3 C 19,8 C 8,0 km/h (2 Bft) 95,74 %
29.09.2019 13:02 19,9 C 13,9 C 31,1 C 60 % 1010,9 hPa 0,0 l/m 5,9 km/h (2 Bft) N 9 2 min 0,000 mm 3,2 UV-I 557 W/m 11,9 C 19,9 C 8,0 km/h (2 Bft) 97,37 %
29.09.2019 13:04 19,9 C 13,9 C 31,1 C 60 % 1010,8 hPa 0,0 l/m 5,3 km/h (1 Bft) N-NO 19 2 min 0,000 mm 3,2 UV-I 561 W/m 11,9 C 19,9 C 8,0 km/h (2 Bft) 97,87 %
29.09.2019 13:06 19,9 C 13,9 C 31,1 C 60 % 1010,8 hPa 0,0 l/m 2,9 km/h (1 Bft) NO 53 2 min 0,000 mm 3,2 UV-I 580 W/m 11,9 C 19,9 C 4,8 km/h (1 Bft) 100,00 %
29.09.2019 13:08 20,1 C 13,9 C 31,7 C 60 % 1010,7 hPa 0,0 l/m 3,4 km/h (1 Bft) NO 55 2 min 0,000 mm 3,2 UV-I 581 W/m 12,1 C 20,1 C 8,0 km/h (2 Bft) 97,87 %
29.09.2019 13:10 20,3 C 13,9 C 32,2 C 61 % 1010,7 hPa 0,0 l/m 8,0 km/h (2 Bft) N-NO 26 2 min 0,000 mm 3,2 UV-I 578 W/m 12,5 C 19,7 C 11,3 km/h (2 Bft) 97,87 %
29.09.2019 13:12 20,5 C 13,9 C 31,7 C 61 % 1010,6 hPa 0,0 l/m 8,0 km/h (2 Bft) N-NO 24 2 min 0,000 mm 3,2 UV-I 578 W/m 12,7 C 19,9 C 14,5 km/h (3 Bft) 100,00 %
29.09.2019 13:14 20,6 C 13,9 C 32,2 C 59 % 1010,5 hPa 0,0 l/m 8,2 km/h (2 Bft) NO 56 2 min 0,000 mm 3,2 UV-I 578 W/m 12,3 C 19,9 C 14,5 km/h (3 Bft) 97,87 %
29.09.2019 13:16 20,6 C 13,9 C 32,2 C 59 % 1010,5 hPa 0,0 l/m 7,1 km/h (2 Bft) NO 40 2 min 0,000 mm 3,2 UV-I 578 W/m 12,3 C 20,3 C 9,7 km/h (2 Bft) 96,00 %
29.09.2019 13:18 20,4 C 13,9 C 32,2 C 59 % 1010,4 hPa 0,0 l/m 4,6 km/h (1 Bft) O 89 2 min 0,000 mm 3,1 UV-I 575 W/m 12,1 C 20,4 C 8,0 km/h (2 Bft) 97,87 %
29.09.2019 13:20 20,4 C 13,9 C 31,7 C 59 % 1010,4 hPa 0,0 l/m 6,9 km/h (2 Bft) O 80 2 min 0,000 mm 3,1 UV-I 573 W/m 12,1 C 20,2 C 12,9 km/h (3 Bft) 93,62 %
29.09.2019 13:22 20,5 C 13,9 C 31,7 C 60 % 1010,4 hPa 0,0 l/m 9,2 km/h (2 Bft) O 80 2 min 0,000 mm 3,1 UV-I 573 W/m 12,5 C 19,5 C 14,5 km/h (3 Bft) 100,00 %
29.09.2019 13:24 20,5 C 13,9 C 31,1 C 60 % 1010,3 hPa 0,0 l/m 6,7 km/h (2 Bft) O 90 2 min 0,000 mm 3,1 UV-I 573 W/m 12,5 C 20,4 C 9,7 km/h (2 Bft) 100,00 %
29.09.2019 13:26 20,5 C 13,9 C 30,6 C 58 % 1010,3 hPa 0,0 l/m 8,7 km/h (2 Bft) O-NO 65 2 min 0,000 mm 3,1 UV-I 573 W/m 11,9 C 19,6 C 14,5 km/h (3 Bft) 98,04 %
29.09.2019 13:28 20,4 C 13,9 C 28,9 C 59 % 1010,3 hPa 0,0 l/m 7,9 km/h (2 Bft) O-NO 67 2 min 0,000 mm 3,1 UV-I 571 W/m 12,1 C 19,8 C 14,5 km/h (3 Bft) 100,00 %
29.09.2019 13:30 20,3 C 13,9 C 28,3 C 58 % 1010,3 hPa 0,0 l/m 5,8 km/h (2 Bft) N-NO 28 2 min 0,000 mm 3,1 UV-I 571 W/m 11,8 C 20,3 C 8,0 km/h (2 Bft) 100,00 %
29.09.2019 13:32 20,4 C 13,9 C 28,3 C 58 % 1010,2 hPa 0,0 l/m 4,8 km/h (1 Bft) O 84 2 min 0,000 mm 3,1 UV-I 571 W/m 11,9 C 20,4 C 8,0 km/h (2 Bft) 97,87 %
29.09.2019 13:34 20,3 C 13,9 C 28,3 C 58 % 1010,1 hPa 0,0 l/m 4,5 km/h (1 Bft) NO 54 2 min 0,000 mm 3,1 UV-I 570 W/m 11,8 C 20,3 C 6,4 km/h (2 Bft) 100,00 %
29.09.2019 13:36 20,3 C 13,9 C 28,9 C 58 % 1010,1 hPa 0,0 l/m 5,7 km/h (1 Bft) NO 56 2 min 0,000 mm 3,1 UV-I 568 W/m 11,8 C 20,3 C 9,7 km/h (2 Bft) 100,00 %
29.09.2019 13:38 20,3 C 13,9 C 27,8 C 59 % 1010,0 hPa 0,0 l/m 6,5 km/h (2 Bft) NO 40 2 min 0,000 mm 3,1 UV-I 567 W/m 12,0 C 20,3 C 12,9 km/h (3 Bft) 97,87 %
29.09.2019 13:40 20,4 C 13,9 C 26,1 C 59 % 1010,0 hPa 0,0 l/m 7,0 km/h (2 Bft) N-NO 26 2 min 0,000 mm 3,1 UV-I 565 W/m 12,1 C 20,2 C 12,9 km/h (3 Bft) 100,00 %
29.09.2019 13:42 20,6 C 13,9 C 25,6 C 60 % 1009,9 hPa 0,0 l/m 8,9 km/h (2 Bft) NO 38 2 min 0,000 mm 3,0 UV-I 563 W/m 12,6 C 19,7 C 16,1 km/h (3 Bft) 100,00 %
29.09.2019 13:44 20,8 C 13,9 C 24,4 C 59 % 1009,9 hPa 0,0 l/m 7,8 km/h (2 Bft) O-NO 69 2 min 0,000 mm 3,0 UV-I 562 W/m 12,5 C 20,3 C 14,5 km/h (3 Bft) 97,87 %
29.09.2019 13:46 20,8 C 13,9 C 24,4 C 57 % 1009,9 hPa 0,0 l/m 8,1 km/h (2 Bft) O 83 2 min 0,000 mm 3,0 UV-I 561 W/m 12,0 C 20,2 C 12,9 km/h (3 Bft) 95,24 %
29.09.2019 13:48 20,8 C 13,9 C 23,9 C 56 % 1009,9 hPa 0,0 l/m 7,8 km/h (2 Bft) NO 41 2 min 0,000 mm 3,0 UV-I 558 W/m 11,7 C 20,3 C 14,5 km/h (3 Bft) 100,00 %
29.09.2019 13:50 20,7 C 13,9 C 23,9 C 57 % 1009,9 hPa 0,0 l/m 6,4 km/h (2 Bft) N 350 2 min 0,000 mm 3,0 UV-I 556 W/m 11,9 C 20,7 C 11,3 km/h (2 Bft) 100,00 %
29.09.2019 13:52 20,6 C 13,9 C 23,9 C 58 % 1009,9 hPa 0,0 l/m 4,2 km/h (1 Bft) N-NO 21 2 min 0,000 mm 3,0 UV-I 554 W/m 12,0 C 20,6 C 8,0 km/h (2 Bft) 98,11 %
29.09.2019 13:54 20,4 C 13,9 C 23,3 C 57 % 1009,8 hPa 0,0 l/m 3,7 km/h (1 Bft) N 355 2 min 0,000 mm 2,9 UV-I 553 W/m 11,6 C 20,4 C 8,0 km/h (2 Bft) 97,87 %
29.09.2019 13:56 20,4 C 13,9 C 22,8 C 57 % 1009,7 hPa 0,0 l/m 5,0 km/h (1 Bft) NW 305 2 min 0,000 mm 2,9 UV-I 550 W/m 11,6 C 20,4 C 8,0 km/h (2 Bft) 97,87 %
29.09.2019 13:58 20,5 C 13,9 C 22,8 C 59 % 1009,8 hPa 0,0 l/m 5,0 km/h (1 Bft) N-NO 15 2 min 0,000 mm 2,9 UV-I 550 W/m 12,2 C 20,5 C 12,9 km/h (3 Bft) 100,00 %
29.09.2019 14:00 20,7 C 13,9 C 23,3 C 60 % 1009,8 hPa 0,0 l/m 8,2 km/h (2 Bft) NO 38 2 min 0,000 mm 2,9 UV-I 549 W/m 12,7 C 20,0 C 11,3 km/h (2 Bft) 97,87 %
29.09.2019 14:02 20,7 C 13,9 C 23,3 C 59 % 1009,7 hPa 0,0 l/m 3,9 km/h (1 Bft) O 88 2 min 0,355 mm 2,9 UV-I 547 W/m 12,4 C 20,7 C 8,0 km/h (2 Bft) 100,00 %
29.09.2019 14:04 20,9 C 13,9 C 23,3 C 61 % 1009,7 hPa 0,0 l/m 8,9 km/h (2 Bft) NO 51 2 min 0,000 mm 2,9 UV-I 513 W/m 13,1 C 20,0 C 12,9 km/h (3 Bft) 97,87 %
29.09.2019 14:06 21,1 C 13,9 C 22,8 C 59 % 1009,7 hPa 0,0 l/m 7,4 km/h (2 Bft) O 85 2 min 0,000 mm 2,8 UV-I 542 W/m 12,8 C 20,7 C 11,3 km/h (2 Bft) 100,00 %
29.09.2019 14:08 21,1 C 13,9 C 22,8 C 57 % 1009,7 hPa 0,0 l/m 4,3 km/h (1 Bft) SO 144 2 min 0,000 mm 2,8 UV-I 541 W/m 12,2 C 21,1 C 6,4 km/h (2 Bft) 100,00 %
29.09.2019 14:10 20,9 C 13,9 C 22,2 C 57 % 1009,6 hPa 0,0 l/m 3,0 km/h (1 Bft) N-NO 21 2 min 0,000 mm 2,8 UV-I 537 W/m 12,1 C 20,9 C 6,4 km/h (2 Bft) 97,87 %
29.09.2019 14:12 20,9 C 13,9 C 22,2 C 60 % 1009,6 hPa 0,0 l/m 2,5 km/h (1 Bft) N-NO 22 2 min 0,000 mm 2,8 UV-I 533 W/m 12,8 C 20,9 C 4,8 km/h (1 Bft) 98,00 %
29.09.2019 14:14 20,8 C 13,9 C 22,8 C 59 % 1009,5 hPa 0,0 l/m 2,0 km/h (1 Bft) O-SO 117 2 min 0,000 mm 2,7 UV-I 531 W/m 12,5 C 20,8 C 4,8 km/h (1 Bft) 97,37 %
29.09.2019 14:16 20,9 C 13,9 C 22,8 C 61 % 1009,5 hPa 0,0 l/m 5,4 km/h (1 Bft) O-NO 74 2 min 0,000 mm 2,7 UV-I 530 W/m 13,1 C 20,9 C 6,4 km/h (2 Bft) 95,74 %
29.09.2019 14:18 20,9 C 13,9 C 22,2 C 58 % 1009,4 hPa 0,0 l/m 3,7 km/h (1 Bft) O-NO 78 2 min 0,000 mm 2,7 UV-I 528 W/m 12,3 C 20,9 C 6,4 km/h (2 Bft) 98,00 %
29.09.2019 14:20 21,0 C 13,9 C 22,2 C 60 % 1009,4 hPa 0,0 l/m 7,4 km/h (2 Bft) O-NO 67 2 min 0,000 mm 2,7 UV-I 527 W/m 12,9 C 20,6 C 11,3 km/h (2 Bft) 95,74 %
29.09.2019 14:22 21,1 C 13,9 C 22,2 C 60 % 1009,4 hPa 0,0 l/m 7,8 km/h (2 Bft) N 10 2 min 0,000 mm 2,7 UV-I 525 W/m 13,0 C 20,6 C 12,9 km/h (3 Bft) 94,00 %
29.09.2019 14:24 21,2 C 13,9 C 21,7 C 60 % 1009,4 hPa 0,0 l/m 6,8 km/h (2 Bft) N-NO 28 2 min 0,000 mm 2,6 UV-I 521 W/m 13,1 C 21,1 C 11,3 km/h (2 Bft) 96,00 %
29.09.2019 14:26 21,4 C 13,9 C 21,7 C 59 % 1009,4 hPa 0,0 l/m 9,8 km/h (2 Bft) N-NW 331 2 min 0,000 mm 2,6 UV-I 520 W/m 13,0 C 20,2 C 14,5 km/h (3 Bft) 95,83 %
29.09.2019 14:28 21,4 C 13,9 C 21,7 C 58 % 1009,3 hPa 0,0 l/m 7,4 km/h (2 Bft) N-NO 20 2 min 0,000 mm 2,6 UV-I 517 W/m 12,8 C 21,0 C 12,9 km/h (3 Bft) 94,29 %
29.09.2019 14:30 21,3 C 13,9 C 22,2 C 58 % 1009,2 hPa 0,0 l/m 6,3 km/h (2 Bft) NO 50 2 min 0,000 mm 2,6 UV-I 514 W/m 12,7 C 21,3 C 11,3 km/h (2 Bft) 94,00 %
29.09.2019 14:32 21,2 C 13,9 C 21,7 C 60 % 1009,2 hPa 0,0 l/m 4,5 km/h (1 Bft) SO 130 2 min 0,000 mm 2,5 UV-I 512 W/m 13,1 C 21,2 C 9,7 km/h (2 Bft) 87,23 %
29.09.2019 14:34 21,2 C 13,9 C 21,7 C 58 % 1009,2 hPa 0,0 l/m 5,4 km/h (1 Bft) O-SO 120 2 min 0,000 mm 2,4 UV-I 508 W/m 12,6 C 21,2 C 8,0 km/h (2 Bft) 95,74 %
29.09.2019 14:36 21,1 C 13,9 C 21,1 C 59 % 1009,3 hPa 0,0 l/m 7,0 km/h (2 Bft) O-NO 75 2 min 0,000 mm 2,5 UV-I 505 W/m 12,8 C 20,9 C 11,3 km/h (2 Bft) 96,00 %
29.09.2019 14:38 21,1 C 13,9 C 21,1 C 58 % 1009,2 hPa 0,0 l/m 6,5 km/h (2 Bft) O 96 2 min 0,000 mm 2,4 UV-I 503 W/m 12,5 C 21,1 C 11,3 km/h (2 Bft) 95,74 %
29.09.2019 14:40 21,1 C 13,9 C 21,1 C 58 % 1009,1 hPa 0,0 l/m 6,6 km/h (2 Bft) O-NO 71 2 min 0,000 mm 2,4 UV-I 499 W/m 12,5 C 21,0 C 11,3 km/h (2 Bft) 95,74 %
29.09.2019 14:42 21,2 C 13,9 C 21,1 C 58 % 1009,1 hPa 0,0 l/m 4,9 km/h (1 Bft) O-NO 71 2 min 0,000 mm 2,4 UV-I 496 W/m 12,6 C 21,2 C 6,4 km/h (2 Bft) 95,74 %
29.09.2019 14:44 21,3 C 13,9 C 21,1 C 58 % 1009,1 hPa 0,0 l/m 4,5 km/h (1 Bft) O-SO 122 2 min 0,000 mm 2,4 UV-I 494 W/m 12,7 C 21,3 C 6,4 km/h (2 Bft) 95,74 %
29.09.2019 14:46 21,3 C 13,9 C 21,1 C 57 % 1009,0 hPa 0,0 l/m 2,7 km/h (1 Bft) O-NO 57 2 min 0,000 mm 2,4 UV-I 492 W/m 12,4 C 21,3 C 6,4 km/h (2 Bft) 94,00 %
29.09.2019 14:48 21,3 C 13,9 C 21,1 C 58 % 1009,0 hPa 0,0 l/m 6,0 km/h (2 Bft) O-SO 113 2 min 0,000 mm 2,3 UV-I 491 W/m 12,7 C 21,3 C 11,3 km/h (2 Bft) 91,49 %
29.09.2019 14:50 21,4 C 13,9 C 21,1 C 59 % 1008,9 hPa 0,0 l/m 3,3 km/h (1 Bft) O-NO 76 2 min 0,000 mm 2,3 UV-I 487 W/m 13,0 C 21,4 C 6,4 km/h (2 Bft) 97,37 %
29.09.2019 14:52 21,5 C 13,9 C 21,1 C 58 % 1008,9 hPa 0,0 l/m 6,9 km/h (2 Bft) O-SO 119 2 min 0,000 mm 2,3 UV-I 485 W/m 12,9 C 21,3 C 11,3 km/h (2 Bft) 95,74 %
29.09.2019 14:54 21,6 C 13,9 C 21,1 C 56 % 1008,8 hPa 0,0 l/m 7,1 km/h (2 Bft) O 88 2 min 0,000 mm 2,3 UV-I 482 W/m 12,4 C 21,3 C 11,3 km/h (2 Bft) 95,74 %
29.09.2019 14:56 21,4 C 13,9 C 21,1 C 57 % 1008,9 hPa 0,0 l/m 2,6 km/h (1 Bft) O 101 2 min 0,000 mm 2,2 UV-I 479 W/m 12,5 C 21,4 C 4,8 km/h (1 Bft) 96,00 %
29.09.2019 14:58 21,3 C 13,9 C 21,1 C 57 % 1008,8 hPa 0,0 l/m 4,9 km/h (1 Bft) N-NO 33 2 min 0,000 mm 2,2 UV-I 475 W/m 12,4 C 21,3 C 8,0 km/h (2 Bft) 97,87 %
29.09.2019 15:00 21,3 C 13,9 C 21,1 C 59 % 1008,7 hPa 0,0 l/m 6,1 km/h (2 Bft) O-NO 59 2 min 0,330 mm 2,2 UV-I 472 W/m 13,0 C 21,3 C 11,3 km/h (2 Bft) 98,00 %
29.09.2019 15:02 21,4 C 13,9 C 21,1 C 59 % 1008,7 hPa 0,0 l/m 3,7 km/h (1 Bft) O 101 2 min 0,000 mm 2,2 UV-I 469 W/m 13,0 C 21,4 C 6,4 km/h (2 Bft) 97,87 %
29.09.2019 15:04 21,4 C 13,9 C 21,1 C 59 % 1008,7 hPa 0,0 l/m 7,9 km/h (2 Bft) O-SO 104 2 min 0,000 mm 2,1 UV-I 464 W/m 13,0 C 20,9 C 11,3 km/h (2 Bft) 97,87 %
29.09.2019 15:06 21,5 C 13,9 C 21,1 C 57 % 1008,6 hPa 0,0 l/m 3,5 km/h (1 Bft) O 84 2 min 0,000 mm 2,1 UV-I 461 W/m 12,6 C 21,5 C 4,8 km/h (1 Bft) 95,83 %
29.09.2019 15:08 21,5 C 13,9 C 21,1 C 57 % 1008,7 hPa 0,0 l/m 2,5 km/h (1 Bft) O 93 2 min 0,000 mm 2,1 UV-I 458 W/m 12,6 C 21,5 C 4,8 km/h (1 Bft) 97,87 %
29.09.2019 15:10 21,4 C 13,9 C 21,1 C 58 % 1008,6 hPa 0,0 l/m 6,0 km/h (2 Bft) NO 46 2 min 0,000 mm 2,0 UV-I 454 W/m 12,8 C 21,4 C 12,9 km/h (3 Bft) 96,00 %
29.09.2019 15:12 21,5 C 13,9 C 21,1 C 57 % 1008,5 hPa 0,0 l/m 3,5 km/h (1 Bft) NO 41 2 min 0,000 mm 2,0 UV-I 452 W/m 12,6 C 21,5 C 6,4 km/h (2 Bft) 97,56 %
29.09.2019 15:14 21,6 C 13,9 C 21,1 C 59 % 1008,5 hPa 0,0 l/m 7,3 km/h (2 Bft) O-NO 73 2 min 0,000 mm 2,0 UV-I 447 W/m 13,2 C 21,3 C 9,7 km/h (2 Bft) 97,87 %
29.09.2019 15:16 21,6 C 13,9 C 21,1 C 59 % 1008,5 hPa 0,0 l/m 6,0 km/h (2 Bft) NO 43 2 min 0,000 mm 1,9 UV-I 443 W/m 13,2 C 21,6 C 9,7 km/h (2 Bft) 95,74 %
29.09.2019 15:18 21,7 C 13,9 C 21,1 C 59 % 1008,5 hPa 0,0 l/m 5,0 km/h (1 Bft) N-NO 22 2 min 0,000 mm 1,9 UV-I 439 W/m 13,3 C 21,7 C 8,0 km/h (2 Bft) 97,87 %
29.09.2019 15:20 21,8 C 13,9 C 21,1 C 59 % 1008,4 hPa 0,0 l/m 6,5 km/h (2 Bft) NO 56 2 min 0,000 mm 1,9 UV-I 437 W/m 13,4 C 21,8 C 11,3 km/h (2 Bft) 95,74 %
29.09.2019 15:22 21,8 C 13,9 C 21,1 C 57 % 1008,4 hPa 0,0 l/m 10,8 km/h (2 Bft) O-NO 68 2 min 0,000 mm 1,9 UV-I 434 W/m 12,9 C 20,4 C 14,5 km/h (3 Bft) 95,74 %
29.09.2019 15:24 21,7 C 13,9 C 21,1 C 57 % 1008,3 hPa 0,0 l/m 8,4 km/h (2 Bft) O 80 2 min 0,000 mm 1,8 UV-I 431 W/m 12,8 C 21,0 C 11,3 km/h (2 Bft) 95,74 %
29.09.2019 15:26 21,6 C 13,9 C 20,6 C 59 % 1008,3 hPa 0,0 l/m 5,7 km/h (1 Bft) O 80 2 min 0,000 mm 1,8 UV-I 426 W/m 13,2 C 21,6 C 9,7 km/h (2 Bft) 98,00 %
29.09.2019 15:28 21,5 C 13,9 C 21,1 C 58 % 1008,2 hPa 0,0 l/m 4,4 km/h (1 Bft) SO 144 2 min 0,000 mm 1,8 UV-I 423 W/m 12,9 C 21,5 C 8,0 km/h (2 Bft) 97,14 %
29.09.2019 15:30 21,4 C 13,9 C 20,6 C 59 % 1008,2 hPa 0,0 l/m 5,5 km/h (1 Bft) N-NO 30 2 min 0,000 mm 1,7 UV-I 419 W/m 13,0 C 21,4 C 9,7 km/h (2 Bft) 98,00 %
29.09.2019 15:32 21,4 C 13,9 C 20,6 C 59 % 1008,1 hPa 0,0 l/m 6,0 km/h (2 Bft) NO 37 2 min 0,000 mm 1,7 UV-I 416 W/m 13,0 C 21,4 C 9,7 km/h (2 Bft) 97,87 %
29.09.2019 15:34 21,6 C 13,9 C 21,1 C 59 % 1008,1 hPa 0,0 l/m 7,7 km/h (2 Bft) O 91 2 min 0,000 mm 1,7 UV-I 412 W/m 13,2 C 21,1 C 14,5 km/h (3 Bft) 95,74 %
29.09.2019 15:36 21,6 C 13,9 C 21,1 C 59 % 1008,1 hPa 0,0 l/m 5,9 km/h (2 Bft) O-NO 68 2 min 0,000 mm 1,6 UV-I 411 W/m 13,2 C 21,6 C 11,3 km/h (2 Bft) 95,74 %
29.09.2019 15:38 21,7 C 13,9 C 21,1 C 58 % 1008,1 hPa 0,0 l/m 6,2 km/h (2 Bft) NO 51 2 min 0,000 mm 1,6 UV-I 382 W/m 13,1 C 21,7 C 11,3 km/h (2 Bft) 96,23 %
29.09.2019 15:40 21,7 C 13,9 C 21,1 C 57 % 1008,0 hPa 0,0 l/m 8,4 km/h (2 Bft) O-SO 123 2 min 0,000 mm 1,6 UV-I 394 W/m 12,8 C 21,0 C 14,5 km/h (3 Bft) 95,74 %
29.09.2019 15:42 21,7 C 13,9 C 21,1 C 57 % 1007,9 hPa 0,0 l/m 9,0 km/h (2 Bft) NO 53 2 min 0,000 mm 1,6 UV-I 399 W/m 12,8 C 20,8 C 12,9 km/h (3 Bft) 97,92 %
29.09.2019 15:44 21,7 C 13,9 C 21,1 C 58 % 1007,9 hPa 0,0 l/m 2,2 km/h (1 Bft) O-NO 78 2 min 0,000 mm 1,5 UV-I 406 W/m 13,1 C 21,7 C 4,8 km/h (1 Bft) 95,74 %
29.09.2019 15:46 21,8 C 13,9 C 21,1 C 58 % 1007,9 hPa 0,0 l/m 3,7 km/h (1 Bft) O-SO 110 2 min 0,000 mm 1,5 UV-I 403 W/m 13,2 C 21,8 C 8,0 km/h (2 Bft) 93,62 %
29.09.2019 15:48 21,8 C 13,9 C 21,1 C 56 % 1007,9 hPa 0,0 l/m 6,8 km/h (2 Bft) O 95 2 min 0,000 mm 1,5 UV-I 394 W/m 12,6 C 21,7 C 11,3 km/h (2 Bft) 93,62 %
29.09.2019 15:50 21,8 C 13,9 C 21,1 C 56 % 1007,8 hPa 0,0 l/m 8,4 km/h (2 Bft) O-NO 71 2 min 0,000 mm 1,5 UV-I 394 W/m 12,6 C 21,1 C 11,3 km/h (2 Bft) 97,37 %
29.09.2019 15:52 21,8 C 13,9 C 21,1 C 57 % 1007,8 hPa 0,0 l/m 6,0 km/h (2 Bft) O-SO 103 2 min 0,000 mm 1,4 UV-I 387 W/m 12,9 C 21,8 C 9,7 km/h (2 Bft) 97,87 %
29.09.2019 15:54 21,9 C 13,9 C 21,7 C 57 % 1007,8 hPa 0,0 l/m 6,5 km/h (2 Bft) SO 136 2 min 0,000 mm 1,4 UV-I 386 W/m 13,0 C 21,9 C 9,7 km/h (2 Bft) 95,74 %
29.09.2019 15:56 21,8 C 13,9 C 21,1 C 58 % 1007,7 hPa 0,0 l/m 4,9 km/h (1 Bft) O-SO 103 2 min 0,000 mm 1,3 UV-I 379 W/m 13,2 C 21,8 C 9,7 km/h (2 Bft) 95,74 %
29.09.2019 15:58 21,8 C 13,9 C 21,1 C 57 % 1007,6 hPa 0,0 l/m 6,1 km/h (2 Bft) O-SO 103 0 min 0,000 mm 1,2 UV-I 220 W/m 12,9 C 21,8 C 11,3 km/h (2 Bft) 95,74 %
29.09.2019 16:00 21,7 C 13,9 C 21,1 C 58 % 1007,6 hPa 0,0 l/m 7,3 km/h (2 Bft) SO 126 0 min 0,000 mm 1,2 UV-I 201 W/m 13,1 C 21,4 C 11,3 km/h (2 Bft) 97,87 %
29.09.2019 16:02 21,6 C 13,9 C 21,1 C 58 % 1007,6 hPa 0,0 l/m 2,8 km/h (1 Bft) S 171 2 min 0,280 mm 1,2 UV-I 319 W/m 13,0 C 21,6 C 6,4 km/h (2 Bft) 93,62 %
29.09.2019 16:04 21,6 C 13,9 C 21,1 C 59 % 1007,6 hPa 0,0 l/m 4,3 km/h (1 Bft) O-NO 61 2 min 0,000 mm 1,2 UV-I 387 W/m 13,2 C 21,6 C 9,7 km/h (2 Bft) 97,87 %
29.09.2019 16:06 21,7 C 13,9 C 21,1 C 59 % 1007,6 hPa 0,0 l/m 8,2 km/h (2 Bft) O-NO 73 2 min 0,000 mm 1,2 UV-I 384 W/m 13,3 C 21,1 C 11,3 km/h (2 Bft) 97,87 %
29.09.2019 16:08 21,7 C 13,9 C 21,7 C 58 % 1007,5 hPa 0,0 l/m 7,3 km/h (2 Bft) O 84 2 min 0,000 mm 1,2 UV-I 382 W/m 13,1 C 21,4 C 11,3 km/h (2 Bft) 95,74 %
29.09.2019 16:10 21,8 C 13,9 C 21,7 C 59 % 1007,5 hPa 0,0 l/m 7,3 km/h (2 Bft) NO 49 2 min 0,000 mm 1,2 UV-I 383 W/m 13,4 C 21,5 C 11,3 km/h (2 Bft) 100,00 %
29.09.2019 16:12 21,8 C 13,9 C 21,7 C 58 % 1007,4 hPa 0,0 l/m 7,0 km/h (2 Bft) O 101 2 min 0,000 mm 1,2 UV-I 374 W/m 13,2 C 21,6 C 11,3 km/h (2 Bft) 92,11 %
29.09.2019 16:14 21,8 C 13,9 C 21,7 C 58 % 1007,5 hPa 0,0 l/m 5,5 km/h (1 Bft) O-NO 78 2 min 0,000 mm 1,1 UV-I 314 W/m 13,2 C 21,8 C 9,7 km/h (2 Bft) 100,00 %
29.09.2019 16:16 21,8 C 13,9 C 21,7 C 58 % 1007,4 hPa 0,0 l/m 2,4 km/h (1 Bft) O 80 2 min 0,000 mm 1,1 UV-I 350 W/m 13,2 C 21,8 C 4,8 km/h (1 Bft) 93,75 %
29.09.2019 16:18 21,7 C 13,9 C 21,7 C 59 % 1007,4 hPa 0,0 l/m 1,6 km/h (1 Bft) O 82 2 min 0,000 mm 1,1 UV-I 363 W/m 13,3 C 21,7 C 4,8 km/h (1 Bft) 95,74 %
29.09.2019 16:20 21,8 C 13,9 C 21,7 C 61 % 1007,2 hPa 0,0 l/m 5,1 km/h (1 Bft) O-NO 76 2 min 0,000 mm 1,1 UV-I 353 W/m 13,9 C 21,8 C 11,3 km/h (2 Bft) 96,00 %
29.09.2019 16:22 21,9 C 13,9 C 21,7 C 59 % 1007,2 hPa 0,0 l/m 6,9 km/h (2 Bft) O-NO 61 2 min 0,000 mm 1,0 UV-I 305 W/m 13,5 C 21,7 C 12,9 km/h (3 Bft) 98,11 %
29.09.2019 16:24 21,9 C 13,9 C 22,2 C 59 % 1007,2 hPa 0,0 l/m 6,8 km/h (2 Bft) NO 48 2 min 0,000 mm 1,0 UV-I 302 W/m 13,5 C 21,8 C 11,3 km/h (2 Bft) 95,74 %
29.09.2019 16:26 21,8 C 13,9 C 21,7 C 58 % 1007,1 hPa 0,0 l/m 5,8 km/h (2 Bft) O-NO 62 2 min 0,000 mm 0,9 UV-I 289 W/m 13,2 C 21,8 C 9,7 km/h (2 Bft) 97,37 %
29.09.2019 16:28 21,8 C 13,9 C 21,7 C 59 % 1007,1 hPa 0,0 l/m 4,7 km/h (1 Bft) NO 50 2 min 0,000 mm 0,9 UV-I 298 W/m 13,4 C 21,8 C 6,4 km/h (2 Bft) 97,87 %
29.09.2019 16:30 21,8 C 13,9 C 21,7 C 58 % 1007,1 hPa 0,0 l/m 9,9 km/h (2 Bft) O 90 2 min 0,000 mm 0,9 UV-I 285 W/m 13,2 C 20,7 C 12,9 km/h (3 Bft) 97,87 %
29.09.2019 16:32 21,8 C 13,9 C 21,7 C 59 % 1007,0 hPa 0,0 l/m 12,3 km/h (3 Bft) O 86 2 min 0,000 mm 0,8 UV-I 287 W/m 13,4 C 20,0 C 16,1 km/h (3 Bft) 95,74 %
29.09.2019 16:34 21,7 C 13,9 C 21,7 C 59 % 1006,9 hPa 0,0 l/m 6,6 km/h (2 Bft) O-SO 106 2 min 0,000 mm 0,8 UV-I 280 W/m 13,3 C 21,6 C 11,3 km/h (2 Bft) 98,00 %
29.09.2019 16:36 21,7 C 13,9 C 22,2 C 60 % 1006,9 hPa 0,0 l/m 6,0 km/h (2 Bft) O-SO 109 2 min 0,000 mm 0,8 UV-I 285 W/m 13,6 C 21,7 C 11,3 km/h (2 Bft) 95,74 %
29.09.2019 16:38 21,7 C 13,9 C 22,2 C 60 % 1006,9 hPa 0,0 l/m 6,0 km/h (2 Bft) O 94 2 min 0,000 mm 0,7 UV-I 247 W/m 13,6 C 21,7 C 9,7 km/h (2 Bft) 95,74 %
29.09.2019 16:40 21,7 C 13,9 C 22,2 C 59 % 1006,9 hPa 0,0 l/m 3,4 km/h (1 Bft) O-SO 102 2 min 0,000 mm 0,7 UV-I 193 W/m 13,3 C 21,7 C 6,4 km/h (2 Bft) 97,87 %
29.09.2019 16:42 21,6 C 13,9 C 22,2 C 60 % 1006,9 hPa 0,0 l/m 8,0 km/h (2 Bft) O 92 0 min 0,000 mm 0,7 UV-I 158 W/m 13,5 C 21,0 C 12,9 km/h (3 Bft) 97,87 %
29.09.2019 16:44 21,6 C 13,9 C 22,2 C 59 % 1006,9 hPa 0,0 l/m 7,9 km/h (2 Bft) O 101 0 min 0,000 mm 0,6 UV-I 156 W/m 13,2 C 21,1 C 11,3 km/h (2 Bft) 98,00 %
29.09.2019 16:46 21,4 C 13,9 C 21,7 C 61 % 1006,8 hPa 0,0 l/m 6,2 km/h (2 Bft) O-NO 75 0 min 0,000 mm 0,6 UV-I 155 W/m 13,6 C 21,4 C 11,3 km/h (2 Bft) 100,00 %
29.09.2019 16:48 21,3 C 13,9 C 21,7 C 60 % 1006,8 hPa 0,0 l/m 5,9 km/h (2 Bft) O 92 0 min 0,000 mm 0,6 UV-I 135 W/m 13,2 C 21,3 C 9,7 km/h (2 Bft) 100,00 %
29.09.2019 16:50 21,3 C 13,9 C 21,7 C 61 % 1006,8 hPa 0,0 l/m 6,7 km/h (2 Bft) O 95 0 min 0,000 mm 0,5 UV-I 144 W/m 13,5 C 21,2 C 11,3 km/h (2 Bft) 100,00 %
29.09.2019 16:52 21,3 C 13,9 C 21,1 C 62 % 1006,7 hPa 0,0 l/m 6,5 km/h (2 Bft) O-NO 72 0 min 0,000 mm 0,5 UV-I 149 W/m 13,7 C 21,3 C 9,7 km/h (2 Bft) 95,74 %
29.09.2019 16:54 21,2 C 13,9 C 21,1 C 63 % 1006,7 hPa 0,0 l/m 6,3 km/h (2 Bft) NO 56 0 min 0,000 mm 0,5 UV-I 156 W/m 13,9 C 21,2 C 9,7 km/h (2 Bft) 100,00 %
29.09.2019 16:56 21,2 C 13,9 C 21,1 C 62 % 1006,7 hPa 0,0 l/m 5,9 km/h (2 Bft) O 81 2 min 0,000 mm 0,5 UV-I 192 W/m 13,6 C 21,2 C 8,0 km/h (2 Bft) 97,92 %
29.09.2019 16:58 21,2 C 13,9 C 21,1 C 62 % 1006,7 hPa 0,0 l/m 4,9 km/h (1 Bft) O-NO 71 2 min 0,000 mm 0,5 UV-I 231 W/m 13,6 C 21,2 C 8,0 km/h (2 Bft) 97,87 %
29.09.2019 17:00 21,2 C 13,9 C 21,7 C 62 % 1006,6 hPa 0,0 l/m 4,5 km/h (1 Bft) O-NO 76 2 min 0,203 mm 0,5 UV-I 234 W/m 13,6 C 21,2 C 6,4 km/h (2 Bft) 100,00 %
29.09.2019 17:02 21,3 C 13,9 C 21,7 C 62 % 1006,6 hPa 0,0 l/m 4,1 km/h (1 Bft) NO 54 2 min 0,000 mm 0,5 UV-I 186 W/m 13,7 C 21,3 C 6,4 km/h (2 Bft) 100,00 %
29.09.2019 17:04 21,2 C 13,9 C 21,1 C 62 % 1006,6 hPa 0,0 l/m 6,1 km/h (2 Bft) NO 53 0 min 0,000 mm 0,5 UV-I 142 W/m 13,6 C 21,2 C 8,0 km/h (2 Bft) 100,00 %
29.09.2019 17:06 21,2 C 13,9 C 21,1 C 62 % 1006,6 hPa 0,0 l/m 6,3 km/h (2 Bft) NO 51 0 min 0,000 mm 0,1 UV-I 130 W/m 13,6 C 21,2 C 9,7 km/h (2 Bft) 100,00 %
29.09.2019 17:08 21,1 C 13,9 C 21,1 C 62 % 1006,6 hPa 0,0 l/m 4,2 km/h (1 Bft) NO 50 0 min 0,000 mm 0,0 UV-I 143 W/m 13,5 C 21,1 C 6,4 km/h (2 Bft) 97,87 %
29.09.2019 17:10 21,1 C 13,9 C 21,1 C 63 % 1006,6 hPa 0,0 l/m 2,4 km/h (1 Bft) O-NO 63 2 min 0,000 mm 0,0 UV-I 159 W/m 13,8 C 21,1 C 4,8 km/h (1 Bft) 100,00 %
29.09.2019 17:12 21,1 C 13,9 C 21,1 C 62 % 1006,6 hPa 0,0 l/m 3,5 km/h (1 Bft) O-NO 63 2 min 0,000 mm 0,0 UV-I 181 W/m 13,5 C 21,1 C 6,4 km/h (2 Bft) 100,00 %
29.09.2019 17:14 21,1 C 13,9 C 20,6 C 63 % 1006,6 hPa 0,0 l/m 4,8 km/h (1 Bft) O-NO 71 2 min 0,000 mm 0,0 UV-I 148 W/m 13,8 C 21,1 C 8,0 km/h (2 Bft) 100,00 %
29.09.2019 17:16 21,0 C 13,9 C 20,6 C 63 % 1006,5 hPa 0,0 l/m 4,8 km/h (1 Bft) O-NO 76 0 min 0,000 mm 0,0 UV-I 123 W/m 13,7 C 21,0 C 6,4 km/h (2 Bft) 97,87 %
29.09.2019 17:18 20,9 C 13,9 C 20,6 C 63 % 1006,5 hPa 0,0 l/m 4,5 km/h (1 Bft) O-NO 76 0 min 0,000 mm 0,0 UV-I 116 W/m 13,6 C 20,9 C 6,4 km/h (2 Bft) 97,87 %
29.09.2019 17:20 20,9 C 13,9 C 20,6 C 63 % 1006,5 hPa 0,0 l/m 4,5 km/h (1 Bft) O-NO 61 0 min 0,000 mm 0,0 UV-I 117 W/m 13,6 C 20,9 C 6,4 km/h (2 Bft) 97,56 %
29.09.2019 17:22 20,9 C 13,9 C 20,6 C 64 % 1006,5 hPa 0,0 l/m 4,1 km/h (1 Bft) NO 49 0 min 0,000 mm 0,0 UV-I 113 W/m 13,8 C 20,9 C 4,8 km/h (1 Bft) 97,87 %
29.09.2019 17:24 20,8 C 13,9 C 20,6 C 64 % 1006,5 hPa 0,0 l/m 3,1 km/h (1 Bft) NO 49 0 min 0,000 mm 0,0 UV-I 108 W/m 13,7 C 20,8 C 4,8 km/h (1 Bft) 95,74 %
29.09.2019 17:26 20,7 C 13,9 C 20,0 C 64 % 1006,5 hPa 0,0 l/m 2,7 km/h (1 Bft) NO 49 2 min 0,000 mm 0,0 UV-I 122 W/m 13,6 C 20,7 C 4,8 km/h (1 Bft) 96,00 %
29.09.2019 17:28 20,6 C 13,9 C 20,0 C 65 % 1006,4 hPa 0,0 l/m 3,0 km/h (1 Bft) NO 51 2 min 0,000 mm 0,0 UV-I 170 W/m 13,8 C 20,6 C 4,8 km/h (1 Bft) 97,87 %
29.09.2019 17:30 20,6 C 13,9 C 20,0 C 66 % 1006,3 hPa 0,0 l/m 2,5 km/h (1 Bft) NO 51 2 min 0,000 mm 0,0 UV-I 180 W/m 14,0 C 20,6 C 3,2 km/h (1 Bft) 95,74 %
29.09.2019 17:32 20,6 C 13,9 C 20,0 C 66 % 1006,3 hPa 0,0 l/m 3,1 km/h (1 Bft) NO 46 2 min 0,000 mm 0,0 UV-I 172 W/m 14,0 C 20,6 C 4,8 km/h (1 Bft) 98,00 %
29.09.2019 17:34 20,6 C 13,9 C 20,0 C 66 % 1006,3 hPa 0,0 l/m 4,2 km/h (1 Bft) NO 46 2 min 0,000 mm 0,0 UV-I 176 W/m 14,0 C 20,6 C 6,4 km/h (2 Bft) 97,87 %
29.09.2019 17:36 20,7 C 13,9 C 19,4 C 67 % 1006,3 hPa 0,0 l/m 4,4 km/h (1 Bft) NO 49 2 min 0,000 mm 0,0 UV-I 170 W/m 14,3 C 20,7 C 6,4 km/h (2 Bft) 97,92 %
29.09.2019 17:38 20,6 C 13,9 C 19,4 C 66 % 1006,3 hPa 0,0 l/m 4,9 km/h (1 Bft) NO 49 2 min 0,000 mm 0,0 UV-I 161 W/m 14,0 C 20,6 C 6,4 km/h (2 Bft) 97,37 %
29.09.2019 17:40 20,6 C 13,9 C 19,4 C 65 % 1006,3 hPa 0,0 l/m 3,9 km/h (1 Bft) NO 48 2 min 0,000 mm 0,0 UV-I 152 W/m 13,8 C 20,6 C 4,8 km/h (1 Bft) 97,87 %
29.09.2019 17:42 20,6 C 13,9 C 19,4 C 65 % 1006,3 hPa 0,0 l/m 4,4 km/h (1 Bft) NO 48 2 min 0,000 mm 0,0 UV-I 144 W/m 13,8 C 20,6 C 4,8 km/h (1 Bft) 95,74 %
29.09.2019 17:44 20,7 C 13,9 C 19,4 C 66 % 1006,3 hPa 0,0 l/m 3,9 km/h (1 Bft) NO 47 2 min 0,000 mm 0,0 UV-I 134 W/m 14,1 C 20,7 C 4,8 km/h (1 Bft) 100,00 %
29.09.2019 17:46 20,7 C 13,9 C 18,9 C 66 % 1006,3 hPa 0,0 l/m 4,7 km/h (1 Bft) NO 47 2 min 0,000 mm 0,0 UV-I 126 W/m 14,1 C 20,7 C 6,4 km/h (2 Bft) 100,00 %
29.09.2019 17:48 20,6 C 13,9 C 18,9 C 66 % 1006,3 hPa 0,0 l/m 5,6 km/h (1 Bft) O-NO 59 2 min 0,000 mm 0,0 UV-I 119 W/m 14,0 C 20,6 C 6,4 km/h (2 Bft) 93,62 %
29.09.2019 17:50 20,4 C 13,9 C 18,9 C 66 % 1006,2 hPa 0,0 l/m 7,3 km/h (2 Bft) NO 49 2 min 0,000 mm 0,0 UV-I 112 W/m 13,8 C 20,0 C 9,7 km/h (2 Bft) 100,00 %
29.09.2019 17:52 20,4 C 13,9 C 18,9 C 67 % 1006,2 hPa 0,0 l/m 6,0 km/h (2 Bft) NO 46 2 min 0,000 mm 0,0 UV-I 106 W/m 14,1 C 20,4 C 8,0 km/h (2 Bft) 100,00 %
29.09.2019 17:54 20,3 C 13,9 C 18,9 C 67 % 1006,2 hPa 0,0 l/m 5,8 km/h (2 Bft) N-NO 32 2 min 0,000 mm 0,0 UV-I 103 W/m 14,0 C 20,3 C 6,4 km/h (2 Bft) 100,00 %
29.09.2019 17:56 20,3 C 13,9 C 18,9 C 68 % 1006,2 hPa 0,0 l/m 5,9 km/h (2 Bft) NO 34 2 min 0,000 mm 0,0 UV-I 98 W/m 14,2 C 20,3 C 6,4 km/h (2 Bft) 98,00 %
29.09.2019 17:58 20,2 C 13,9 C 18,3 C 68 % 1006,1 hPa 0,0 l/m 4,6 km/h (1 Bft) NO 55 2 min 0,000 mm 0,0 UV-I 74 W/m 14,1 C 20,2 C 6,4 km/h (2 Bft) 100,00 %
29.09.2019 18:00 20,2 C 13,9 C 18,3 C 68 % 1006,1 hPa 0,0 l/m 4,7 km/h (1 Bft) NO 49 0 min 0,000 mm 0,0 UV-I 59 W/m 14,1 C 20,2 C 6,4 km/h (2 Bft) 100,00 %
29.09.2019 18:02 20,1 C 13,9 C 18,3 C 68 % 1006,2 hPa 0,0 l/m 3,2 km/h (1 Bft) NO 49 0 min 0,102 mm 0,0 UV-I 31 W/m 14,0 C 20,1 C 4,8 km/h (1 Bft) 100,00 %
29.09.2019 18:04 19,9 C 13,9 C 17,8 C 68 % 1006,1 hPa 0,0 l/m 4,4 km/h (1 Bft) O 81 0 min 0,000 mm 0,0 UV-I 60 W/m 13,8 C 19,9 C 4,8 km/h (1 Bft) 100,00 %
29.09.2019 18:06 19,9 C 13,9 C 17,8 C 68 % 1006,1 hPa 0,0 l/m 2,1 km/h (1 Bft) O 81 2 min 0,000 mm 0,0 UV-I 75 W/m 13,8 C 19,9 C 4,8 km/h (1 Bft) 100,00 %
29.09.2019 18:08 19,8 C 13,9 C 17,2 C 69 % 1006,1 hPa 0,0 l/m 2,8 km/h (1 Bft) O 81 2 min 0,000 mm 0,0 UV-I 73 W/m 13,9 C 19,8 C 3,2 km/h (1 Bft) 100,00 %
29.09.2019 18:10 19,7 C 13,9 C 17,2 C 69 % 1006,1 hPa 0,0 l/m 2,5 km/h (1 Bft) O 81 2 min 0,000 mm 0,0 UV-I 70 W/m 13,8 C 19,7 C 3,2 km/h (1 Bft) 97,22 %
29.09.2019 18:12 19,6 C 13,9 C 17,2 C 70 % 1006,0 hPa 0,0 l/m 2,7 km/h (1 Bft) O 81 2 min 0,000 mm 0,0 UV-I 65 W/m 14,0 C 19,6 C 3,2 km/h (1 Bft) 96,23 %
29.09.2019 18:14 19,4 C 13,9 C 16,7 C 70 % 1005,9 hPa 0,0 l/m 2,4 km/h (1 Bft) O 81 2 min 0,000 mm 0,0 UV-I 63 W/m 13,8 C 19,4 C 3,2 km/h (1 Bft) 95,74 %
29.09.2019 18:16 19,4 C 13,9 C 16,7 C 71 % 1005,9 hPa 0,0 l/m 0,4 km/h (0 Bft) O 81 2 min 0,000 mm 0,0 UV-I 60 W/m 14,0 C 19,4 C 1,6 km/h (1 Bft) 97,87 %
29.09.2019 18:18 19,4 C 13,9 C 16,1 C 72 % 1005,9 hPa 0,0 l/m 0,0 km/h (0 Bft) O 81 2 min 0,000 mm 0,0 UV-I 56 W/m 14,2 C 19,4 C 1,6 km/h (1 Bft) 95,74 %
29.09.2019 18:20 19,3 C 13,9 C 16,1 C 73 % 1005,9 hPa 0,0 l/m 0,5 km/h (0 Bft) O 81 2 min 0,000 mm 0,0 UV-I 54 W/m 14,3 C 19,3 C 1,6 km/h (1 Bft) 97,87 %
29.09.2019 18:22 19,2 C 13,9 C 15,6 C 73 % 1005,8 hPa 0,0 l/m 1,2 km/h (1 Bft) O 81 2 min 0,000 mm 0,0 UV-I 50 W/m 14,2 C 19,2 C 3,2 km/h (1 Bft) 95,74 %
29.09.2019 18:24 18,9 C 13,9 C 15,6 C 74 % 1005,8 hPa 0,0 l/m 0,7 km/h (0 Bft) O 81 2 min 0,000 mm 0,0 UV-I 46 W/m 14,2 C 18,9 C 3,2 km/h (1 Bft) 97,87 %
29.09.2019 18:26 18,9 C 13,9 C 15,0 C 73 % 1005,8 hPa 0,0 l/m 0,4 km/h (0 Bft) O 81 2 min 0,000 mm 0,0 UV-I 42 W/m 13,9 C 18,9 C 1,6 km/h (1 Bft) 98,00 %
29.09.2019 18:28 18,9 C 13,9 C 15,0 C 74 % 1005,7 hPa 0,0 l/m 1,0 km/h (0 Bft) O 81 2 min 0,000 mm 0,0 UV-I 39 W/m 14,2 C 18,9 C 1,6 km/h (1 Bft) 97,87 %
29.09.2019 18:30 18,8 C 13,9 C 14,4 C 74 % 1005,8 hPa 0,0 l/m 0,2 km/h (0 Bft) O 81 2 min 0,000 mm 0,0 UV-I 33 W/m 14,1 C 18,8 C 1,6 km/h (1 Bft) 95,74 %
29.09.2019 18:32 18,8 C 13,9 C 15,0 C 74 % 1005,8 hPa 0,0 l/m 0,6 km/h (0 Bft) O 81 2 min 0,000 mm 0,0 UV-I 29 W/m 14,1 C 18,8 C 1,6 km/h (1 Bft) 100,00 %
29.09.2019 18:34 18,7 C 13,9 C 14,4 C 74 % 1005,7 hPa 0,0 l/m 0,3 km/h (0 Bft) O 81 2 min 0,000 mm 0,0 UV-I 19 W/m 14,0 C 18,7 C 1,6 km/h (1 Bft) 95,74 %
29.09.2019 18:36 18,6 C 13,9 C 14,4 C 75 % 1005,7 hPa 0,0 l/m 0,1 km/h (0 Bft) O 81 2 min 0,000 mm 0,0 UV-I 16 W/m 14,1 C 18,6 C 1,6 km/h (1 Bft) 97,87 %
29.09.2019 18:38 18,4 C 13,9 C 14,4 C 76 % 1005,6 hPa 0,0 l/m 0,1 km/h (0 Bft) O 81 0 min 0,000 mm 0,0 UV-I 13 W/m 14,1 C 18,4 C 1,6 km/h (1 Bft) 97,87 %
29.09.2019 18:40 18,0 C 13,9 C 14,4 C 77 % 1005,6 hPa 0,0 l/m 0,0 km/h (0 Bft) O 81 0 min 0,000 mm 0,0 UV-I 12 W/m 13,9 C 18,0 C 0,0 km/h (0 Bft) 97,87 %
29.09.2019 18:42 17,7 C 13,9 C 13,9 C 79 % 1005,6 hPa 0,0 l/m 0,0 km/h (0 Bft) O 81 0 min 0,000 mm 0,0 UV-I 12 W/m 14,0 C 17,7 C 0,0 km/h (0 Bft) 97,87 %
29.09.2019 18:44 17,6 C 13,9 C 13,9 C 80 % 1005,6 hPa 0,0 l/m 0,0 km/h (0 Bft) O 81 0 min 0,000 mm 0,0 UV-I 11 W/m 14,1 C 17,6 C 0,0 km/h (0 Bft) 93,62 %
29.09.2019 18:46 17,6 C 13,9 C 13,9 C 80 % 1005,6 hPa 0,0 l/m 0,0 km/h (0 Bft) O 81 0 min 0,000 mm 0,0 UV-I 10 W/m 14,1 C 17,6 C 0,0 km/h (0 Bft) 95,83 %
29.09.2019 18:48 17,4 C 13,9 C 13,9 C 79 % 1005,6 hPa 0,0 l/m 0,0 km/h (0 Bft) O 81 0 min 0,000 mm 0,0 UV-I 9 W/m 13,7 C 17,4 C 0,0 km/h (0 Bft) 95,74 %
29.09.2019 18:50 17,1 C 13,9 C 13,9 C 80 % 1005,5 hPa 0,0 l/m 1,8 km/h (1 Bft) O 81 0 min 0,000 mm 0,0 UV-I 8 W/m 13,6 C 17,1 C 3,2 km/h (1 Bft) 95,74 %
29.09.2019 18:52 16,8 C 13,9 C 13,3 C 81 % 1005,5 hPa 0,0 l/m 2,6 km/h (1 Bft) O 82 0 min 0,000 mm 0,0 UV-I 7 W/m 13,5 C 16,8 C 3,2 km/h (1 Bft) 97,87 %
29.09.2019 18:54 16,5 C 13,9 C 13,3 C 82 % 1005,5 hPa 0,0 l/m 0,3 km/h (0 Bft) O 82 0 min 0,000 mm 0,0 UV-I 6 W/m 13,4 C 16,5 C 1,6 km/h (1 Bft) 91,49 %
29.09.2019 18:56 16,4 C 13,9 C 13,3 C 83 % 1005,5 hPa 0,0 l/m 2,3 km/h (1 Bft) O 82 0 min 0,000 mm 0,0 UV-I 5 W/m 13,5 C 16,4 C 3,2 km/h (1 Bft) 97,87 %
29.09.2019 18:58 16,6 C 13,9 C 13,9 C 83 % 1005,7 hPa 0,0 l/m 5,5 km/h (1 Bft) SW 234 0 min 0,000 mm 0,0 UV-I 5 W/m 13,7 C 16,6 C 8,0 km/h (2 Bft) 98,00 %
29.09.2019 19:00 16,6 C 13,9 C 13,9 C 83 % 1005,6 hPa 0,0 l/m 4,9 km/h (1 Bft) SW 219 0 min 0,025 mm 0,0 UV-I 3 W/m 13,7 C 16,6 C 8,0 km/h (2 Bft) 98,00 %
29.09.2019 19:02 16,5 C 13,9 C 14,4 C 84 % 1005,5 hPa 0,0 l/m 4,1 km/h (1 Bft) S-SO 148 0 min 0,000 mm 0,0 UV-I 0 W/m 13,8 C 16,5 C 8,0 km/h (2 Bft) 97,87 %
29.09.2019 19:04 16,2 C 13,9 C 14,4 C 83 % 1005,5 hPa 0,0 l/m 4,5 km/h (1 Bft) S-SO 148 0 min 0,000 mm 0,0 UV-I 0 W/m 13,3 C 16,2 C 6,4 km/h (2 Bft) 97,87 %
29.09.2019 19:06 15,9 C 13,9 C 13,9 C 84 % 1005,6 hPa 0,0 l/m 1,6 km/h (1 Bft) S-SO 149 0 min 0,000 mm 0,0 UV-I 0 W/m 13,2 C 15,9 C 3,2 km/h (1 Bft) 95,74 %
29.09.2019 19:08 15,8 C 13,9 C 13,9 C 85 % 1005,6 hPa 0,0 l/m 2,2 km/h (1 Bft) S 190 0 min 0,000 mm 0,0 UV-I 0 W/m 13,3 C 15,8 C 3,2 km/h (1 Bft) 95,12 %
29.09.2019 19:10 15,9 C 13,9 C 13,9 C 85 % 1005,6 hPa 0,0 l/m 0,1 km/h (0 Bft) S 190 0 min 0,000 mm 0,0 UV-I 0 W/m 13,4 C 15,9 C 1,6 km/h (1 Bft) 97,87 %
29.09.2019 19:12 16,0 C 13,9 C 13,3 C 85 % 1005,6 hPa 0,0 l/m 0,7 km/h (0 Bft) S 190 0 min 0,000 mm 0,0 UV-I 0 W/m 13,5 C 16,0 C 4,8 km/h (1 Bft) 97,87 %
29.09.2019 19:14 15,9 C 13,9 C 13,9 C 85 % 1005,6 hPa 0,0 l/m 4,7 km/h (1 Bft) S 177 0 min 0,000 mm 0,0 UV-I 0 W/m 13,4 C 15,9 C 6,4 km/h (2 Bft) 98,00 %
29.09.2019 19:16 15,7 C 13,9 C 13,9 C 84 % 1005,4 hPa 0,0 l/m 6,9 km/h (2 Bft) SO 143 0 min 0,000 mm 0,0 UV-I 0 W/m 13,0 C 15,4 C 8,0 km/h (2 Bft) 97,87 %
29.09.2019 19:18 15,4 C 13,9 C 13,9 C 85 % 1005,5 hPa 0,0 l/m 5,7 km/h (1 Bft) W-SW 255 0 min 0,000 mm 0,0 UV-I 0 W/m 12,9 C 15,4 C 8,0 km/h (2 Bft) 97,44 %
29.09.2019 19:20 15,4 C 13,9 C 13,9 C 86 % 1005,5 hPa 0,0 l/m 3,2 km/h (1 Bft) S 175 0 min 0,000 mm 0,0 UV-I 0 W/m 13,1 C 15,4 C 6,4 km/h (2 Bft) 97,87 %
29.09.2019 19:22 15,5 C 13,9 C 13,9 C 86 % 1005,4 hPa 0,0 l/m 3,1 km/h (1 Bft) S 174 0 min 0,000 mm 0,0 UV-I 0 W/m 13,2 C 15,5 C 4,8 km/h (1 Bft) 94,00 %
29.09.2019 19:24 15,5 C 13,9 C 13,3 C 86 % 1005,6 hPa 0,0 l/m 2,6 km/h (1 Bft) W-SW 244 0 min 0,000 mm 0,0 UV-I 0 W/m 13,2 C 15,5 C 6,4 km/h (2 Bft) 97,87 %
29.09.2019 19:26 15,5 C 13,9 C 13,9 C 86 % 1005,6 hPa 0,0 l/m 4,5 km/h (1 Bft) SW 225 0 min 0,000 mm 0,0 UV-I 0 W/m 13,2 C 15,5 C 6,4 km/h (2 Bft) 97,87 %
29.09.2019 19:28 15,5 C 13,9 C 13,9 C 86 % 1005,5 hPa 0,0 l/m 3,9 km/h (1 Bft) SW 225 0 min 0,000 mm 0,0 UV-I 0 W/m 13,2 C 15,5 C 4,8 km/h (1 Bft) 97,87 %
29.09.2019 19:30 15,5 C 13,9 C 13,9 C 86 % 1005,6 hPa 0,0 l/m 4,0 km/h (1 Bft) SW 234 0 min 0,000 mm 0,0 UV-I 0 W/m 13,2 C 15,5 C 6,4 km/h (2 Bft) 94,00 %
29.09.2019 19:32 15,4 C 13,9 C 13,9 C 85 % 1005,3 hPa 0,0 l/m 7,5 km/h (2 Bft) SO 136 0 min 0,000 mm 0,0 UV-I 0 W/m 12,9 C 14,8 C 11,3 km/h (2 Bft) 95,74 %
29.09.2019 19:34 15,3 C 13,9 C 13,9 C 86 % 1005,4 hPa 0,0 l/m 5,9 km/h (2 Bft) S 171 0 min 0,000 mm 0,0 UV-I 0 W/m 13,0 C 15,3 C 8,0 km/h (2 Bft) 95,74 %
29.09.2019 19:36 15,2 C 13,9 C 13,9 C 86 % 1005,5 hPa 0,0 l/m 4,1 km/h (1 Bft) S 191 0 min 0,000 mm 0,0 UV-I 0 W/m 12,9 C 15,2 C 8,0 km/h (2 Bft) 95,74 %
29.09.2019 19:38 15,2 C 13,9 C 13,3 C 86 % 1005,6 hPa 0,0 l/m 2,5 km/h (1 Bft) S 191 0 min 0,000 mm 0,0 UV-I 0 W/m 12,9 C 15,2 C 3,2 km/h (1 Bft) 95,74 %
29.09.2019 19:40 15,3 C 13,9 C 13,3 C 86 % 1005,5 hPa 0,0 l/m 2,1 km/h (1 Bft) S 191 0 min 0,000 mm 0,0 UV-I 0 W/m 13,0 C 15,3 C 3,2 km/h (1 Bft) 97,87 %
29.09.2019 19:42 15,2 C 13,9 C 12,8 C 86 % 1005,6 hPa 0,0 l/m 0,9 km/h (0 Bft) S 191 0 min 0,000 mm 0,0 UV-I 0 W/m 12,9 C 15,2 C 3,2 km/h (1 Bft) 97,87 %
29.09.2019 19:44 15,1 C 13,9 C 12,8 C 86 % 1005,6 hPa 0,0 l/m 2,0 km/h (1 Bft) S 191 0 min 0,000 mm 0,0 UV-I 0 W/m 12,8 C 15,1 C 3,2 km/h (1 Bft) 97,87 %
29.09.2019 19:46 14,9 C 13,9 C 12,8 C 87 % 1005,4 hPa 0,0 l/m 3,7 km/h (1 Bft) S-SO 148 0 min 0,000 mm 0,0 UV-I 0 W/m 12,8 C 14,9 C 6,4 km/h (2 Bft) 97,87 %
29.09.2019 19:48 14,8 C 13,9 C 13,3 C 87 % 1005,4 hPa 0,0 l/m 7,0 km/h (2 Bft) SO 133 0 min 0,000 mm 0,0 UV-I 0 W/m 12,7 C 14,5 C 8,0 km/h (2 Bft) 95,74 %
29.09.2019 19:50 14,7 C 13,9 C 13,3 C 88 % 1005,3 hPa 0,0 l/m 4,6 km/h (1 Bft) SO 133 0 min 0,000 mm 0,0 UV-I 0 W/m 12,7 C 14,7 C 6,4 km/h (2 Bft) 97,37 %
29.09.2019 19:52 14,7 C 13,9 C 13,3 C 88 % 1005,4 hPa 0,0 l/m 3,5 km/h (1 Bft) SW 234 0 min 0,000 mm 0,0 UV-I 0 W/m 12,7 C 14,7 C 6,4 km/h (2 Bft) 97,56 %
29.09.2019 19:54 14,7 C 13,9 C 13,3 C 88 % 1005,5 hPa 0,0 l/m 3,6 km/h (1 Bft) W-SW 244 0 min 0,000 mm 0,0 UV-I 0 W/m 12,7 C 14,7 C 6,4 km/h (2 Bft) 96,77 %
29.09.2019 19:56 14,7 C 13,9 C 13,3 C 88 % 1005,5 hPa 0,0 l/m 4,4 km/h (1 Bft) W 261 0 min 0,000 mm 0,0 UV-I 0 W/m 12,7 C 14,7 C 6,4 km/h (2 Bft) 97,87 %
29.09.2019 19:58 14,7 C 13,9 C 13,3 C 88 % 1005,4 hPa 0,0 l/m 4,0 km/h (1 Bft) SW 221 0 min 0,000 mm 0,0 UV-I 0 W/m 12,7 C 14,7 C 6,4 km/h (2 Bft) 97,87 %
29.09.2019 20:00 14,6 C 13,9 C 13,3 C 88 % 1005,5 hPa 0,0 l/m 4,9 km/h (1 Bft) S 180 0 min 0,000 mm 0,0 UV-I 0 W/m 12,6 C 14,6 C 6,4 km/h (2 Bft) 97,22 %
29.09.2019 20:02 14,4 C 13,9 C 13,3 C 88 % 1005,4 hPa 0,0 l/m 5,1 km/h (1 Bft) S 172 0 min 0,000 mm 0,0 UV-I 0 W/m 12,4 C 14,4 C 8,0 km/h (2 Bft) 98,18 %
29.09.2019 20:04 14,3 C 13,9 C 13,3 C 88 % 1005,4 hPa 0,0 l/m 5,8 km/h (2 Bft) S-SO 166 0 min 0,000 mm 0,0 UV-I 0 W/m 12,3 C 14,3 C 8,0 km/h (2 Bft) 97,92 %
29.09.2019 20:06 14,1 C 13,9 C 12,8 C 89 % 1005,4 hPa 0,0 l/m 6,5 km/h (2 Bft) S-SO 165 0 min 0,000 mm 0,0 UV-I 0 W/m 12,3 C 14,1 C 8,0 km/h (2 Bft) 97,87 %
29.09.2019 20:08 14,1 C 13,9 C 12,8 C 89 % 1005,3 hPa 0,0 l/m 3,4 km/h (1 Bft) S-SO 165 0 min 0,000 mm 0,0 UV-I 0 W/m 12,3 C 14,1 C 6,4 km/h (2 Bft) 95,74 %
29.09.2019 20:10 14,0 C 13,9 C 12,8 C 89 % 1005,4 hPa 0,0 l/m 4,2 km/h (1 Bft) S-SO 165 0 min 0,000 mm 0,0 UV-I 0 W/m 12,2 C 14,0 C 8,0 km/h (2 Bft) 97,56 %
29.09.2019 20:12 14,1 C 13,9 C 12,8 C 90 % 1005,4 hPa 0,0 l/m 4,8 km/h (1 Bft) S-SO 165 0 min 0,000 mm 0,0 UV-I 0 W/m 12,5 C 14,1 C 8,0 km/h (2 Bft) 97,87 %
29.09.2019 20:14 14,2 C 13,9 C 12,2 C 89 % 1005,4 hPa 0,0 l/m 2,6 km/h (1 Bft) S-SO 165 0 min 0,000 mm 0,0 UV-I 0 W/m 12,4 C 14,2 C 6,4 km/h (2 Bft) 95,74 %
29.09.2019 20:16 14,1 C 13,9 C 12,2 C 89 % 1005,4 hPa 0,0 l/m 3,2 km/h (1 Bft) S-SO 165 0 min 0,000 mm 0,0 UV-I 0 W/m 12,3 C 14,1 C 6,4 km/h (2 Bft) 98,00 %
29.09.2019 20:18 14,1 C 13,9 C 11,7 C 89 % 1005,4 hPa 0,0 l/m 2,6 km/h (1 Bft) S-SO 165 0 min 0,000 mm 0,0 UV-I 0 W/m 12,3 C 14,1 C 6,4 km/h (2 Bft) 95,74 %
29.09.2019 20:20 14,2 C 13,9 C 12,2 C 89 % 1005,4 hPa 0,0 l/m 4,9 km/h (1 Bft) S-SO 166 0 min 0,000 mm 0,0 UV-I 0 W/m 12,4 C 14,2 C 6,4 km/h (2 Bft) 96,00 %
29.09.2019 20:22 14,2 C 13,9 C 12,2 C 88 % 1005,4 hPa 0,0 l/m 3,3 km/h (1 Bft) S-SO 166 0 min 0,000 mm 0,0 UV-I 0 W/m 12,2 C 14,2 C 6,4 km/h (2 Bft) 95,74 %
29.09.2019 20:24 14,1 C 13,9 C 12,2 C 88 % 1005,3 hPa 0,0 l/m 2,1 km/h (1 Bft) S-SO 166 0 min 0,000 mm 0,0 UV-I 0 W/m 12,1 C 14,1 C 4,8 km/h (1 Bft) 93,62 %
29.09.2019 20:26 13,9 C 13,9 C 12,2 C 88 % 1005,4 hPa 0,0 l/m 5,6 km/h (1 Bft) S-SO 166 0 min 0,000 mm 0,0 UV-I 0 W/m 11,9 C 13,9 C 6,4 km/h (2 Bft) 95,74 %
29.09.2019 20:29 14,0 C 13,9 C 11,7 C 89 % 1005,3 hPa 0,0 l/m 3,5 km/h (1 Bft) S-SO 167 0 min 0,000 mm 0,0 UV-I 0 W/m 12,2 C 14,0 C 6,4 km/h (2 Bft) 94,37 %
29.09.2019 20:30 14,0 C 13,9 C 12,2 C 89 % 1005,3 hPa 0,0 l/m 4,8 km/h (1 Bft) S-SO 157 0 min 0,000 mm 0,0 UV-I 0 W/m 12,2 C 14,0 C 8,0 km/h (2 Bft) 96,49 %
29.09.2019 20:35 14,4 C 13,9 C 12,8 C 89 % 1005,3 hPa 0,0 l/m 4,8 km/h (1 Bft) S 180 0 min 0,000 mm 0,0 UV-I 0 W/m 12,6 C 14,4 C 9,7 km/h (2 Bft) 97,37 %
29.09.2019 20:40 14,8 C 13,9 C 12,8 C 88 % 1005,4 hPa 0,0 l/m 6,4 km/h (2 Bft) S-SW 202 0 min 0,000 mm 0,0 UV-I 0 W/m 12,8 C 14,8 C 11,3 km/h (2 Bft) 98,25 %
29.09.2019 20:45 14,5 C 13,9 C 12,8 C 87 % 1005,6 hPa 0,0 l/m 4,8 km/h (1 Bft) SW 225 0 min 0,000 mm 0,0 UV-I 0 W/m 12,4 C 14,5 C 6,4 km/h (2 Bft) 100,00 %
29.09.2019 20:50 14,3 C 13,9 C 12,8 C 89 % 1005,4 hPa 0,0 l/m 6,4 km/h (2 Bft) S-SW 202 0 min 0,000 mm 0,0 UV-I 0 W/m 12,5 C 14,3 C 11,3 km/h (2 Bft) 100,00 %
29.09.2019 20:55 14,8 C 13,9 C 13,3 C 89 % 1005,4 hPa 0,0 l/m 6,4 km/h (2 Bft) S-SW 202 0 min 0,000 mm 0,0 UV-I 0 W/m 13,0 C 14,8 C 11,3 km/h (2 Bft) 98,25 %
29.09.2019 21:00 15,1 C 13,9 C 13,9 C 88 % 1005,4 hPa 0,0 l/m 6,4 km/h (2 Bft) S-SW 202 0 min 0,000 mm 0,0 UV-I 0 W/m 13,1 C 15,1 C 9,7 km/h (2 Bft) 99,12 %
29.09.2019 21:05 15,2 C 13,9 C 13,9 C 88 % 1005,3 hPa 0,0 l/m 6,4 km/h (2 Bft) S 180 0 min 0,000 mm 0,0 UV-I 0 W/m 13,2 C 15,2 C 11,3 km/h (2 Bft) 97,37 %
29.09.2019 21:10 15,4 C 13,9 C 13,9 C 87 % 1005,3 hPa 0,0 l/m 6,4 km/h (2 Bft) S-SW 202 0 min 0,000 mm 0,0 UV-I 0 W/m 13,2 C 15,4 C 9,7 km/h (2 Bft) 97,37 %
29.09.2019 21:15 15,3 C 13,9 C 13,9 C 87 % 1005,4 hPa 0,0 l/m 4,8 km/h (1 Bft) S-SW 202 0 min 0,000 mm 0,0 UV-I 0 W/m 13,1 C 15,3 C 9,7 km/h (2 Bft) 95,61 %
29.09.2019 21:20 15,3 C 13,9 C 13,9 C 86 % 1005,4 hPa 0,0 l/m 8,0 km/h (2 Bft) S-SW 202 0 min 0,000 mm 0,0 UV-I 0 W/m 13,0 C 14,4 C 12,9 km/h (3 Bft) 98,25 %
29.09.2019 21:24 15,3 C 13,9 C 13,9 C 86 % 1005,3 hPa 0,0 l/m 7,7 km/h (2 Bft) S-SW 204 0 min 0,000 mm 0,0 UV-I 0 W/m 13,0 C 14,6 C 9,7 km/h (2 Bft) 100,00 %
29.09.2019 21:26 15,3 C 13,9 C 13,9 C 86 % 1005,2 hPa 0,0 l/m 6,7 km/h (2 Bft) S-SW 196 0 min 0,000 mm 0,0 UV-I 0 W/m 13,0 C 15,1 C 9,7 km/h (2 Bft) 98,11 %
29.09.2019 21:28 15,4 C 13,9 C 13,9 C 86 % 1005,2 hPa 0,0 l/m 7,7 km/h (2 Bft) S 188 0 min 0,000 mm 0,0 UV-I 0 W/m 13,1 C 14,7 C 11,3 km/h (2 Bft) 97,56 %
29.09.2019 21:30 15,5 C 13,9 C 14,4 C 86 % 1005,2 hPa 0,0 l/m 9,2 km/h (2 Bft) S-SW 211 0 min 0,000 mm 0,0 UV-I 0 W/m 13,2 C 14,0 C 14,5 km/h (3 Bft) 98,11 %
29.09.2019 21:32 15,6 C 13,9 C 14,4 C 85 % 1005,2 hPa 0,0 l/m 8,3 km/h (2 Bft) S-SW 211 0 min 0,000 mm 0,0 UV-I 0 W/m 13,1 C 14,6 C 12,9 km/h (3 Bft) 97,56 %
29.09.2019 21:34 15,7 C 13,9 C 14,4 C 85 % 1005,2 hPa 0,0 l/m 8,9 km/h (2 Bft) S 175 0 min 0,000 mm 0,0 UV-I 0 W/m 13,2 C 14,4 C 14,5 km/h (3 Bft) 97,87 %
29.09.2019 21:36 15,8 C 13,9 C 15,0 C 84 % 1005,1 hPa 0,0 l/m 8,9 km/h (2 Bft) S-SW 207 0 min 0,000 mm 0,0 UV-I 0 W/m 13,1 C 14,5 C 14,5 km/h (3 Bft) 98,11 %
29.09.2019 21:38 15,8 C 13,9 C 15,0 C 84 % 1005,2 hPa 0,0 l/m 8,1 km/h (2 Bft) S-SW 196 0 min 0,000 mm 0,0 UV-I 0 W/m 13,1 C 14,9 C 12,9 km/h (3 Bft) 97,87 %
29.09.2019 21:40 15,9 C 13,9 C 15,0 C 83 % 1005,1 hPa 0,0 l/m 7,4 km/h (2 Bft) SW 218 0 min 0,000 mm 0,0 UV-I 0 W/m 13,0 C 15,4 C 9,7 km/h (2 Bft) 97,87 %
29.09.2019 21:42 15,9 C 13,9 C 15,0 C 83 % 1005,1 hPa 0,0 l/m 6,6 km/h (2 Bft) S-SW 209 0 min 0,000 mm 0,0 UV-I 0 W/m 13,0 C 15,8 C 9,7 km/h (2 Bft) 96,30 %
29.09.2019 21:44 15,9 C 13,9 C 15,0 C 83 % 1005,2 hPa 0,0 l/m 8,0 km/h (2 Bft) S-SW 198 0 min 0,000 mm 0,0 UV-I 0 W/m 13,0 C 15,0 C 11,3 km/h (2 Bft) 98,39 %
29.09.2019 21:46 15,8 C 13,9 C 15,0 C 83 % 1005,1 hPa 0,0 l/m 7,1 km/h (2 Bft) S-SW 203 0 min 0,000 mm 0,0 UV-I 0 W/m 12,9 C 15,4 C 11,3 km/h (2 Bft) 97,87 %
29.09.2019 21:48 15,8 C 13,9 C 15,0 C 83 % 1005,2 hPa 0,0 l/m 7,1 km/h (2 Bft) S-SW 200 0 min 0,000 mm 0,0 UV-I 0 W/m 12,9 C 15,4 C 9,7 km/h (2 Bft) 98,00 %
29.09.2019 21:50 15,8 C 13,9 C 15,0 C 83 % 1005,2 hPa 0,0 l/m 7,6 km/h (2 Bft) SW 218 0 min 0,000 mm 0,0 UV-I 0 W/m 12,9 C 15,1 C 14,5 km/h (3 Bft) 97,37 %
29.09.2019 21:52 15,8 C 13,9 C 15,0 C 83 % 1005,2 hPa 0,0 l/m 6,8 km/h (2 Bft) S-SW 198 0 min 0,000 mm 0,0 UV-I 0 W/m 12,9 C 15,6 C 9,7 km/h (2 Bft) 95,74 %
29.09.2019 21:54 15,8 C 13,9 C 15,0 C 83 % 1005,1 hPa 0,0 l/m 7,7 km/h (2 Bft) S-SW 211 0 min 0,000 mm 0,0 UV-I 0 W/m 12,9 C 15,1 C 11,3 km/h (2 Bft) 98,00 %
29.09.2019 21:56 15,7 C 13,9 C 15,0 C 83 % 1005,2 hPa 0,0 l/m 9,0 km/h (2 Bft) S-SW 205 0 min 0,000 mm 0,0 UV-I 0 W/m 12,8 C 14,3 C 14,5 km/h (3 Bft) 100,00 %
29.09.2019 21:58 15,7 C 13,9 C 15,0 C 83 % 1005,1 hPa 0,0 l/m 8,3 km/h (2 Bft) S-SW 212 0 min 0,000 mm 0,0 UV-I 0 W/m 12,8 C 14,7 C 11,3 km/h (2 Bft) 100,00 %
29.09.2019 22:00 15,6 C 13,9 C 14,4 C 83 % 1005,1 hPa 0,0 l/m 8,4 km/h (2 Bft) S-SW 200 0 min 0,025 mm 0,0 UV-I 0 W/m 12,7 C 14,5 C 12,9 km/h (3 Bft) 100,00 %
29.09.2019 22:02 15,6 C 13,9 C 14,4 C 83 % 1005,1 hPa 0,0 l/m 8,5 km/h (2 Bft) S-SW 194 0 min 0,000 mm 0,0 UV-I 0 W/m 12,7 C 14,5 C 12,9 km/h (3 Bft) 100,00 %
29.09.2019 22:04 15,6 C 13,9 C 14,4 C 83 % 1005,1 hPa 0,0 l/m 8,4 km/h (2 Bft) SW 221 0 min 0,000 mm 0,0 UV-I 0 W/m 12,7 C 14,5 C 11,3 km/h (2 Bft) 98,21 %
29.09.2019 22:06 15,6 C 13,9 C 14,4 C 83 % 1005,1 hPa 0,0 l/m 10,1 km/h (2 Bft) S-SO 167 0 min 0,000 mm 0,0 UV-I 0 W/m 12,7 C 13,7 C 14,5 km/h (3 Bft) 100,00 %
29.09.2019 22:08 15,6 C 13,9 C 14,4 C 82 % 1005,1 hPa 0,0 l/m 8,4 km/h (2 Bft) SW 233 0 min 0,000 mm 0,0 UV-I 0 W/m 12,5 C 14,5 C 12,9 km/h (3 Bft) 100,00 %
29.09.2019 22:10 15,7 C 13,9 C 14,4 C 82 % 1005,1 hPa 0,0 l/m 7,9 km/h (2 Bft) SW 227 0 min 0,000 mm 0,0 UV-I 0 W/m 12,6 C 14,9 C 16,1 km/h (3 Bft) 100,00 %
29.09.2019 22:12 15,8 C 13,9 C 15,0 C 81 % 1005,1 hPa 0,0 l/m 10,3 km/h (2 Bft) S-SW 209 0 min 0,000 mm 0,0 UV-I 0 W/m 12,5 C 13,9 C 16,1 km/h (3 Bft) 100,00 %
29.09.2019 22:14 15,9 C 13,9 C 15,0 C 81 % 1005,1 hPa 0,0 l/m 9,4 km/h (2 Bft) SW 236 0 min 0,000 mm 0,0 UV-I 0 W/m 12,6 C 14,4 C 12,9 km/h (3 Bft) 98,00 %
29.09.2019 22:16 15,9 C 13,9 C 15,0 C 80 % 1005,1 hPa 0,0 l/m 10,4 km/h (2 Bft) S-SW 211 0 min 0,000 mm 0,0 UV-I 0 W/m 12,5 C 13,9 C 17,7 km/h (3 Bft) 97,87 %
29.09.2019 22:19 16,1 C 13,9 C 15,0 C 79 % 1005,1 hPa 0,0 l/m 9,8 km/h (2 Bft) SW 230 0 min 0,000 mm 0,0 UV-I 0 W/m 12,5 C 14,4 C 17,7 km/h (3 Bft) 100,00 %
29.09.2019 22:20 16,1 C 13,9 C 15,0 C 79 % 1005,1 hPa 0,0 l/m 11,5 km/h (2 Bft) SW 219 0 min 0,000 mm 0,0 UV-I 0 W/m 12,5 C 13,7 C 12,9 km/h (3 Bft) 100,00 %
29.09.2019 22:22 16,2 C 13,9 C 15,0 C 79 % 1005,2 hPa 0,0 l/m 9,3 km/h (2 Bft) SW 217 0 min 0,000 mm 0,0 UV-I 0 W/m 12,6 C 14,7 C 12,9 km/h (3 Bft) 100,00 %
29.09.2019 22:24 16,3 C 13,9 C 15,6 C 78 % 1005,2 hPa 0,0 l/m 8,9 km/h (2 Bft) SW 232 0 min 0,000 mm 0,0 UV-I 0 W/m 12,5 C 15,0 C 16,1 km/h (3 Bft) 98,11 %
29.09.2019 22:26 16,4 C 13,9 C 15,6 C 77 % 1005,2 hPa 0,0 l/m 11,1 km/h (2 Bft) SW 225 0 min 0,000 mm 0,0 UV-I 0 W/m 12,4 C 14,2 C 16,1 km/h (3 Bft) 100,00 %
29.09.2019 22:28 16,5 C 13,9 C 15,6 C 76 % 1005,2 hPa 0,0 l/m 10,6 km/h (2 Bft) SW 228 0 min 0,000 mm 0,0 UV-I 0 W/m 12,3 C 14,5 C 14,5 km/h (3 Bft) 100,00 %
29.09.2019 22:30 16,6 C 13,9 C 15,6 C 76 % 1005,2 hPa 0,0 l/m 7,6 km/h (2 Bft) W-SW 246 0 min 0,000 mm 0,0 UV-I 0 W/m 12,3 C 16,0 C 9,7 km/h (2 Bft) 98,00 %
29.09.2019 22:32 16,6 C 13,9 C 15,6 C 76 % 1005,2 hPa 0,0 l/m 9,8 km/h (2 Bft) SW 229 0 min 0,000 mm 0,0 UV-I 0 W/m 12,3 C 15,0 C 12,9 km/h (3 Bft) 97,87 %
29.09.2019 22:34 16,6 C 13,9 C 15,6 C 75 % 1005,2 hPa 0,0 l/m 7,9 km/h (2 Bft) SW 227 0 min 0,000 mm 0,0 UV-I 0 W/m 12,1 C 15,8 C 14,5 km/h (3 Bft) 96,00 %
29.09.2019 22:36 16,7 C 13,9 C 15,6 C 75 % 1005,2 hPa 0,0 l/m 7,0 km/h (2 Bft) SW 222 0 min 0,000 mm 0,0 UV-I 0 W/m 12,2 C 16,4 C 11,3 km/h (2 Bft) 98,00 %
29.09.2019 22:38 16,7 C 13,9 C 15,6 C 75 % 1005,2 hPa 0,0 l/m 7,7 km/h (2 Bft) SW 234 0 min 0,000 mm 0,0 UV-I 0 W/m 12,2 C 16,0 C 11,3 km/h (2 Bft) 97,37 %
29.09.2019 22:40 16,7 C 13,9 C 15,6 C 75 % 1005,2 hPa 0,0 l/m 7,2 km/h (2 Bft) W-SW 239 0 min 0,000 mm 0,0 UV-I 0 W/m 12,2 C 16,3 C 11,3 km/h (2 Bft) 98,00 %
29.09.2019 22:42 16,7 C 13,9 C 15,6 C 75 % 1005,1 hPa 0,0 l/m 7,6 km/h (2 Bft) W-SW 240 0 min 0,000 mm 0,0 UV-I 0 W/m 12,2 C 16,1 C 11,3 km/h (2 Bft) 97,56 %
29.09.2019 22:44 16,7 C 13,9 C 15,6 C 75 % 1005,3 hPa 0,0 l/m 7,3 km/h (2 Bft) W-SW 244 0 min 0,000 mm 0,0 UV-I 0 W/m 12,2 C 16,2 C 9,7 km/h (2 Bft) 95,12 %
29.09.2019 22:46 16,7 C 13,9 C 15,6 C 75 % 1005,3 hPa 0,0 l/m 7,6 km/h (2 Bft) W-SW 240 0 min 0,000 mm 0,0 UV-I 0 W/m 12,2 C 16,1 C 11,3 km/h (2 Bft) 98,11 %
29.09.2019 22:48 16,6 C 13,9 C 15,6 C 75 % 1005,3 hPa 0,0 l/m 6,3 km/h (2 Bft) SW 227 0 min 0,000 mm 0,0 UV-I 0 W/m 12,1 C 16,6 C 8,0 km/h (2 Bft) 98,21 %
29.09.2019 22:50 16,6 C 13,9 C 15,6 C 75 % 1005,3 hPa 0,0 l/m 5,8 km/h (2 Bft) W-SW 240 0 min 0,000 mm 0,0 UV-I 0 W/m 12,1 C 16,6 C 8,0 km/h (2 Bft) 95,74 %
29.09.2019 22:52 16,6 C 13,9 C 15,6 C 75 % 1005,4 hPa 0,0 l/m 4,9 km/h (1 Bft) SW 235 0 min 0,000 mm 0,0 UV-I 0 W/m 12,1 C 16,6 C 6,4 km/h (2 Bft) 95,74 %
29.09.2019 22:54 16,5 C 13,9 C 15,6 C 75 % 1005,5 hPa 0,0 l/m 5,9 km/h (2 Bft) W-SW 242 0 min 0,000 mm 0,0 UV-I 0 W/m 12,1 C 16,5 C 8,0 km/h (2 Bft) 95,45 %
29.09.2019 22:56 16,5 C 13,9 C 15,6 C 76 % 1005,6 hPa 0,0 l/m 5,1 km/h (1 Bft) W-SW 255 0 min 0,000 mm 0,0 UV-I 0 W/m 12,3 C 16,5 C 8,0 km/h (2 Bft) 95,74 %
29.09.2019 22:58 16,5 C 13,9 C 15,6 C 76 % 1005,5 hPa 0,0 l/m 4,8 km/h (1 Bft) W-SW 252 0 min 0,000 mm 0,0 UV-I 0 W/m 12,3 C 16,5 C 9,7 km/h (2 Bft) 94,00 %
29.09.2019 23:00 16,4 C 13,9 C 15,6 C 76 % 1005,6 hPa 0,0 l/m 6,7 km/h (2 Bft) SW 223 0 min 0,026 mm 0,0 UV-I 0 W/m 12,2 C 16,3 C 9,7 km/h (2 Bft) 88,89 %
29.09.2019 23:02 16,4 C 13,9 C 15,6 C 77 % 1005,6 hPa 0,0 l/m 6,4 km/h (2 Bft) W-SW 256 0 min 0,000 mm 0,0 UV-I 0 W/m 12,4 C 16,4 C 9,7 km/h (2 Bft) 94,00 %
29.09.2019 23:04 16,4 C 13,9 C 15,6 C 77 % 1005,6 hPa 0,0 l/m 5,3 km/h (1 Bft) W-SW 253 0 min 0,000 mm 0,0 UV-I 0 W/m 12,4 C 16,4 C 6,4 km/h (2 Bft) 93,62 %
29.09.2019 23:06 16,3 C 13,9 C 15,6 C 77 % 1005,6 hPa 0,0 l/m 6,2 km/h (2 Bft) W-SW 253 0 min 0,000 mm 0,0 UV-I 0 W/m 12,3 C 16,3 C 9,7 km/h (2 Bft) 90,57 %
29.09.2019 23:08 16,3 C 13,9 C 15,6 C 77 % 1005,6 hPa 0,0 l/m 5,4 km/h (1 Bft) W-SW 240 0 min 0,000 mm 0,0 UV-I 0 W/m 12,3 C 16,3 C 9,7 km/h (2 Bft) 95,12 %
29.09.2019 23:10 16,3 C 13,9 C 15,6 C 77 % 1005,6 hPa 0,0 l/m 6,6 km/h (2 Bft) W 261 0 min 0,000 mm 0,0 UV-I 0 W/m 12,3 C 16,2 C 9,7 km/h (2 Bft) 92,45 %
29.09.2019 23:12 16,3 C 13,9 C 15,6 C 77 % 1005,6 hPa 0,0 l/m 6,5 km/h (2 Bft) W-SW 239 0 min 0,000 mm 0,0 UV-I 0 W/m 12,3 C 16,3 C 9,7 km/h (2 Bft) 94,74 %
29.09.2019 23:14 16,2 C 13,9 C 15,6 C 78 % 1005,5 hPa 0,0 l/m 5,8 km/h (2 Bft) W-SW 256 0 min 0,000 mm 0,0 UV-I 0 W/m 12,4 C 16,2 C 9,7 km/h (2 Bft) 96,00 %
29.09.2019 23:16 16,2 C 13,9 C 15,6 C 78 % 1005,5 hPa 0,0 l/m 5,0 km/h (1 Bft) W-SW 258 0 min 0,000 mm 0,0 UV-I 0 W/m 12,4 C 16,2 C 6,4 km/h (2 Bft) 96,00 %
29.09.2019 23:18 16,1 C 13,9 C 15,6 C 79 % 1005,6 hPa 0,0 l/m 6,3 km/h (2 Bft) W-SW 246 0 min 0,000 mm 0,0 UV-I 0 W/m 12,5 C 16,1 C 9,7 km/h (2 Bft) 97,87 %
29.09.2019 23:20 16,1 C 13,9 C 15,6 C 79 % 1005,5 hPa 0,0 l/m 7,2 km/h (2 Bft) SW 236 0 min 0,000 mm 0,0 UV-I 0 W/m 12,5 C 15,7 C 11,3 km/h (2 Bft) 98,00 %
29.09.2019 23:22 16,1 C 13,9 C 15,6 C 79 % 1005,6 hPa 0,0 l/m 5,5 km/h (1 Bft) W-SW 255 0 min 0,000 mm 0,0 UV-I 0 W/m 12,5 C 16,1 C 9,7 km/h (2 Bft) 93,18 %
29.09.2019 23:24 15,9 C 13,9 C 15,6 C 80 % 1005,6 hPa 0,0 l/m 6,4 km/h (2 Bft) W-SW 242 0 min 0,000 mm 0,0 UV-I 0 W/m 12,5 C 15,9 C 11,3 km/h (2 Bft) 97,87 %
29.09.2019 23:26 15,9 C 13,9 C 15,6 C 80 % 1005,6 hPa 0,0 l/m 5,4 km/h (1 Bft) W 264 0 min 0,000 mm 0,0 UV-I 0 W/m 12,5 C 15,9 C 9,7 km/h (2 Bft) 95,83 %
29.09.2019 23:29 15,9 C 13,9 C 15,6 C 81 % 1005,7 hPa 0,0 l/m 5,9 km/h (2 Bft) SW 225 0 min 0,000 mm 0,0 UV-I 0 W/m 12,6 C 15,9 C 11,3 km/h (2 Bft) 97,65 %
29.09.2019 23:30 15,8 C 13,9 C 15,6 C 81 % 1005,7 hPa 0,0 l/m 6,0 km/h (2 Bft) SW 236 0 min 0,000 mm 0,0 UV-I 0 W/m 12,5 C 15,8 C 6,4 km/h (2 Bft) 96,15 %
29.09.2019 23:32 15,8 C 13,9 C 15,6 C 81 % 1005,6 hPa 0,0 l/m 6,4 km/h (2 Bft) SW 235 0 min 0,000 mm 0,0 UV-I 0 W/m 12,5 C 15,8 C 9,7 km/h (2 Bft) 97,87 %
29.09.2019 23:34 15,8 C 13,9 C 15,0 C 81 % 1005,7 hPa 0,0 l/m 6,4 km/h (2 Bft) W-SW 238 0 min 0,000 mm 0,0 UV-I 0 W/m 12,5 C 15,8 C 9,7 km/h (2 Bft) 95,24 %
29.09.2019 23:36 15,8 C 13,9 C 15,0 C 81 % 1005,6 hPa 0,0 l/m 6,9 km/h (2 Bft) W-SW 238 0 min 0,000 mm 0,0 UV-I 0 W/m 12,5 C 15,5 C 14,5 km/h (3 Bft) 98,11 %
29.09.2019 23:38 15,8 C 13,9 C 15,0 C 81 % 1005,7 hPa 0,0 l/m 7,5 km/h (2 Bft) W-SW 239 0 min 0,000 mm 0,0 UV-I 0 W/m 12,5 C 15,2 C 12,9 km/h (3 Bft) 96,23 %
29.09.2019 23:40 15,8 C 13,9 C 15,0 C 81 % 1005,7 hPa 0,0 l/m 8,2 km/h (2 Bft) W-SW 242 0 min 0,000 mm 0,0 UV-I 0 W/m 12,5 C 14,8 C 14,5 km/h (3 Bft) 97,14 %
29.09.2019 23:42 15,8 C 13,9 C 15,0 C 81 % 1005,6 hPa 0,0 l/m 7,5 km/h (2 Bft) W-SW 244 0 min 0,000 mm 0,0 UV-I 0 W/m 12,5 C 15,2 C 12,9 km/h (3 Bft) 98,00 %
29.09.2019 23:44 15,8 C 13,9 C 15,0 C 81 % 1005,5 hPa 0,0 l/m 6,5 km/h (2 Bft) SW 217 0 min 0,000 mm 0,0 UV-I 0 W/m 12,5 C 15,8 C 8,0 km/h (2 Bft) 97,87 %
29.09.2019 23:46 15,8 C 13,9 C 15,0 C 81 % 1005,5 hPa 0,0 l/m 8,7 km/h (2 Bft) SW 222 0 min 0,000 mm 0,0 UV-I 0 W/m 12,5 C 14,6 C 11,3 km/h (2 Bft) 97,87 %
29.09.2019 23:49 15,8 C 13,9 C 15,0 C 81 % 1005,5 hPa 0,0 l/m 7,2 km/h (2 Bft) SW 222 0 min 0,000 mm 0,0 UV-I 0 W/m 12,5 C 15,4 C 11,3 km/h (2 Bft) 97,47 %
29.09.2019 23:50 15,9 C 13,9 C 15,0 C 81 % 1005,5 hPa 0,0 l/m 7,7 km/h (2 Bft) SW 234 0 min 0,000 mm 0,0 UV-I 0 W/m 12,6 C 15,2 C 9,7 km/h (2 Bft) 100,00 %
29.09.2019 23:52 15,9 C 13,9 C 15,6 C 81 % 1005,5 hPa 0,0 l/m 6,5 km/h (2 Bft) S-SW 213 0 min 0,000 mm 0,0 UV-I 0 W/m 12,6 C 15,9 C 9,7 km/h (2 Bft) 96,00 %
29.09.2019 23:54 16,0 C 13,9 C 15,6 C 80 % 1005,5 hPa 0,0 l/m 7,4 km/h (2 Bft) SW 219 0 min 0,000 mm 0,0 UV-I 0 W/m 12,5 C 15,5 C 9,7 km/h (2 Bft) 98,11 %
29.09.2019 23:56 16,1 C 13,9 C 15,6 C 80 % 1005,6 hPa 0,0 l/m 7,7 km/h (2 Bft) W-SW 240 0 min 0,000 mm 0,0 UV-I 0 W/m 12,6 C 15,4 C 11,3 km/h (2 Bft) 97,73 %
29.09.2019 23:58 16,1 C 13,9 C 15,6 C 80 % 1005,7 hPa 0,0 l/m 8,0 km/h (2 Bft) W-SW 247 0 min 0,000 mm 0,0 UV-I 0 W/m 12,6 C 15,3 C 12,9 km/h (3 Bft) 98,00 %
_ Min-Zeit 07:36 00:00 07:02 13:48 21:36 - 03:18 - - - - - - 07:12 07:36 03:18 14:32
Minimum _ 9,1 C 13,9 C 7,8 C 56 % 1005,1 hPa - 0,0 km/h (0 Bft) - - - - - - 8,4 C 9,1 C 0,0 km/h (0 Bft) 87,23 %
_ Max-Zeit 15:54 00:00 11:40 07:36 00:00 00:00 16:32 - - 07:10 13:00 12:36 12:52 17:36 15:54 22:16 00:00
Maximum _ 21,9 C 13,9 C 32,8 C 96 % 1016,8 hPa 0,0 l/m 12,3 km/h
O (3 Bft)
- - 2 min 0,356 mm 3,2 UV-I 584 W/m 14,3 C 21,9 C 17,7 km/h
W-SW (3 Bft)
100,00 %
Durchschnitt _ 15,4 C 13,9 C 16,3 C 79 % 1011,0 hPa #0,0 l/m 4,4 km/h (1 Bft) SW - #10:02 h #2,591 mm 2,0 UV-I 331 W/m 11,5 C 15,3 C 7,0 km/h (2 Bft) 97,28 %